<?xml version="1.0" encoding="utf-8"?>
<gpx xmlns:xsi="http://www.w3.org/2001/XMLSchema-instance" xmlns:xsd="http://www.w3.org/2001/XMLSchema" version="1.1" creator="Shapelink.com" xmlns="http://www.topografix.com/GPX/1/1" xmlns:gpxtpx="http://www.garmin.com/xmlschemas/TrackPointExtension/v1">
  <metadata>
    <name>Ciclismo 45.81 km, 2020-01-12</name>
    <desc></desc>
    <author><name>Per Rooth</name></author> 
    <time>2020-01-12T06:52:43Z</time>
  </metadata>
  <trk>
    <name>Ciclismo 45.81 km, 2020-01-12</name>
    <trkseg>
      <trkpt lat="56.873240623093" lon="14.792939294033">
        <ele>176</ele>
        <time>2020-01-12T06:52:43Z</time>
      </trkpt>
      <trkpt lat="56.873157642283" lon="14.792924038975">
        <ele>176</ele>
        <time>2020-01-12T06:52:47Z</time>
      </trkpt>
      <trkpt lat="56.872658164862" lon="14.792870646272">
        <ele>176</ele>
        <time>2020-01-12T06:53:01Z</time>
      </trkpt>
      <trkpt lat="56.872477702555" lon="14.792782552503">
        <ele>175.6</ele>
        <time>2020-01-12T06:53:05Z</time>
      </trkpt>
      <trkpt lat="56.871935309806" lon="14.79286075563">
        <ele>175.6</ele>
        <time>2020-01-12T06:53:16Z</time>
      </trkpt>
      <trkpt lat="56.871562985808" lon="14.79303426096">
        <ele>175.8</ele>
        <time>2020-01-12T06:53:24Z</time>
      </trkpt>
      <trkpt lat="56.871465001397" lon="14.793032668399">
        <ele>176</ele>
        <time>2020-01-12T06:53:26Z</time>
      </trkpt>
      <trkpt lat="56.870904419925" lon="14.792766291617">
        <ele>175.4</ele>
        <time>2020-01-12T06:53:37Z</time>
      </trkpt>
      <trkpt lat="56.870692693131" lon="14.792653219786">
        <ele>175</ele>
        <time>2020-01-12T06:53:41Z</time>
      </trkpt>
      <trkpt lat="56.87047736212" lon="14.792559593963">
        <ele>174.4</ele>
        <time>2020-01-12T06:53:45Z</time>
      </trkpt>
      <trkpt lat="56.870316178183" lon="14.792485749424">
        <ele>173.8</ele>
        <time>2020-01-12T06:53:48Z</time>
      </trkpt>
      <trkpt lat="56.870171925684" lon="14.792360607657">
        <ele>173.4</ele>
        <time>2020-01-12T06:53:51Z</time>
      </trkpt>
      <trkpt lat="56.870077377852" lon="14.792364379512">
        <ele>172.8</ele>
        <time>2020-01-12T06:53:53Z</time>
      </trkpt>
      <trkpt lat="56.870004874417" lon="14.79250033393">
        <ele>172.4</ele>
        <time>2020-01-12T06:53:55Z</time>
      </trkpt>
      <trkpt lat="56.869948799506" lon="14.792681466789">
        <ele>172.2</ele>
        <time>2020-01-12T06:53:57Z</time>
      </trkpt>
      <trkpt lat="56.869692481004" lon="14.793627531842">
        <ele>171.8</ele>
        <time>2020-01-12T06:54:07Z</time>
      </trkpt>
      <trkpt lat="56.869663228173" lon="14.793702046933">
        <ele>171.8</ele>
        <time>2020-01-12T06:54:08Z</time>
      </trkpt>
      <trkpt lat="56.869618887922" lon="14.793745465175">
        <ele>171.8</ele>
        <time>2020-01-12T06:54:09Z</time>
      </trkpt>
      <trkpt lat="56.86951344362" lon="14.793706070245">
        <ele>171.8</ele>
        <time>2020-01-12T06:54:11Z</time>
      </trkpt>
      <trkpt lat="56.869330802019" lon="14.793409937718">
        <ele>171.2</ele>
        <time>2020-01-12T06:54:15Z</time>
      </trkpt>
      <trkpt lat="56.869184286407" lon="14.793208185385">
        <ele>170</ele>
        <time>2020-01-12T06:54:18Z</time>
      </trkpt>
      <trkpt lat="56.869076578992" lon="14.793127886783">
        <ele>169.6</ele>
        <time>2020-01-12T06:54:20Z</time>
      </trkpt>
      <trkpt lat="56.868919753643" lon="14.793038284272">
        <ele>169.2</ele>
        <time>2020-01-12T06:54:23Z</time>
      </trkpt>
      <trkpt lat="56.868822104508" lon="14.793050521846">
        <ele>169.2</ele>
        <time>2020-01-12T06:54:25Z</time>
      </trkpt>
      <trkpt lat="56.868750523082" lon="14.793136017226">
        <ele>169</ele>
        <time>2020-01-12T06:54:27Z</time>
      </trkpt>
      <trkpt lat="56.868527061628" lon="14.793962556385">
        <ele>169</ele>
        <time>2020-01-12T06:54:36Z</time>
      </trkpt>
      <trkpt lat="56.868425975914" lon="14.794448622766">
        <ele>168.6</ele>
        <time>2020-01-12T06:54:41Z</time>
      </trkpt>
      <trkpt lat="56.868227241065" lon="14.79543399893">
        <ele>168.8</ele>
        <time>2020-01-12T06:54:52Z</time>
      </trkpt>
      <trkpt lat="56.868170579421" lon="14.795702890282">
        <ele>168.6</ele>
        <time>2020-01-12T06:54:55Z</time>
      </trkpt>
      <trkpt lat="56.868114336872" lon="14.79578436235">
        <ele>168.6</ele>
        <time>2020-01-12T06:54:57Z</time>
      </trkpt>
      <trkpt lat="56.867995900625" lon="14.79560834245">
        <ele>169.2</ele>
        <time>2020-01-12T06:55:01Z</time>
      </trkpt>
      <trkpt lat="56.867982154309" lon="14.795359148563">
        <ele>169.4</ele>
        <time>2020-01-12T06:55:03Z</time>
      </trkpt>
      <trkpt lat="56.867929599796" lon="14.795222523593">
        <ele>169.4</ele>
        <time>2020-01-12T06:55:05Z</time>
      </trkpt>
      <trkpt lat="56.867721561038" lon="14.794947345816">
        <ele>170</ele>
        <time>2020-01-12T06:55:11Z</time>
      </trkpt>
      <trkpt lat="56.867647800318" lon="14.794840476591">
        <ele>170.4</ele>
        <time>2020-01-12T06:55:13Z</time>
      </trkpt>
      <trkpt lat="56.86736683903" lon="14.794459267779">
        <ele>171.2</ele>
        <time>2020-01-12T06:55:21Z</time>
      </trkpt>
      <trkpt lat="56.867310177386" lon="14.794354494029">
        <ele>171.4</ele>
        <time>2020-01-12T06:55:23Z</time>
      </trkpt>
      <trkpt lat="56.867273297026" lon="14.794300346955">
        <ele>171.6</ele>
        <time>2020-01-12T06:55:24Z</time>
      </trkpt>
      <trkpt lat="56.867098869687" lon="14.794051739801">
        <ele>172.2</ele>
        <time>2020-01-12T06:55:29Z</time>
      </trkpt>
      <trkpt lat="56.866984540571" lon="14.793905810922">
        <ele>172.6</ele>
        <time>2020-01-12T06:55:32Z</time>
      </trkpt>
      <trkpt lat="56.866737106883" lon="14.79345754691">
        <ele>173.4</ele>
        <time>2020-01-12T06:55:40Z</time>
      </trkpt>
      <trkpt lat="56.866262775162" lon="14.793013138572">
        <ele>173.6</ele>
        <time>2020-01-12T06:55:50Z</time>
      </trkpt>
      <trkpt lat="56.866152888453" lon="14.792937282377">
        <ele>173.4</ele>
        <time>2020-01-12T06:55:52Z</time>
      </trkpt>
      <trkpt lat="56.865620218708" lon="14.792667720473">
        <ele>172.8</ele>
        <time>2020-01-12T06:56:01Z</time>
      </trkpt>
      <trkpt lat="56.865497340054" lon="14.792606867879">
        <ele>172.4</ele>
        <time>2020-01-12T06:56:03Z</time>
      </trkpt>
      <trkpt lat="56.865361972369" lon="14.792534364444">
        <ele>172</ele>
        <time>2020-01-12T06:56:05Z</time>
      </trkpt>
      <trkpt lat="56.865215456757" lon="14.792453227652">
        <ele>171.4</ele>
        <time>2020-01-12T06:56:07Z</time>
      </trkpt>
      <trkpt lat="56.865084699117" lon="14.792312327913">
        <ele>170.6</ele>
        <time>2020-01-12T06:56:09Z</time>
      </trkpt>
      <trkpt lat="56.865032731337" lon="14.792235633528">
        <ele>170.2</ele>
        <time>2020-01-12T06:56:10Z</time>
      </trkpt>
      <trkpt lat="56.864826201321" lon="14.791934304223">
        <ele>169.2</ele>
        <time>2020-01-12T06:56:14Z</time>
      </trkpt>
      <trkpt lat="56.864716566069" lon="14.791743532179">
        <ele>169.2</ele>
        <time>2020-01-12T06:56:17Z</time>
      </trkpt>
      <trkpt lat="56.86463350144" lon="14.791521663286">
        <ele>169.8</ele>
        <time>2020-01-12T06:56:20Z</time>
      </trkpt>
      <trkpt lat="56.864604751523" lon="14.791458631398">
        <ele>170.2</ele>
        <time>2020-01-12T06:56:21Z</time>
      </trkpt>
      <trkpt lat="56.864576839796" lon="14.791388810171">
        <ele>170.4</ele>
        <time>2020-01-12T06:56:22Z</time>
      </trkpt>
      <trkpt lat="56.864545910585" lon="14.791221926542">
        <ele>170.8</ele>
        <time>2020-01-12T06:56:24Z</time>
      </trkpt>
      <trkpt lat="56.864538115418" lon="14.791031154498">
        <ele>171.2</ele>
        <time>2020-01-12T06:56:26Z</time>
      </trkpt>
      <trkpt lat="56.86453375683" lon="14.790940713797">
        <ele>171.2</ele>
        <time>2020-01-12T06:56:27Z</time>
      </trkpt>
      <trkpt lat="56.86452202217" lon="14.79065966869">
        <ele>171.6</ele>
        <time>2020-01-12T06:56:30Z</time>
      </trkpt>
      <trkpt lat="56.864540127074" lon="14.790476524175">
        <ele>171.6</ele>
        <time>2020-01-12T06:56:32Z</time>
      </trkpt>
      <trkpt lat="56.864563428756" lon="14.790296983877">
        <ele>171.8</ele>
        <time>2020-01-12T06:56:34Z</time>
      </trkpt>
      <trkpt lat="56.864584383506" lon="14.790148540428">
        <ele>171.8</ele>
        <time>2020-01-12T06:56:36Z</time>
      </trkpt>
      <trkpt lat="56.864690079265" lon="14.789596676132">
        <ele>171.4</ele>
        <time>2020-01-12T06:56:42Z</time>
      </trkpt>
      <trkpt lat="56.864708016531" lon="14.789510677838">
        <ele>171</ele>
        <time>2020-01-12T06:56:43Z</time>
      </trkpt>
      <trkpt lat="56.864722684856" lon="14.789419398947">
        <ele>171</ele>
        <time>2020-01-12T06:56:44Z</time>
      </trkpt>
      <trkpt lat="56.864785465287" lon="14.789143885894">
        <ele>170.8</ele>
        <time>2020-01-12T06:56:47Z</time>
      </trkpt>
      <trkpt lat="56.864833661212" lon="14.788960154646">
        <ele>170.8</ele>
        <time>2020-01-12T06:56:49Z</time>
      </trkpt>
      <trkpt lat="56.864964837947" lon="14.788484230364">
        <ele>170.6</ele>
        <time>2020-01-12T06:56:54Z</time>
      </trkpt>
      <trkpt lat="56.865015799899" lon="14.788275101959">
        <ele>170.2</ele>
        <time>2020-01-12T06:56:56Z</time>
      </trkpt>
      <trkpt lat="56.865063576729" lon="14.788064297174">
        <ele>169.8</ele>
        <time>2020-01-12T06:56:58Z</time>
      </trkpt>
      <trkpt lat="56.865120070735" lon="14.787839829892">
        <ele>169</ele>
        <time>2020-01-12T06:57:00Z</time>
      </trkpt>
      <trkpt lat="56.865179666044" lon="14.787614692058">
        <ele>168.4</ele>
        <time>2020-01-12T06:57:02Z</time>
      </trkpt>
      <trkpt lat="56.865237668792" lon="14.787408748775">
        <ele>167.8</ele>
        <time>2020-01-12T06:57:04Z</time>
      </trkpt>
      <trkpt lat="56.865265831976" lon="14.787304477939">
        <ele>167.6</ele>
        <time>2020-01-12T06:57:05Z</time>
      </trkpt>
      <trkpt lat="56.865320230507" lon="14.787099708122">
        <ele>166.8</ele>
        <time>2020-01-12T06:57:07Z</time>
      </trkpt>
      <trkpt lat="56.865368677889" lon="14.786897704332">
        <ele>166.2</ele>
        <time>2020-01-12T06:57:09Z</time>
      </trkpt>
      <trkpt lat="56.865468087223" lon="14.786409291019">
        <ele>165.8</ele>
        <time>2020-01-12T06:57:13Z</time>
      </trkpt>
      <trkpt lat="56.865485605394" lon="14.786293453161">
        <ele>165.6</ele>
        <time>2020-01-12T06:57:14Z</time>
      </trkpt>
      <trkpt lat="56.86550773361" lon="14.786181973891">
        <ele>165.6</ele>
        <time>2020-01-12T06:57:15Z</time>
      </trkpt>
      <trkpt lat="56.865614519016" lon="14.785290307369">
        <ele>165.4</ele>
        <time>2020-01-12T06:57:23Z</time>
      </trkpt>
      <trkpt lat="56.865635389947" lon="14.784965592563">
        <ele>165.6</ele>
        <time>2020-01-12T06:57:26Z</time>
      </trkpt>
      <trkpt lat="56.865641341096" lon="14.784778592374">
        <ele>165.6</ele>
        <time>2020-01-12T06:57:28Z</time>
      </trkpt>
      <trkpt lat="56.865632707739" lon="14.784496876715">
        <ele>165.6</ele>
        <time>2020-01-12T06:57:31Z</time>
      </trkpt>
      <trkpt lat="56.865558779381" lon="14.784146345657">
        <ele>165.6</ele>
        <time>2020-01-12T06:57:35Z</time>
      </trkpt>
      <trkpt lat="56.865355099211" lon="14.783177733293">
        <ele>166.8</ele>
        <time>2020-01-12T06:57:46Z</time>
      </trkpt>
      <trkpt lat="56.86521688168" lon="14.782705161771">
        <ele>168</ele>
        <time>2020-01-12T06:57:52Z</time>
      </trkpt>
      <trkpt lat="56.865006998904" lon="14.78208079404">
        <ele>168</ele>
        <time>2020-01-12T06:57:59Z</time>
      </trkpt>
      <trkpt lat="56.864731737308" lon="14.78120237092">
        <ele>167.4</ele>
        <time>2020-01-12T06:58:09Z</time>
      </trkpt>
      <trkpt lat="56.864423618664" lon="14.780281870662">
        <ele>167.2</ele>
        <time>2020-01-12T06:58:20Z</time>
      </trkpt>
      <trkpt lat="56.86439545548" lon="14.780212971444">
        <ele>167.2</ele>
        <time>2020-01-12T06:58:21Z</time>
      </trkpt>
      <trkpt lat="56.864340805492" lon="14.780106269857">
        <ele>167</ele>
        <time>2020-01-12T06:58:23Z</time>
      </trkpt>
      <trkpt lat="56.864306858797" lon="14.780097301224">
        <ele>166.8</ele>
        <time>2020-01-12T06:58:24Z</time>
      </trkpt>
      <trkpt lat="56.864182052306" lon="14.780143988407">
        <ele>166.6</ele>
        <time>2020-01-12T06:58:27Z</time>
      </trkpt>
      <trkpt lat="56.863927996917" lon="14.779778705205">
        <ele>166.6</ele>
        <time>2020-01-12T06:58:33Z</time>
      </trkpt>
      <trkpt lat="56.863652400045" lon="14.779459019539">
        <ele>168</ele>
        <time>2020-01-12T06:58:40Z</time>
      </trkpt>
      <trkpt lat="56.863542680974" lon="14.779347121174">
        <ele>169</ele>
        <time>2020-01-12T06:58:43Z</time>
      </trkpt>
      <trkpt lat="56.863418628854" lon="14.779248466211">
        <ele>169.8</ele>
        <time>2020-01-12T06:58:46Z</time>
      </trkpt>
      <trkpt lat="56.863206315327" lon="14.779121312788">
        <ele>170</ele>
        <time>2020-01-12T06:58:50Z</time>
      </trkpt>
      <trkpt lat="56.863063068656" lon="14.778952585141">
        <ele>169.8</ele>
        <time>2020-01-12T06:58:53Z</time>
      </trkpt>
      <trkpt lat="56.862968269367" lon="14.778746641858">
        <ele>169.8</ele>
        <time>2020-01-12T06:58:56Z</time>
      </trkpt>
      <trkpt lat="56.862887216394" lon="14.778480684171">
        <ele>170</ele>
        <time>2020-01-12T06:59:00Z</time>
      </trkpt>
      <trkpt lat="56.862757380763" lon="14.778243644039">
        <ele>170.6</ele>
        <time>2020-01-12T06:59:04Z</time>
      </trkpt>
      <trkpt lat="56.86265621123" lon="14.777963018027">
        <ele>170.6</ele>
        <time>2020-01-12T06:59:08Z</time>
      </trkpt>
      <trkpt lat="56.862470049231" lon="14.777535541127">
        <ele>170.2</ele>
        <time>2020-01-12T06:59:14Z</time>
      </trkpt>
      <trkpt lat="56.862134437955" lon="14.776685448829">
        <ele>170.6</ele>
        <time>2020-01-12T06:59:26Z</time>
      </trkpt>
      <trkpt lat="56.862089762428" lon="14.776528539661">
        <ele>170.6</ele>
        <time>2020-01-12T06:59:28Z</time>
      </trkpt>
      <trkpt lat="56.862013570957" lon="14.776189910901">
        <ele>171</ele>
        <time>2020-01-12T06:59:32Z</time>
      </trkpt>
      <trkpt lat="56.861951544897" lon="14.775866956294">
        <ele>172.2</ele>
        <time>2020-01-12T06:59:36Z</time>
      </trkpt>
      <trkpt lat="56.861888596828" lon="14.775740138147">
        <ele>172.8</ele>
        <time>2020-01-12T06:59:38Z</time>
      </trkpt>
      <trkpt lat="56.861720372095" lon="14.775493961744">
        <ele>173</ele>
        <time>2020-01-12T06:59:42Z</time>
      </trkpt>
      <trkpt lat="56.861650550868" lon="14.775354989842">
        <ele>172.6</ele>
        <time>2020-01-12T06:59:44Z</time>
      </trkpt>
      <trkpt lat="56.861496826822" lon="14.774908486029">
        <ele>171.4</ele>
        <time>2020-01-12T06:59:49Z</time>
      </trkpt>
      <trkpt lat="56.861443685576" lon="14.774710002637">
        <ele>171.2</ele>
        <time>2020-01-12T06:59:51Z</time>
      </trkpt>
      <trkpt lat="56.861427759966" lon="14.774611180036">
        <ele>171</ele>
        <time>2020-01-12T06:59:52Z</time>
      </trkpt>
      <trkpt lat="56.861384760819" lon="14.774381515976">
        <ele>171</ele>
        <time>2020-01-12T06:59:54Z</time>
      </trkpt>
      <trkpt lat="56.861316029239" lon="14.774188397">
        <ele>170.6</ele>
        <time>2020-01-12T06:59:56Z</time>
      </trkpt>
      <trkpt lat="56.861154929121" lon="14.774011371272">
        <ele>170.4</ele>
        <time>2020-01-12T06:59:59Z</time>
      </trkpt>
      <trkpt lat="56.860943369965" lon="14.773906010789">
        <ele>170.2</ele>
        <time>2020-01-12T07:00:03Z</time>
      </trkpt>
      <trkpt lat="56.860841446061" lon="14.773938784018">
        <ele>170.2</ele>
        <time>2020-01-12T07:00:05Z</time>
      </trkpt>
      <trkpt lat="56.860745054211" lon="14.773972563075">
        <ele>170.2</ele>
        <time>2020-01-12T07:00:07Z</time>
      </trkpt>
      <trkpt lat="56.860589486147" lon="14.773954374352">
        <ele>170.2</ele>
        <time>2020-01-12T07:00:10Z</time>
      </trkpt>
      <trkpt lat="56.860491585555" lon="14.773873405198">
        <ele>170.4</ele>
        <time>2020-01-12T07:00:12Z</time>
      </trkpt>
      <trkpt lat="56.860413885342" lon="14.773753627847">
        <ele>170.6</ele>
        <time>2020-01-12T07:00:14Z</time>
      </trkpt>
      <trkpt lat="56.860380273923" lon="14.773682214059">
        <ele>170.8</ele>
        <time>2020-01-12T07:00:15Z</time>
      </trkpt>
      <trkpt lat="56.860350182902" lon="14.773618176343">
        <ele>170.8</ele>
        <time>2020-01-12T07:00:16Z</time>
      </trkpt>
      <trkpt lat="56.860207774421" lon="14.773172343082">
        <ele>170.6</ele>
        <time>2020-01-12T07:00:22Z</time>
      </trkpt>
      <trkpt lat="56.860114902969" lon="14.772445632352">
        <ele>171.6</ele>
        <time>2020-01-12T07:00:31Z</time>
      </trkpt>
      <trkpt lat="56.860053798918" lon="14.771913800797">
        <ele>170.8</ele>
        <time>2020-01-12T07:00:37Z</time>
      </trkpt>
      <trkpt lat="56.860072239098" lon="14.771722777296">
        <ele>170.4</ele>
        <time>2020-01-12T07:00:39Z</time>
      </trkpt>
      <trkpt lat="56.86009554078" lon="14.77161012456">
        <ele>170</ele>
        <time>2020-01-12T07:00:40Z</time>
      </trkpt>
      <trkpt lat="56.860143233791" lon="14.771406612028">
        <ele>169.4</ele>
        <time>2020-01-12T07:00:42Z</time>
      </trkpt>
      <trkpt lat="56.860181119979" lon="14.771198489451">
        <ele>169</ele>
        <time>2020-01-12T07:00:44Z</time>
      </trkpt>
      <trkpt lat="56.860201571815" lon="14.771108803121">
        <ele>169</ele>
        <time>2020-01-12T07:00:45Z</time>
      </trkpt>
      <trkpt lat="56.86036459977" lon="14.770782579573">
        <ele>168</ele>
        <time>2020-01-12T07:00:51Z</time>
      </trkpt>
      <trkpt lat="56.860415310265" lon="14.770687361189">
        <ele>167.8</ele>
        <time>2020-01-12T07:00:54Z</time>
      </trkpt>
      <trkpt lat="56.860521592757" lon="14.770654168865">
        <ele>168</ele>
        <time>2020-01-12T07:00:58Z</time>
      </trkpt>
      <trkpt lat="56.861007407681" lon="14.771063708499">
        <ele>169</ele>
        <time>2020-01-12T07:01:11Z</time>
      </trkpt>
      <trkpt lat="56.861198095906" lon="14.771183150574">
        <ele>170</ele>
        <time>2020-01-12T07:01:16Z</time>
      </trkpt>
      <trkpt lat="56.861386269561" lon="14.771245008996">
        <ele>171.2</ele>
        <time>2020-01-12T07:01:22Z</time>
      </trkpt>
      <trkpt lat="56.861522726893" lon="14.771311561282">
        <ele>172.4</ele>
        <time>2020-01-12T07:01:26Z</time>
      </trkpt>
      <trkpt lat="56.861649796497" lon="14.77127317218">
        <ele>173.6</ele>
        <time>2020-01-12T07:01:30Z</time>
      </trkpt>
      <trkpt lat="56.861983647574" lon="14.771206452256">
        <ele>173.4</ele>
        <time>2020-01-12T07:01:40Z</time>
      </trkpt>
      <trkpt lat="56.862074088275" lon="14.771176109778">
        <ele>172.8</ele>
        <time>2020-01-12T07:01:42Z</time>
      </trkpt>
      <trkpt lat="56.86214575352" lon="14.771173092294">
        <ele>172.4</ele>
        <time>2020-01-12T07:01:43Z</time>
      </trkpt>
      <trkpt lat="56.862264441224" lon="14.771161189996">
        <ele>171.4</ele>
        <time>2020-01-12T07:01:45Z</time>
      </trkpt>
      <trkpt lat="56.862359911065" lon="14.771124225817">
        <ele>170.4</ele>
        <time>2020-01-12T07:01:47Z</time>
      </trkpt>
      <trkpt lat="56.862390756457" lon="14.771099834488">
        <ele>170</ele>
        <time>2020-01-12T07:01:48Z</time>
      </trkpt>
      <trkpt lat="56.86261346354" lon="14.771039400989">
        <ele>169.4</ele>
        <time>2020-01-12T07:01:53Z</time>
      </trkpt>
      <trkpt lat="56.863066589054" lon="14.770892801558">
        <ele>169.8</ele>
        <time>2020-01-12T07:01:59Z</time>
      </trkpt>
      <trkpt lat="56.863231880122" lon="14.770873690826">
        <ele>170</ele>
        <time>2020-01-12T07:02:02Z</time>
      </trkpt>
      <trkpt lat="56.863525330441" lon="14.77100998052">
        <ele>170</ele>
        <time>2020-01-12T07:02:07Z</time>
      </trkpt>
      <trkpt lat="56.864025059319" lon="14.77127652494">
        <ele>171.4</ele>
        <time>2020-01-12T07:02:18Z</time>
      </trkpt>
      <trkpt lat="56.864277689785" lon="14.771315584594">
        <ele>171.4</ele>
        <time>2020-01-12T07:02:21Z</time>
      </trkpt>
      <trkpt lat="56.864794601558" lon="14.771138055952">
        <ele>170.2</ele>
        <time>2020-01-12T07:02:29Z</time>
      </trkpt>
      <trkpt lat="56.864914965642" lon="14.771112910252">
        <ele>169.8</ele>
        <time>2020-01-12T07:02:31Z</time>
      </trkpt>
      <trkpt lat="56.86503247988" lon="14.771127913853">
        <ele>169.4</ele>
        <time>2020-01-12T07:02:33Z</time>
      </trkpt>
      <trkpt lat="56.865265077605" lon="14.771162782557">
        <ele>169.2</ele>
        <time>2020-01-12T07:02:36Z</time>
      </trkpt>
      <trkpt lat="56.865348142234" lon="14.77118180947">
        <ele>169</ele>
        <time>2020-01-12T07:02:37Z</time>
      </trkpt>
      <trkpt lat="56.865468925413" lon="14.77126059933">
        <ele>168.6</ele>
        <time>2020-01-12T07:02:39Z</time>
      </trkpt>
      <trkpt lat="56.865946609894" lon="14.771796621835">
        <ele>169.2</ele>
        <time>2020-01-12T07:02:48Z</time>
      </trkpt>
      <trkpt lat="56.866367968007" lon="14.77240808144">
        <ele>169.8</ele>
        <time>2020-01-12T07:02:58Z</time>
      </trkpt>
      <trkpt lat="56.866394790087" lon="14.772483434721">
        <ele>169.8</ele>
        <time>2020-01-12T07:02:59Z</time>
      </trkpt>
      <trkpt lat="56.866426138393" lon="14.772654257843">
        <ele>170</ele>
        <time>2020-01-12T07:03:01Z</time>
      </trkpt>
      <trkpt lat="56.866437789234" lon="14.77282801463">
        <ele>170.2</ele>
        <time>2020-01-12T07:03:03Z</time>
      </trkpt>
      <trkpt lat="56.866455810319" lon="14.773013422258">
        <ele>170.4</ele>
        <time>2020-01-12T07:03:05Z</time>
      </trkpt>
      <trkpt lat="56.866539880776" lon="14.773280385773">
        <ele>170.6</ele>
        <time>2020-01-12T07:03:08Z</time>
      </trkpt>
      <trkpt lat="56.866623951233" lon="14.773388177007">
        <ele>170.6</ele>
        <time>2020-01-12T07:03:10Z</time>
      </trkpt>
      <trkpt lat="56.866737861254" lon="14.773448526687">
        <ele>170.6</ele>
        <time>2020-01-12T07:03:12Z</time>
      </trkpt>
      <trkpt lat="56.867281176012" lon="14.773672407236">
        <ele>170</ele>
        <time>2020-01-12T07:03:21Z</time>
      </trkpt>
      <trkpt lat="56.86745987812" lon="14.773664695888">
        <ele>169.8</ele>
        <time>2020-01-12T07:03:24Z</time>
      </trkpt>
      <trkpt lat="56.867582170041" lon="14.773647429174">
        <ele>170</ele>
        <time>2020-01-12T07:03:27Z</time>
      </trkpt>
      <trkpt lat="56.867730278214" lon="14.773573836092">
        <ele>170.2</ele>
        <time>2020-01-12T07:03:30Z</time>
      </trkpt>
      <trkpt lat="56.867841673665" lon="14.773509882195">
        <ele>170.6</ele>
        <time>2020-01-12T07:03:32Z</time>
      </trkpt>
      <trkpt lat="56.868338887973" lon="14.773156333653">
        <ele>170.4</ele>
        <time>2020-01-12T07:03:43Z</time>
      </trkpt>
      <trkpt lat="56.868487834336" lon="14.773099672009">
        <ele>170.2</ele>
        <time>2020-01-12T07:03:46Z</time>
      </trkpt>
      <trkpt lat="56.868681204769" lon="14.772996574639">
        <ele>170.4</ele>
        <time>2020-01-12T07:03:49Z</time>
      </trkpt>
      <trkpt lat="56.868979432771" lon="14.772918203874">
        <ele>171</ele>
        <time>2020-01-12T07:03:54Z</time>
      </trkpt>
      <trkpt lat="56.86912033251" lon="14.772846370991">
        <ele>171.4</ele>
        <time>2020-01-12T07:03:56Z</time>
      </trkpt>
      <trkpt lat="56.869433564113" lon="14.772687953081">
        <ele>172.4</ele>
        <time>2020-01-12T07:04:03Z</time>
      </trkpt>
      <trkpt lat="56.869650739142" lon="14.772581922046">
        <ele>173.8</ele>
        <time>2020-01-12T07:04:08Z</time>
      </trkpt>
      <trkpt lat="56.869813348002" lon="14.772533474664">
        <ele>174.8</ele>
        <time>2020-01-12T07:04:12Z</time>
      </trkpt>
      <trkpt lat="56.869860538099" lon="14.772508999516">
        <ele>175</ele>
        <time>2020-01-12T07:04:13Z</time>
      </trkpt>
      <trkpt lat="56.870108223244" lon="14.77232007149">
        <ele>175.8</ele>
        <time>2020-01-12T07:04:18Z</time>
      </trkpt>
      <trkpt lat="56.870484151459" lon="14.77203173413">
        <ele>177</ele>
        <time>2020-01-12T07:04:27Z</time>
      </trkpt>
      <trkpt lat="56.870558163636" lon="14.772025615343">
        <ele>177.4</ele>
        <time>2020-01-12T07:04:29Z</time>
      </trkpt>
      <trkpt lat="56.870645335396" lon="14.772200797053">
        <ele>177.8</ele>
        <time>2020-01-12T07:04:32Z</time>
      </trkpt>
      <trkpt lat="56.870665871051" lon="14.772285789519">
        <ele>178</ele>
        <time>2020-01-12T07:04:33Z</time>
      </trkpt>
      <trkpt lat="56.870751031155" lon="14.772620059691">
        <ele>178.6</ele>
        <time>2020-01-12T07:04:37Z</time>
      </trkpt>
      <trkpt lat="56.870812051387" lon="14.772748218942">
        <ele>178.8</ele>
        <time>2020-01-12T07:04:39Z</time>
      </trkpt>
      <trkpt lat="56.870908527056" lon="14.77284561662">
        <ele>178.8</ele>
        <time>2020-01-12T07:04:42Z</time>
      </trkpt>
      <trkpt lat="56.871336674508" lon="14.77222032688">
        <ele>178.2</ele>
        <time>2020-01-12T07:04:55Z</time>
      </trkpt>
      <trkpt lat="56.871403645889" lon="14.772100046615">
        <ele>178.4</ele>
        <time>2020-01-12T07:04:57Z</time>
      </trkpt>
      <trkpt lat="56.871612522837" lon="14.77169310537">
        <ele>178.2</ele>
        <time>2020-01-12T07:05:03Z</time>
      </trkpt>
      <trkpt lat="56.871966322836" lon="14.771297647328">
        <ele>177.4</ele>
        <time>2020-01-12T07:05:11Z</time>
      </trkpt>
      <trkpt lat="56.872092470431" lon="14.77108541762">
        <ele>177</ele>
        <time>2020-01-12T07:05:14Z</time>
      </trkpt>
      <trkpt lat="56.87221241542" lon="14.770856005017">
        <ele>176.2</ele>
        <time>2020-01-12T07:05:17Z</time>
      </trkpt>
      <trkpt lat="56.872263796467" lon="14.770828763842">
        <ele>175.6</ele>
        <time>2020-01-12T07:05:18Z</time>
      </trkpt>
      <trkpt lat="56.872396649582" lon="14.770771850741">
        <ele>173.6</ele>
        <time>2020-01-12T07:05:20Z</time>
      </trkpt>
      <trkpt lat="56.872509050861" lon="14.77068057185">
        <ele>172</ele>
        <time>2020-01-12T07:05:22Z</time>
      </trkpt>
      <trkpt lat="56.872610304213" lon="14.770568589666">
        <ele>171.4</ele>
        <time>2020-01-12T07:05:24Z</time>
      </trkpt>
      <trkpt lat="56.872700744914" lon="14.770448896134">
        <ele>170.8</ele>
        <time>2020-01-12T07:05:26Z</time>
      </trkpt>
      <trkpt lat="56.872731757944" lon="14.770386870074">
        <ele>170.6</ele>
        <time>2020-01-12T07:05:27Z</time>
      </trkpt>
      <trkpt lat="56.872897300469" lon="14.770059556879">
        <ele>170.4</ele>
        <time>2020-01-12T07:05:32Z</time>
      </trkpt>
      <trkpt lat="56.873056053655" lon="14.769836011606">
        <ele>170.2</ele>
        <time>2020-01-12T07:05:36Z</time>
      </trkpt>
      <trkpt lat="56.873121348656" lon="14.76969402222">
        <ele>170.4</ele>
        <time>2020-01-12T07:05:38Z</time>
      </trkpt>
      <trkpt lat="56.873214387746" lon="14.76941993409">
        <ele>170.4</ele>
        <time>2020-01-12T07:05:41Z</time>
      </trkpt>
      <trkpt lat="56.873296949461" lon="14.769278950532">
        <ele>170.4</ele>
        <time>2020-01-12T07:05:43Z</time>
      </trkpt>
      <trkpt lat="56.873537426172" lon="14.768938561573">
        <ele>170.2</ele>
        <time>2020-01-12T07:05:47Z</time>
      </trkpt>
      <trkpt lat="56.873618143869" lon="14.768710909169">
        <ele>169.8</ele>
        <time>2020-01-12T07:05:49Z</time>
      </trkpt>
      <trkpt lat="56.873653096392" lon="14.768454925943">
        <ele>169.2</ele>
        <time>2020-01-12T07:05:51Z</time>
      </trkpt>
      <trkpt lat="56.873655359505" lon="14.768226602987">
        <ele>168.8</ele>
        <time>2020-01-12T07:05:53Z</time>
      </trkpt>
      <trkpt lat="56.873659382817" lon="14.768130378775">
        <ele>168.6</ele>
        <time>2020-01-12T07:05:54Z</time>
      </trkpt>
      <trkpt lat="56.873738256496" lon="14.767711367594">
        <ele>169.8</ele>
        <time>2020-01-12T07:05:59Z</time>
      </trkpt>
      <trkpt lat="56.873733143537" lon="14.767118096712">
        <ele>170.8</ele>
        <time>2020-01-12T07:06:07Z</time>
      </trkpt>
      <trkpt lat="56.873673548228" lon="14.766744934524">
        <ele>171.8</ele>
        <time>2020-01-12T07:06:12Z</time>
      </trkpt>
      <trkpt lat="56.873670614563" lon="14.766670084157">
        <ele>172.2</ele>
        <time>2020-01-12T07:06:13Z</time>
      </trkpt>
      <trkpt lat="56.873721492696" lon="14.765608348884">
        <ele>171</ele>
        <time>2020-01-12T07:06:24Z</time>
      </trkpt>
      <trkpt lat="56.87373205389" lon="14.765506508799">
        <ele>170.6</ele>
        <time>2020-01-12T07:06:25Z</time>
      </trkpt>
      <trkpt lat="56.873781339462" lon="14.765094538414">
        <ele>169.6</ele>
        <time>2020-01-12T07:06:30Z</time>
      </trkpt>
      <trkpt lat="56.873998933586" lon="14.764850457486">
        <ele>169.4</ele>
        <time>2020-01-12T07:06:37Z</time>
      </trkpt>
      <trkpt lat="56.874106557182" lon="14.764886667294">
        <ele>169.4</ele>
        <time>2020-01-12T07:06:39Z</time>
      </trkpt>
      <trkpt lat="56.874383662796" lon="14.764923128559">
        <ele>169.6</ele>
        <time>2020-01-12T07:06:44Z</time>
      </trkpt>
      <trkpt lat="56.874468236167" lon="14.764914411383">
        <ele>169.6</ele>
        <time>2020-01-12T07:06:46Z</time>
      </trkpt>
      <trkpt lat="56.874996379686" lon="14.764649627162">
        <ele>169.6</ele>
        <time>2020-01-12T07:07:00Z</time>
      </trkpt>
      <trkpt lat="56.875033260046" lon="14.764662200012">
        <ele>169.8</ele>
        <time>2020-01-12T07:07:01Z</time>
      </trkpt>
      <trkpt lat="56.875217745665" lon="14.764719448389">
        <ele>170</ele>
        <time>2020-01-12T07:07:05Z</time>
      </trkpt>
      <trkpt lat="56.875316903542" lon="14.764763621002">
        <ele>170</ele>
        <time>2020-01-12T07:07:07Z</time>
      </trkpt>
      <trkpt lat="56.875452355046" lon="14.764840399206">
        <ele>170.2</ele>
        <time>2020-01-12T07:07:10Z</time>
      </trkpt>
      <trkpt lat="56.87561462863" lon="14.764949531544">
        <ele>170.8</ele>
        <time>2020-01-12T07:07:14Z</time>
      </trkpt>
      <trkpt lat="56.875917047582" lon="14.764909214605">
        <ele>171.8</ele>
        <time>2020-01-12T07:07:23Z</time>
      </trkpt>
      <trkpt lat="56.876042524625" lon="14.764682065115">
        <ele>172.4</ele>
        <time>2020-01-12T07:07:28Z</time>
      </trkpt>
      <trkpt lat="56.876329520881" lon="14.764195244363">
        <ele>172.8</ele>
        <time>2020-01-12T07:07:39Z</time>
      </trkpt>
      <trkpt lat="56.876561867149" lon="14.763860471277">
        <ele>173</ele>
        <time>2020-01-12T07:07:45Z</time>
      </trkpt>
      <trkpt lat="56.876919439003" lon="14.763034183575">
        <ele>172.8</ele>
        <time>2020-01-12T07:07:55Z</time>
      </trkpt>
      <trkpt lat="56.877000743433" lon="14.762765795137">
        <ele>172.8</ele>
        <time>2020-01-12T07:07:58Z</time>
      </trkpt>
      <trkpt lat="56.877310035543" lon="14.762210410443">
        <ele>172</ele>
        <time>2020-01-12T07:08:06Z</time>
      </trkpt>
      <trkpt lat="56.877413971103" lon="14.762104547046">
        <ele>171.8</ele>
        <time>2020-01-12T07:08:08Z</time>
      </trkpt>
      <trkpt lat="56.877561157267" lon="14.761949398077">
        <ele>171.6</ele>
        <time>2020-01-12T07:08:11Z</time>
      </trkpt>
      <trkpt lat="56.877927362478" lon="14.761168204997">
        <ele>171.8</ele>
        <time>2020-01-12T07:08:21Z</time>
      </trkpt>
      <trkpt lat="56.877985532864" lon="14.76096259699">
        <ele>172.6</ele>
        <time>2020-01-12T07:08:24Z</time>
      </trkpt>
      <trkpt lat="56.877997854257" lon="14.760889423003">
        <ele>172.8</ele>
        <time>2020-01-12T07:08:25Z</time>
      </trkpt>
      <trkpt lat="56.878043116517" lon="14.76058205873">
        <ele>173.2</ele>
        <time>2020-01-12T07:08:29Z</time>
      </trkpt>
      <trkpt lat="56.878055018815" lon="14.760146619025">
        <ele>172.8</ele>
        <time>2020-01-12T07:08:34Z</time>
      </trkpt>
      <trkpt lat="56.87839574305" lon="14.759432984059">
        <ele>173.8</ele>
        <time>2020-01-12T07:08:46Z</time>
      </trkpt>
      <trkpt lat="56.878820956837" lon="14.75872714426">
        <ele>173.6</ele>
        <time>2020-01-12T07:08:57Z</time>
      </trkpt>
      <trkpt lat="56.878950038097" lon="14.758554141844">
        <ele>173.6</ele>
        <time>2020-01-12T07:09:00Z</time>
      </trkpt>
      <trkpt lat="56.879100577021" lon="14.75818567352">
        <ele>173.2</ele>
        <time>2020-01-12T07:09:05Z</time>
      </trkpt>
      <trkpt lat="56.879203674391" lon="14.758034128768">
        <ele>172.6</ele>
        <time>2020-01-12T07:09:07Z</time>
      </trkpt>
      <trkpt lat="56.879331079271" lon="14.757949136302">
        <ele>171.2</ele>
        <time>2020-01-12T07:09:09Z</time>
      </trkpt>
      <trkpt lat="56.879491425018" lon="14.757813349522">
        <ele>170</ele>
        <time>2020-01-12T07:09:11Z</time>
      </trkpt>
      <trkpt lat="56.87955328344" lon="14.757662978236">
        <ele>169.6</ele>
        <time>2020-01-12T07:09:13Z</time>
      </trkpt>
      <trkpt lat="56.879651603127" lon="14.756931992737">
        <ele>169</ele>
        <time>2020-01-12T07:09:19Z</time>
      </trkpt>
      <trkpt lat="56.879653950059" lon="14.756722696694">
        <ele>168.8</ele>
        <time>2020-01-12T07:09:21Z</time>
      </trkpt>
      <trkpt lat="56.879661661407" lon="14.756507030407">
        <ele>168.8</ele>
        <time>2020-01-12T07:09:23Z</time>
      </trkpt>
      <trkpt lat="56.87982234243" lon="14.755804878644">
        <ele>168.8</ele>
        <time>2020-01-12T07:09:29Z</time>
      </trkpt>
      <trkpt lat="56.879954944088" lon="14.755584015579">
        <ele>168.6</ele>
        <time>2020-01-12T07:09:32Z</time>
      </trkpt>
      <trkpt lat="56.880111434161" lon="14.755436158863">
        <ele>168.4</ele>
        <time>2020-01-12T07:09:35Z</time>
      </trkpt>
      <trkpt lat="56.880226098553" lon="14.755349406198">
        <ele>168.2</ele>
        <time>2020-01-12T07:09:37Z</time>
      </trkpt>
      <trkpt lat="56.880530445342" lon="14.754999880968">
        <ele>168</ele>
        <time>2020-01-12T07:09:42Z</time>
      </trkpt>
      <trkpt lat="56.880587526081" lon="14.754949673387">
        <ele>167.8</ele>
        <time>2020-01-12T07:09:43Z</time>
      </trkpt>
      <trkpt lat="56.880692551288" lon="14.754852862442">
        <ele>167.6</ele>
        <time>2020-01-12T07:09:45Z</time>
      </trkpt>
      <trkpt lat="56.880803443825" lon="14.75474490357">
        <ele>167.2</ele>
        <time>2020-01-12T07:09:48Z</time>
      </trkpt>
      <trkpt lat="56.880907044109" lon="14.754746999045">
        <ele>166.8</ele>
        <time>2020-01-12T07:09:50Z</time>
      </trkpt>
      <trkpt lat="56.880998155362" lon="14.754776251876">
        <ele>166.8</ele>
        <time>2020-01-12T07:09:52Z</time>
      </trkpt>
      <trkpt lat="56.88141909438" lon="14.755496340905">
        <ele>167.2</ele>
        <time>2020-01-12T07:10:07Z</time>
      </trkpt>
      <trkpt lat="56.881601149248" lon="14.7554716143">
        <ele>168.2</ele>
        <time>2020-01-12T07:10:13Z</time>
      </trkpt>
      <trkpt lat="56.881673233588" lon="14.755380838323">
        <ele>169.6</ele>
        <time>2020-01-12T07:10:16Z</time>
      </trkpt>
      <trkpt lat="56.881815642069" lon="14.755261982981">
        <ele>170.6</ele>
        <time>2020-01-12T07:10:20Z</time>
      </trkpt>
      <trkpt lat="56.881854617904" lon="14.755225773173">
        <ele>170.6</ele>
        <time>2020-01-12T07:10:21Z</time>
      </trkpt>
      <trkpt lat="56.882172711009" lon="14.754926539343">
        <ele>170.6</ele>
        <time>2020-01-12T07:10:28Z</time>
      </trkpt>
      <trkpt lat="56.88228410646" lon="14.754912373932">
        <ele>170.2</ele>
        <time>2020-01-12T07:10:30Z</time>
      </trkpt>
      <trkpt lat="56.882441350904" lon="14.75499887514">
        <ele>169.6</ele>
        <time>2020-01-12T07:10:33Z</time>
      </trkpt>
      <trkpt lat="56.88258585486" lon="14.755115467369">
        <ele>169.6</ele>
        <time>2020-01-12T07:10:36Z</time>
      </trkpt>
      <trkpt lat="56.883100084425" lon="14.755432470827">
        <ele>170.4</ele>
        <time>2020-01-12T07:10:47Z</time>
      </trkpt>
      <trkpt lat="56.883145681961" lon="14.755477565449">
        <ele>170.4</ele>
        <time>2020-01-12T07:10:48Z</time>
      </trkpt>
      <trkpt lat="56.883182981416" lon="14.755527856849">
        <ele>170.6</ele>
        <time>2020-01-12T07:10:49Z</time>
      </trkpt>
      <trkpt lat="56.883261603638" lon="14.755628691106">
        <ele>170.8</ele>
        <time>2020-01-12T07:10:51Z</time>
      </trkpt>
      <trkpt lat="56.883606267366" lon="14.756157505177">
        <ele>171.6</ele>
        <time>2020-01-12T07:10:59Z</time>
      </trkpt>
      <trkpt lat="56.883623114985" lon="14.756225063291">
        <ele>171.8</ele>
        <time>2020-01-12T07:11:00Z</time>
      </trkpt>
      <trkpt lat="56.883674412213" lon="14.756357497311">
        <ele>172.4</ele>
        <time>2020-01-12T07:11:02Z</time>
      </trkpt>
      <trkpt lat="56.883707688356" lon="14.756492781177">
        <ele>172.8</ele>
        <time>2020-01-12T07:11:04Z</time>
      </trkpt>
      <trkpt lat="56.883764266181" lon="14.756775335026">
        <ele>174</ele>
        <time>2020-01-12T07:11:08Z</time>
      </trkpt>
      <trkpt lat="56.883827381888" lon="14.756997539195">
        <ele>175.2</ele>
        <time>2020-01-12T07:11:12Z</time>
      </trkpt>
      <trkpt lat="56.88388924031" lon="14.757038778143">
        <ele>175.6</ele>
        <time>2020-01-12T07:11:14Z</time>
      </trkpt>
      <trkpt lat="56.884017567199" lon="14.757095775063">
        <ele>175.8</ele>
        <time>2020-01-12T07:11:17Z</time>
      </trkpt>
      <trkpt lat="56.884584435096" lon="14.757269867126">
        <ele>175.2</ele>
        <time>2020-01-12T07:11:28Z</time>
      </trkpt>
      <trkpt lat="56.885070417658" lon="14.757038610505">
        <ele>174</ele>
        <time>2020-01-12T07:11:35Z</time>
      </trkpt>
      <trkpt lat="56.885560842627" lon="14.756555813065">
        <ele>174</ele>
        <time>2020-01-12T07:11:46Z</time>
      </trkpt>
      <trkpt lat="56.885830991264" lon="14.756273007759">
        <ele>175.2</ele>
        <time>2020-01-12T07:11:52Z</time>
      </trkpt>
      <trkpt lat="56.885877846085" lon="14.756212909536">
        <ele>175.2</ele>
        <time>2020-01-12T07:11:53Z</time>
      </trkpt>
      <trkpt lat="56.885947415855" lon="14.756061951517">
        <ele>175.2</ele>
        <time>2020-01-12T07:11:55Z</time>
      </trkpt>
      <trkpt lat="56.885981781645" lon="14.755883081771">
        <ele>175</ele>
        <time>2020-01-12T07:11:57Z</time>
      </trkpt>
      <trkpt lat="56.885982871292" lon="14.755678898687">
        <ele>174.6</ele>
        <time>2020-01-12T07:11:59Z</time>
      </trkpt>
      <trkpt lat="56.885971471908" lon="14.755367930197">
        <ele>174.6</ele>
        <time>2020-01-12T07:12:02Z</time>
      </trkpt>
      <trkpt lat="56.885995779418" lon="14.755124855097">
        <ele>174.6</ele>
        <time>2020-01-12T07:12:04Z</time>
      </trkpt>
      <trkpt lat="56.886147575627" lon="14.754229165263">
        <ele>174</ele>
        <time>2020-01-12T07:12:11Z</time>
      </trkpt>
      <trkpt lat="56.886189568946" lon="14.753942839559">
        <ele>172.6</ele>
        <time>2020-01-12T07:12:13Z</time>
      </trkpt>
      <trkpt lat="56.88622779041" lon="14.753672439465">
        <ele>171.2</ele>
        <time>2020-01-12T07:12:15Z</time>
      </trkpt>
      <trkpt lat="56.886380005714" lon="14.752747915895">
        <ele>170</ele>
        <time>2020-01-12T07:12:23Z</time>
      </trkpt>
      <trkpt lat="56.886570945396" lon="14.751806712344">
        <ele>170</ele>
        <time>2020-01-12T07:12:32Z</time>
      </trkpt>
      <trkpt lat="56.886660883183" lon="14.751363142196">
        <ele>170.2</ele>
        <time>2020-01-12T07:12:36Z</time>
      </trkpt>
      <trkpt lat="56.886674629499" lon="14.75115242123">
        <ele>170.4</ele>
        <time>2020-01-12T07:12:38Z</time>
      </trkpt>
      <trkpt lat="56.886683011399" lon="14.750462255584">
        <ele>170.6</ele>
        <time>2020-01-12T07:12:45Z</time>
      </trkpt>
      <trkpt lat="56.886807985528" lon="14.749915923342">
        <ele>170.4</ele>
        <time>2020-01-12T07:12:51Z</time>
      </trkpt>
      <trkpt lat="56.886983167238" lon="14.749466904959">
        <ele>171.2</ele>
        <time>2020-01-12T07:12:57Z</time>
      </trkpt>
      <trkpt lat="56.88713135923" lon="14.749204300032">
        <ele>172.4</ele>
        <time>2020-01-12T07:13:02Z</time>
      </trkpt>
      <trkpt lat="56.887276282281" lon="14.748938174707">
        <ele>173.6</ele>
        <time>2020-01-12T07:13:07Z</time>
      </trkpt>
      <trkpt lat="56.887483482849" lon="14.748569035831">
        <ele>174.8</ele>
        <time>2020-01-12T07:13:13Z</time>
      </trkpt>
      <trkpt lat="56.887846754395" lon="14.748013567318">
        <ele>175</ele>
        <time>2020-01-12T07:13:22Z</time>
      </trkpt>
      <trkpt lat="56.88795865276" lon="14.747947434127">
        <ele>174.8</ele>
        <time>2020-01-12T07:13:24Z</time>
      </trkpt>
      <trkpt lat="56.888524179553" lon="14.747774599349">
        <ele>173.6</ele>
        <time>2020-01-12T07:13:33Z</time>
      </trkpt>
      <trkpt lat="56.888657284125" lon="14.747817347039">
        <ele>173.4</ele>
        <time>2020-01-12T07:13:35Z</time>
      </trkpt>
      <trkpt lat="56.888922738898" lon="14.747937794942">
        <ele>172.6</ele>
        <time>2020-01-12T07:13:39Z</time>
      </trkpt>
      <trkpt lat="56.889320460053" lon="14.748063271985">
        <ele>171.6</ele>
        <time>2020-01-12T07:13:45Z</time>
      </trkpt>
      <trkpt lat="56.889737962492" lon="14.748138625266">
        <ele>170.6</ele>
        <time>2020-01-12T07:13:51Z</time>
      </trkpt>
      <trkpt lat="56.890207265073" lon="14.74831766265">
        <ele>171.4</ele>
        <time>2020-01-12T07:14:00Z</time>
      </trkpt>
      <trkpt lat="56.890277505395" lon="14.748336857201">
        <ele>171.4</ele>
        <time>2020-01-12T07:14:02Z</time>
      </trkpt>
      <trkpt lat="56.8903189958" lon="14.74833358826">
        <ele>171.6</ele>
        <time>2020-01-12T07:14:03Z</time>
      </trkpt>
      <trkpt lat="56.890648739746" lon="14.748208362674">
        <ele>172.6</ele>
        <time>2020-01-12T07:14:09Z</time>
      </trkpt>
      <trkpt lat="56.891160370922" lon="14.747809803329">
        <ele>173.4</ele>
        <time>2020-01-12T07:14:18Z</time>
      </trkpt>
      <trkpt lat="56.891530347988" lon="14.747406717758">
        <ele>172.8</ele>
        <time>2020-01-12T07:14:25Z</time>
      </trkpt>
      <trkpt lat="56.891622884164" lon="14.74722047194">
        <ele>172.4</ele>
        <time>2020-01-12T07:14:27Z</time>
      </trkpt>
      <trkpt lat="56.891737297099" lon="14.746879747705">
        <ele>171.4</ele>
        <time>2020-01-12T07:14:30Z</time>
      </trkpt>
      <trkpt lat="56.89181600314" lon="14.746541370402">
        <ele>171</ele>
        <time>2020-01-12T07:14:33Z</time>
      </trkpt>
      <trkpt lat="56.892004931166" lon="14.745574518237">
        <ele>170.4</ele>
        <time>2020-01-12T07:14:42Z</time>
      </trkpt>
      <trkpt lat="56.89207584204" lon="14.745150226459">
        <ele>170.4</ele>
        <time>2020-01-12T07:14:46Z</time>
      </trkpt>
      <trkpt lat="56.892127726001" lon="14.744959119139">
        <ele>170.2</ele>
        <time>2020-01-12T07:14:48Z</time>
      </trkpt>
      <trkpt lat="56.892215735951" lon="14.744863314022">
        <ele>170.2</ele>
        <time>2020-01-12T07:14:50Z</time>
      </trkpt>
      <trkpt lat="56.892320677339" lon="14.744896590165">
        <ele>170.2</ele>
        <time>2020-01-12T07:14:52Z</time>
      </trkpt>
      <trkpt lat="56.892521842939" lon="14.745159614187">
        <ele>171.8</ele>
        <time>2020-01-12T07:14:58Z</time>
      </trkpt>
      <trkpt lat="56.892584371913" lon="14.745224490093">
        <ele>172.8</ele>
        <time>2020-01-12T07:15:00Z</time>
      </trkpt>
      <trkpt lat="56.892681434315" lon="14.745330521128">
        <ele>174</ele>
        <time>2020-01-12T07:15:03Z</time>
      </trkpt>
      <trkpt lat="56.892782184753" lon="14.745440407837">
        <ele>175.2</ele>
        <time>2020-01-12T07:15:06Z</time>
      </trkpt>
      <trkpt lat="56.892880588259" lon="14.745577787178">
        <ele>176.4</ele>
        <time>2020-01-12T07:15:09Z</time>
      </trkpt>
      <trkpt lat="56.893254001904" lon="14.745915074834">
        <ele>176.6</ele>
        <time>2020-01-12T07:15:17Z</time>
      </trkpt>
      <trkpt lat="56.893361541681" lon="14.746054214374">
        <ele>175.8</ele>
        <time>2020-01-12T07:15:19Z</time>
      </trkpt>
      <trkpt lat="56.89340856414" lon="14.746146666731">
        <ele>175.4</ele>
        <time>2020-01-12T07:15:20Z</time>
      </trkpt>
      <trkpt lat="56.893470003467" lon="14.746326207029">
        <ele>174.2</ele>
        <time>2020-01-12T07:15:22Z</time>
      </trkpt>
      <trkpt lat="56.893487102543" lon="14.746425281087">
        <ele>173.4</ele>
        <time>2020-01-12T07:15:23Z</time>
      </trkpt>
      <trkpt lat="56.893470925476" lon="14.74653399433">
        <ele>172.4</ele>
        <time>2020-01-12T07:15:24Z</time>
      </trkpt>
      <trkpt lat="56.893461118653" lon="14.746636588786">
        <ele>171.6</ele>
        <time>2020-01-12T07:15:25Z</time>
      </trkpt>
      <trkpt lat="56.893451479468" lon="14.746728873505">
        <ele>171</ele>
        <time>2020-01-12T07:15:26Z</time>
      </trkpt>
      <trkpt lat="56.893434799487" lon="14.74680640608">
        <ele>170.6</ele>
        <time>2020-01-12T07:15:27Z</time>
      </trkpt>
      <trkpt lat="56.893393392901" lon="14.746879999162">
        <ele>169.8</ele>
        <time>2020-01-12T07:15:29Z</time>
      </trkpt>
      <trkpt lat="56.893128524861" lon="14.746920148463">
        <ele>169</ele>
        <time>2020-01-12T07:15:36Z</time>
      </trkpt>
      <trkpt lat="56.893045124956" lon="14.7469723677">
        <ele>168.6</ele>
        <time>2020-01-12T07:15:38Z</time>
      </trkpt>
      <trkpt lat="56.892981003421" lon="14.747080829486">
        <ele>168.6</ele>
        <time>2020-01-12T07:15:40Z</time>
      </trkpt>
      <trkpt lat="56.892876900223" lon="14.747437144055">
        <ele>168.4</ele>
        <time>2020-01-12T07:15:45Z</time>
      </trkpt>
      <trkpt lat="56.892770030998" lon="14.747994791862">
        <ele>168.8</ele>
        <time>2020-01-12T07:15:52Z</time>
      </trkpt>
      <trkpt lat="56.892692330785" lon="14.748208446493">
        <ele>169.2</ele>
        <time>2020-01-12T07:15:55Z</time>
      </trkpt>
      <trkpt lat="56.892635250046" lon="14.748441295675">
        <ele>169.8</ele>
        <time>2020-01-12T07:15:58Z</time>
      </trkpt>
      <trkpt lat="56.892598788781" lon="14.748643467103">
        <ele>170</ele>
        <time>2020-01-12T07:16:00Z</time>
      </trkpt>
      <trkpt lat="56.892577498755" lon="14.748879669045">
        <ele>169.8</ele>
        <time>2020-01-12T07:16:02Z</time>
      </trkpt>
      <trkpt lat="56.89249577523" lon="14.749311336895">
        <ele>169</ele>
        <time>2020-01-12T07:16:06Z</time>
      </trkpt>
      <trkpt lat="56.892403071416" lon="14.749566733388">
        <ele>169</ele>
        <time>2020-01-12T07:16:08Z</time>
      </trkpt>
      <trkpt lat="56.892312882172" lon="14.749677877382">
        <ele>169.2</ele>
        <time>2020-01-12T07:16:10Z</time>
      </trkpt>
      <trkpt lat="56.892224034032" lon="14.74974174746">
        <ele>169.4</ele>
        <time>2020-01-12T07:16:12Z</time>
      </trkpt>
      <trkpt lat="56.892155805366" lon="14.749892118746">
        <ele>169.6</ele>
        <time>2020-01-12T07:16:14Z</time>
      </trkpt>
      <trkpt lat="56.891831593474" lon="14.750622517512">
        <ele>170.8</ele>
        <time>2020-01-12T07:16:22Z</time>
      </trkpt>
      <trkpt lat="56.891769651233" lon="14.750769955133">
        <ele>170.8</ele>
        <time>2020-01-12T07:16:23Z</time>
      </trkpt>
      <trkpt lat="56.891720281842" lon="14.751009845111">
        <ele>170.6</ele>
        <time>2020-01-12T07:16:25Z</time>
      </trkpt>
      <trkpt lat="56.891718940738" lon="14.75125048946">
        <ele>170.2</ele>
        <time>2020-01-12T07:16:27Z</time>
      </trkpt>
      <trkpt lat="56.891720868575" lon="14.751472693629">
        <ele>169.8</ele>
        <time>2020-01-12T07:16:29Z</time>
      </trkpt>
      <trkpt lat="56.891686418966" lon="14.751673943048">
        <ele>169.4</ele>
        <time>2020-01-12T07:16:31Z</time>
      </trkpt>
      <trkpt lat="56.891575777886" lon="14.751958843829">
        <ele>169.2</ele>
        <time>2020-01-12T07:16:34Z</time>
      </trkpt>
      <trkpt lat="56.891526240857" lon="14.752275260554">
        <ele>168.6</ele>
        <time>2020-01-12T07:16:37Z</time>
      </trkpt>
      <trkpt lat="56.891455832897" lon="14.753293829042">
        <ele>168.4</ele>
        <time>2020-01-12T07:16:45Z</time>
      </trkpt>
      <trkpt lat="56.891495730741" lon="14.754016851736">
        <ele>168.4</ele>
        <time>2020-01-12T07:16:52Z</time>
      </trkpt>
      <trkpt lat="56.891469327756" lon="14.754911619561">
        <ele>169</ele>
        <time>2020-01-12T07:17:00Z</time>
      </trkpt>
      <trkpt lat="56.891447702454" lon="14.755197274713">
        <ele>169</ele>
        <time>2020-01-12T07:17:03Z</time>
      </trkpt>
      <trkpt lat="56.891474608353" lon="14.755580076086">
        <ele>169</ele>
        <time>2020-01-12T07:17:07Z</time>
      </trkpt>
      <trkpt lat="56.891513248912" lon="14.756062789707">
        <ele>169</ele>
        <time>2020-01-12T07:17:11Z</time>
      </trkpt>
      <trkpt lat="56.891524983572" lon="14.756169156018">
        <ele>169</ele>
        <time>2020-01-12T07:17:12Z</time>
      </trkpt>
      <trkpt lat="56.891480475683" lon="14.757141037323">
        <ele>168.6</ele>
        <time>2020-01-12T07:17:20Z</time>
      </trkpt>
      <trkpt lat="56.89145474325" lon="14.757508164543">
        <ele>168.8</ele>
        <time>2020-01-12T07:17:24Z</time>
      </trkpt>
      <trkpt lat="56.891445271703" lon="14.757857019221">
        <ele>169</ele>
        <time>2020-01-12T07:17:27Z</time>
      </trkpt>
      <trkpt lat="56.891457593096" lon="14.758094478448">
        <ele>169</ele>
        <time>2020-01-12T07:17:29Z</time>
      </trkpt>
      <trkpt lat="56.891552224747" lon="14.75849915658">
        <ele>168.8</ele>
        <time>2020-01-12T07:17:33Z</time>
      </trkpt>
      <trkpt lat="56.891570078194" lon="14.758697053239">
        <ele>168.8</ele>
        <time>2020-01-12T07:17:35Z</time>
      </trkpt>
      <trkpt lat="56.891565887244" lon="14.758865361791">
        <ele>169</ele>
        <time>2020-01-12T07:17:37Z</time>
      </trkpt>
      <trkpt lat="56.891589272745" lon="14.758998214906">
        <ele>169.2</ele>
        <time>2020-01-12T07:17:39Z</time>
      </trkpt>
      <trkpt lat="56.89166345256" lon="14.759087901236">
        <ele>169.4</ele>
        <time>2020-01-12T07:17:41Z</time>
      </trkpt>
      <trkpt lat="56.892060838439" lon="14.759443042339">
        <ele>168.6</ele>
        <time>2020-01-12T07:17:49Z</time>
      </trkpt>
      <trkpt lat="56.892164354904" lon="14.759555192161">
        <ele>168.8</ele>
        <time>2020-01-12T07:17:51Z</time>
      </trkpt>
      <trkpt lat="56.892309194136" lon="14.759696259538">
        <ele>169.6</ele>
        <time>2020-01-12T07:17:54Z</time>
      </trkpt>
      <trkpt lat="56.892354875491" lon="14.75973381045">
        <ele>169.8</ele>
        <time>2020-01-12T07:17:55Z</time>
      </trkpt>
      <trkpt lat="56.892468450236" lon="14.759839506209">
        <ele>170.8</ele>
        <time>2020-01-12T07:17:58Z</time>
      </trkpt>
      <trkpt lat="56.892512036116" lon="14.759877057121">
        <ele>171</ele>
        <time>2020-01-12T07:17:59Z</time>
      </trkpt>
      <trkpt lat="56.892970609865" lon="14.760449373253">
        <ele>170.8</ele>
        <time>2020-01-12T07:18:09Z</time>
      </trkpt>
      <trkpt lat="56.893390040141" lon="14.760893111039">
        <ele>171</ele>
        <time>2020-01-12T07:18:17Z</time>
      </trkpt>
      <trkpt lat="56.89346556106" lon="14.761019510091">
        <ele>171</ele>
        <time>2020-01-12T07:18:19Z</time>
      </trkpt>
      <trkpt lat="56.893679970062" lon="14.761363922362">
        <ele>171.4</ele>
        <time>2020-01-12T07:18:25Z</time>
      </trkpt>
      <trkpt lat="56.893745767977" lon="14.761409519898">
        <ele>171.4</ele>
        <time>2020-01-12T07:18:27Z</time>
      </trkpt>
      <trkpt lat="56.893889014648" lon="14.761304075596">
        <ele>171.2</ele>
        <time>2020-01-12T07:18:31Z</time>
      </trkpt>
      <trkpt lat="56.894066375652" lon="14.761039794289">
        <ele>170.8</ele>
        <time>2020-01-12T07:18:35Z</time>
      </trkpt>
      <trkpt lat="56.894143237675" lon="14.760908282278">
        <ele>170.4</ele>
        <time>2020-01-12T07:18:37Z</time>
      </trkpt>
      <trkpt lat="56.894280197921" lon="14.760749277635">
        <ele>169.6</ele>
        <time>2020-01-12T07:18:40Z</time>
      </trkpt>
      <trkpt lat="56.894389916992" lon="14.760628326818">
        <ele>169.4</ele>
        <time>2020-01-12T07:18:42Z</time>
      </trkpt>
      <trkpt lat="56.894674985411" lon="14.76024762092">
        <ele>170.2</ele>
        <time>2020-01-12T07:18:47Z</time>
      </trkpt>
      <trkpt lat="56.894792667287" lon="14.760156174391">
        <ele>170.8</ele>
        <time>2020-01-12T07:18:49Z</time>
      </trkpt>
      <trkpt lat="56.894894758829" lon="14.760091549942">
        <ele>171</ele>
        <time>2020-01-12T07:18:51Z</time>
      </trkpt>
      <trkpt lat="56.895004645538" lon="14.760056010686">
        <ele>171</ele>
        <time>2020-01-12T07:18:53Z</time>
      </trkpt>
      <trkpt lat="56.895138839757" lon="14.760061291283">
        <ele>170.6</ele>
        <time>2020-01-12T07:18:55Z</time>
      </trkpt>
      <trkpt lat="56.895298766409" lon="14.760115941271">
        <ele>169.8</ele>
        <time>2020-01-12T07:18:57Z</time>
      </trkpt>
      <trkpt lat="56.89537914883" lon="14.760152402536">
        <ele>169.4</ele>
        <time>2020-01-12T07:18:58Z</time>
      </trkpt>
      <trkpt lat="56.895575369109" lon="14.760244854893">
        <ele>169</ele>
        <time>2020-01-12T07:19:01Z</time>
      </trkpt>
      <trkpt lat="56.895689111492" lon="14.760246447454">
        <ele>168.8</ele>
        <time>2020-01-12T07:19:03Z</time>
      </trkpt>
      <trkpt lat="56.895847361764" lon="14.760220547383">
        <ele>169</ele>
        <time>2020-01-12T07:19:06Z</time>
      </trkpt>
      <trkpt lat="56.895947190193" lon="14.760281483796">
        <ele>169.4</ele>
        <time>2020-01-12T07:19:08Z</time>
      </trkpt>
      <trkpt lat="56.896003181285" lon="14.760463538664">
        <ele>170</ele>
        <time>2020-01-12T07:19:10Z</time>
      </trkpt>
      <trkpt lat="56.89602623151" lon="14.760668811395">
        <ele>170.4</ele>
        <time>2020-01-12T07:19:12Z</time>
      </trkpt>
      <trkpt lat="56.896040899835" lon="14.7607522113">
        <ele>170.6</ele>
        <time>2020-01-12T07:19:13Z</time>
      </trkpt>
      <trkpt lat="56.896097980574" lon="14.760915825988">
        <ele>171.2</ele>
        <time>2020-01-12T07:19:15Z</time>
      </trkpt>
      <trkpt lat="56.896168556172" lon="14.761071310233">
        <ele>171.6</ele>
        <time>2020-01-12T07:19:17Z</time>
      </trkpt>
      <trkpt lat="56.896339044018" lon="14.761511527621">
        <ele>172.8</ele>
        <time>2020-01-12T07:19:24Z</time>
      </trkpt>
      <trkpt lat="56.896761827054" lon="14.762175206463">
        <ele>173.6</ele>
        <time>2020-01-12T07:19:35Z</time>
      </trkpt>
      <trkpt lat="56.896986964888" lon="14.762478128329">
        <ele>173.2</ele>
        <time>2020-01-12T07:19:40Z</time>
      </trkpt>
      <trkpt lat="56.897036082822" lon="14.762653729134">
        <ele>173</ele>
        <time>2020-01-12T07:19:42Z</time>
      </trkpt>
      <trkpt lat="56.897010098932" lon="14.762847853938">
        <ele>173</ele>
        <time>2020-01-12T07:19:44Z</time>
      </trkpt>
      <trkpt lat="56.896735256431" lon="14.763767013092">
        <ele>172.8</ele>
        <time>2020-01-12T07:19:54Z</time>
      </trkpt>
      <trkpt lat="56.896513974271" lon="14.764457094919">
        <ele>172.6</ele>
        <time>2020-01-12T07:20:02Z</time>
      </trkpt>
      <trkpt lat="56.896448176356" lon="14.764632947181">
        <ele>172.4</ele>
        <time>2020-01-12T07:20:04Z</time>
      </trkpt>
      <trkpt lat="56.896428478891" lon="14.764818773904">
        <ele>172</ele>
        <time>2020-01-12T07:20:06Z</time>
      </trkpt>
      <trkpt lat="56.896458066998" lon="14.764923380016">
        <ele>171.6</ele>
        <time>2020-01-12T07:20:09Z</time>
      </trkpt>
      <trkpt lat="56.896477848282" lon="14.764905191293">
        <ele>171.4</ele>
        <time>2020-01-12T07:20:10Z</time>
      </trkpt>
      <trkpt lat="56.896555380857" lon="14.764882224887">
        <ele>171.4</ele>
        <time>2020-01-12T07:20:12Z</time>
      </trkpt>
      <trkpt lat="56.896938768963" lon="14.765256057627">
        <ele>170.6</ele>
        <time>2020-01-12T07:20:20Z</time>
      </trkpt>
      <trkpt lat="56.897131217387" lon="14.765464431661">
        <ele>170.4</ele>
        <time>2020-01-12T07:20:24Z</time>
      </trkpt>
      <trkpt lat="56.897180670597" lon="14.765618826259">
        <ele>170.4</ele>
        <time>2020-01-12T07:20:26Z</time>
      </trkpt>
      <trkpt lat="56.897245462684" lon="14.765837342392">
        <ele>170.6</ele>
        <time>2020-01-12T07:20:29Z</time>
      </trkpt>
      <trkpt lat="56.897227609237" lon="14.766004645116">
        <ele>170.8</ele>
        <time>2020-01-12T07:20:31Z</time>
      </trkpt>
      <trkpt lat="56.897127696989" lon="14.7660914816">
        <ele>171</ele>
        <time>2020-01-12T07:20:33Z</time>
      </trkpt>
      <trkpt lat="56.896973637667" lon="14.766125595933">
        <ele>171</ele>
        <time>2020-01-12T07:20:36Z</time>
      </trkpt>
      <trkpt lat="56.896900379861" lon="14.76624570856">
        <ele>171</ele>
        <time>2020-01-12T07:20:38Z</time>
      </trkpt>
      <trkpt lat="56.8968568778" lon="14.766418291881">
        <ele>171</ele>
        <time>2020-01-12T07:20:40Z</time>
      </trkpt>
      <trkpt lat="56.896837850887" lon="14.766849540636">
        <ele>171.6</ele>
        <time>2020-01-12T07:20:45Z</time>
      </trkpt>
      <trkpt lat="56.896833659937" lon="14.767028997115">
        <ele>173</ele>
        <time>2020-01-12T07:20:48Z</time>
      </trkpt>
      <trkpt lat="56.896845729873" lon="14.76715179195">
        <ele>174.2</ele>
        <time>2020-01-12T07:20:50Z</time>
      </trkpt>
      <trkpt lat="56.896861236388" lon="14.767227145231">
        <ele>174.8</ele>
        <time>2020-01-12T07:20:51Z</time>
      </trkpt>
      <trkpt lat="56.896901134232" lon="14.767384473494">
        <ele>175.2</ele>
        <time>2020-01-12T07:20:53Z</time>
      </trkpt>
      <trkpt lat="56.896970117269" lon="14.767623357644">
        <ele>175</ele>
        <time>2020-01-12T07:20:55Z</time>
      </trkpt>
      <trkpt lat="56.897062569626" lon="14.767893925376">
        <ele>173.2</ele>
        <time>2020-01-12T07:20:57Z</time>
      </trkpt>
      <trkpt lat="56.897130379197" lon="14.768166672402">
        <ele>171.8</ele>
        <time>2020-01-12T07:20:59Z</time>
      </trkpt>
      <trkpt lat="56.8972005357" lon="14.768514605071">
        <ele>171.2</ele>
        <time>2020-01-12T07:21:02Z</time>
      </trkpt>
      <trkpt lat="56.897289719116" lon="14.768661623597">
        <ele>171.2</ele>
        <time>2020-01-12T07:21:04Z</time>
      </trkpt>
      <trkpt lat="56.89737236465" lon="14.76881895186">
        <ele>171.2</ele>
        <time>2020-01-12T07:21:06Z</time>
      </trkpt>
      <trkpt lat="56.897571518594" lon="14.769219690499">
        <ele>171.8</ele>
        <time>2020-01-12T07:21:11Z</time>
      </trkpt>
      <trkpt lat="56.897655337594" lon="14.769501406158">
        <ele>173</ele>
        <time>2020-01-12T07:21:16Z</time>
      </trkpt>
      <trkpt lat="56.897714094713" lon="14.76962780521">
        <ele>174.6</ele>
        <time>2020-01-12T07:21:19Z</time>
      </trkpt>
      <trkpt lat="56.897771007814" lon="14.769773314994">
        <ele>175.8</ele>
        <time>2020-01-12T07:21:22Z</time>
      </trkpt>
      <trkpt lat="56.897824903431" lon="14.769879429848">
        <ele>177</ele>
        <time>2020-01-12T07:21:25Z</time>
      </trkpt>
      <trkpt lat="56.897923977489" lon="14.769988813643">
        <ele>178.2</ele>
        <time>2020-01-12T07:21:29Z</time>
      </trkpt>
      <trkpt lat="56.898030762895" lon="14.770016306275">
        <ele>179.4</ele>
        <time>2020-01-12T07:21:32Z</time>
      </trkpt>
      <trkpt lat="56.898121455053" lon="14.770216801323">
        <ele>180.2</ele>
        <time>2020-01-12T07:21:37Z</time>
      </trkpt>
      <trkpt lat="56.898142074527" lon="14.770354599759">
        <ele>180.4</ele>
        <time>2020-01-12T07:21:39Z</time>
      </trkpt>
      <trkpt lat="56.898240478033" lon="14.770642182748">
        <ele>180.6</ele>
        <time>2020-01-12T07:21:43Z</time>
      </trkpt>
      <trkpt lat="56.89836897256" lon="14.770958180378">
        <ele>180.6</ele>
        <time>2020-01-12T07:21:47Z</time>
      </trkpt>
      <trkpt lat="56.898420018331" lon="14.771217516364">
        <ele>180.4</ele>
        <time>2020-01-12T07:21:50Z</time>
      </trkpt>
      <trkpt lat="56.898451282818" lon="14.77140392982">
        <ele>180.2</ele>
        <time>2020-01-12T07:21:52Z</time>
      </trkpt>
      <trkpt lat="56.898522193692" lon="14.771629319111">
        <ele>179.6</ele>
        <time>2020-01-12T07:21:55Z</time>
      </trkpt>
      <trkpt lat="56.898575754033" lon="14.771794274903">
        <ele>179.4</ele>
        <time>2020-01-12T07:21:57Z</time>
      </trkpt>
      <trkpt lat="56.898644401794" lon="14.77199401558">
        <ele>178.8</ele>
        <time>2020-01-12T07:21:59Z</time>
      </trkpt>
      <trkpt lat="56.898700560524" lon="14.772203395442">
        <ele>178.4</ele>
        <time>2020-01-12T07:22:01Z</time>
      </trkpt>
      <trkpt lat="56.89873023245" lon="14.772328118114">
        <ele>178</ele>
        <time>2020-01-12T07:22:02Z</time>
      </trkpt>
      <trkpt lat="56.898785301533" lon="14.772567756635">
        <ele>177.4</ele>
        <time>2020-01-12T07:22:04Z</time>
      </trkpt>
      <trkpt lat="56.898825450834" lon="14.772654257843">
        <ele>177.2</ele>
        <time>2020-01-12T07:22:05Z</time>
      </trkpt>
      <trkpt lat="56.898915640078" lon="14.772839330195">
        <ele>176.6</ele>
        <time>2020-01-12T07:22:07Z</time>
      </trkpt>
      <trkpt lat="56.898953442447" lon="14.772949719818">
        <ele>176.2</ele>
        <time>2020-01-12T07:22:08Z</time>
      </trkpt>
      <trkpt lat="56.899064921717" lon="14.773352637751">
        <ele>174.8</ele>
        <time>2020-01-12T07:22:11Z</time>
      </trkpt>
      <trkpt lat="56.899152931667" lon="14.773620271818">
        <ele>173.6</ele>
        <time>2020-01-12T07:22:13Z</time>
      </trkpt>
      <trkpt lat="56.89922560274" lon="14.773780114651">
        <ele>172.8</ele>
        <time>2020-01-12T07:22:15Z</time>
      </trkpt>
      <trkpt lat="56.899266254955" lon="14.773879356347">
        <ele>172.6</ele>
        <time>2020-01-12T07:22:16Z</time>
      </trkpt>
      <trkpt lat="56.899402628468" lon="14.774307000885">
        <ele>172.6</ele>
        <time>2020-01-12T07:22:20Z</time>
      </trkpt>
      <trkpt lat="56.899465827994" lon="14.774555021306">
        <ele>172.8</ele>
        <time>2020-01-12T07:22:22Z</time>
      </trkpt>
      <trkpt lat="56.899791129533" lon="14.775365131941">
        <ele>173.2</ele>
        <time>2020-01-12T07:22:31Z</time>
      </trkpt>
      <trkpt lat="56.899860699303" lon="14.775517179607">
        <ele>173.6</ele>
        <time>2020-01-12T07:22:33Z</time>
      </trkpt>
      <trkpt lat="56.89992297682" lon="14.775682638313">
        <ele>173.6</ele>
        <time>2020-01-12T07:22:35Z</time>
      </trkpt>
      <trkpt lat="56.899988942373" lon="14.775828902468">
        <ele>173.6</ele>
        <time>2020-01-12T07:22:37Z</time>
      </trkpt>
      <trkpt lat="56.900023727258" lon="14.775889671243">
        <ele>173.6</ele>
        <time>2020-01-12T07:22:38Z</time>
      </trkpt>
      <trkpt lat="56.900158089115" lon="14.776501633762">
        <ele>174.8</ele>
        <time>2020-01-12T07:22:45Z</time>
      </trkpt>
      <trkpt lat="56.900164710816" lon="14.7767197308">
        <ele>175</ele>
        <time>2020-01-12T07:22:47Z</time>
      </trkpt>
      <trkpt lat="56.900145683903" lon="14.777319623383">
        <ele>175.6</ele>
        <time>2020-01-12T07:22:53Z</time>
      </trkpt>
      <trkpt lat="56.900157586201" lon="14.777481226415">
        <ele>175.8</ele>
        <time>2020-01-12T07:22:55Z</time>
      </trkpt>
      <trkpt lat="56.900261437942" lon="14.7778093778">
        <ele>176.8</ele>
        <time>2020-01-12T07:23:00Z</time>
      </trkpt>
      <trkpt lat="56.900313908636" lon="14.778049183959">
        <ele>177.8</ele>
        <time>2020-01-12T07:23:04Z</time>
      </trkpt>
      <trkpt lat="56.900423208612" lon="14.778492586469">
        <ele>179</ele>
        <time>2020-01-12T07:23:11Z</time>
      </trkpt>
      <trkpt lat="56.90058766149" lon="14.779016036124">
        <ele>180.2</ele>
        <time>2020-01-12T07:23:19Z</time>
      </trkpt>
      <trkpt lat="56.900651196292" lon="14.779807119846">
        <ele>181.2</ele>
        <time>2020-01-12T07:23:28Z</time>
      </trkpt>
      <trkpt lat="56.900662595676" lon="14.779892447588">
        <ele>181.2</ele>
        <time>2020-01-12T07:23:29Z</time>
      </trkpt>
      <trkpt lat="56.900736691672" lon="14.780071568791">
        <ele>181.2</ele>
        <time>2020-01-12T07:23:32Z</time>
      </trkpt>
      <trkpt lat="56.901271373073" lon="14.780231998357">
        <ele>182</ele>
        <time>2020-01-12T07:23:43Z</time>
      </trkpt>
      <trkpt lat="56.901565410125" lon="14.780270555097">
        <ele>182.2</ele>
        <time>2020-01-12T07:23:49Z</time>
      </trkpt>
      <trkpt lat="56.901813682003" lon="14.78028455287">
        <ele>183.4</ele>
        <time>2020-01-12T07:23:55Z</time>
      </trkpt>
      <trkpt lat="56.901995233957" lon="14.78016720627">
        <ele>184.6</ele>
        <time>2020-01-12T07:24:00Z</time>
      </trkpt>
      <trkpt lat="56.9022548214" lon="14.779833103736">
        <ele>185.6</ele>
        <time>2020-01-12T07:24:07Z</time>
      </trkpt>
      <trkpt lat="56.902658912799" lon="14.77918820035">
        <ele>186.4</ele>
        <time>2020-01-12T07:24:20Z</time>
      </trkpt>
      <trkpt lat="56.902802662384" lon="14.778887038683">
        <ele>186.6</ele>
        <time>2020-01-12T07:24:25Z</time>
      </trkpt>
      <trkpt lat="56.903189570888" lon="14.77812034629">
        <ele>186.6</ele>
        <time>2020-01-12T07:24:36Z</time>
      </trkpt>
      <trkpt lat="56.903565331465" lon="14.777383242004">
        <ele>187</ele>
        <time>2020-01-12T07:24:46Z</time>
      </trkpt>
      <trkpt lat="56.903921813672" lon="14.776611017557">
        <ele>186.2</ele>
        <time>2020-01-12T07:24:57Z</time>
      </trkpt>
      <trkpt lat="56.904271590359" lon="14.775846504458">
        <ele>186.2</ele>
        <time>2020-01-12T07:25:08Z</time>
      </trkpt>
      <trkpt lat="56.904646512746" lon="14.775074028554">
        <ele>186.6</ele>
        <time>2020-01-12T07:25:19Z</time>
      </trkpt>
      <trkpt lat="56.905005341885" lon="14.774357292285">
        <ele>187</ele>
        <time>2020-01-12T07:25:29Z</time>
      </trkpt>
      <trkpt lat="56.905108523074" lon="14.774148834432">
        <ele>187.6</ele>
        <time>2020-01-12T07:25:32Z</time>
      </trkpt>
      <trkpt lat="56.905147750366" lon="14.774096615195">
        <ele>187.8</ele>
        <time>2020-01-12T07:25:33Z</time>
      </trkpt>
      <trkpt lat="56.905665500329" lon="14.77373158345">
        <ele>188</ele>
        <time>2020-01-12T07:25:43Z</time>
      </trkpt>
      <trkpt lat="56.905960794666" lon="14.77343737876">
        <ele>188</ele>
        <time>2020-01-12T07:25:49Z</time>
      </trkpt>
      <trkpt lat="56.906025251477" lon="14.773284157628">
        <ele>188</ele>
        <time>2020-01-12T07:25:51Z</time>
      </trkpt>
      <trkpt lat="56.906084846786" lon="14.77281292721">
        <ele>187.8</ele>
        <time>2020-01-12T07:25:56Z</time>
      </trkpt>
      <trkpt lat="56.905979989217" lon="14.771818163318">
        <ele>187.6</ele>
        <time>2020-01-12T07:26:07Z</time>
      </trkpt>
      <trkpt lat="56.905891392534" lon="14.771007382131">
        <ele>188.2</ele>
        <time>2020-01-12T07:26:16Z</time>
      </trkpt>
      <trkpt lat="56.90590681523" lon="14.770824572892">
        <ele>188</ele>
        <time>2020-01-12T07:26:18Z</time>
      </trkpt>
      <trkpt lat="56.905955346431" lon="14.770547551097">
        <ele>188</ele>
        <time>2020-01-12T07:26:21Z</time>
      </trkpt>
      <trkpt lat="56.905986024185" lon="14.769566030607">
        <ele>186.4</ele>
        <time>2020-01-12T07:26:30Z</time>
      </trkpt>
      <trkpt lat="56.906009996419" lon="14.769349023216">
        <ele>185.4</ele>
        <time>2020-01-12T07:26:32Z</time>
      </trkpt>
      <trkpt lat="56.90613312653" lon="14.769238214498">
        <ele>184.4</ele>
        <time>2020-01-12T07:26:36Z</time>
      </trkpt>
      <trkpt lat="56.906197918617" lon="14.76924056143">
        <ele>184.4</ele>
        <time>2020-01-12T07:26:38Z</time>
      </trkpt>
      <trkpt lat="56.906720194806" lon="14.768957839943">
        <ele>184.6</ele>
        <time>2020-01-12T07:26:50Z</time>
      </trkpt>
      <trkpt lat="56.907208943395" lon="14.768714345748">
        <ele>183.2</ele>
        <time>2020-01-12T07:26:59Z</time>
      </trkpt>
      <trkpt lat="56.907780002242" lon="14.76843757541">
        <ele>183</ele>
        <time>2020-01-12T07:27:07Z</time>
      </trkpt>
      <trkpt lat="56.907972785942" lon="14.768375800807">
        <ele>183</ele>
        <time>2020-01-12T07:27:10Z</time>
      </trkpt>
      <trkpt lat="56.908408393285" lon="14.768121661599">
        <ele>182</ele>
        <time>2020-01-12T07:27:17Z</time>
      </trkpt>
      <trkpt lat="56.908827404466" lon="14.767946898984">
        <ele>181.4</ele>
        <time>2020-01-12T07:27:24Z</time>
      </trkpt>
      <trkpt lat="56.909175001859" lon="14.768000710782">
        <ele>180.8</ele>
        <time>2020-01-12T07:27:29Z</time>
      </trkpt>
      <trkpt lat="56.909472307852" lon="14.768027197586">
        <ele>179.6</ele>
        <time>2020-01-12T07:27:33Z</time>
      </trkpt>
      <trkpt lat="56.910058873214" lon="14.768146472023">
        <ele>179</ele>
        <time>2020-01-12T07:27:42Z</time>
      </trkpt>
      <trkpt lat="56.910605121637" lon="14.768272787256">
        <ele>178.6</ele>
        <time>2020-01-12T07:27:50Z</time>
      </trkpt>
      <trkpt lat="56.911165116376" lon="14.768370939305">
        <ele>177.6</ele>
        <time>2020-01-12T07:27:58Z</time>
      </trkpt>
      <trkpt lat="56.911494860322" lon="14.768414022271">
        <ele>177</ele>
        <time>2020-01-12T07:28:03Z</time>
      </trkpt>
      <trkpt lat="56.911804236251" lon="14.76825904094">
        <ele>176.6</ele>
        <time>2020-01-12T07:28:08Z</time>
      </trkpt>
      <trkpt lat="56.911861065533" lon="14.768236996543">
        <ele>176.4</ele>
        <time>2020-01-12T07:28:09Z</time>
      </trkpt>
      <trkpt lat="56.91196860531" lon="14.76822551334">
        <ele>176.6</ele>
        <time>2020-01-12T07:28:11Z</time>
      </trkpt>
      <trkpt lat="56.912335564892" lon="14.768374627341">
        <ele>177.6</ele>
        <time>2020-01-12T07:28:19Z</time>
      </trkpt>
      <trkpt lat="56.91238770031" lon="14.768406143285">
        <ele>177.8</ele>
        <time>2020-01-12T07:28:20Z</time>
      </trkpt>
      <trkpt lat="56.912481158495" lon="14.768475880693">
        <ele>177.8</ele>
        <time>2020-01-12T07:28:22Z</time>
      </trkpt>
      <trkpt lat="56.912985245961" lon="14.768710741531">
        <ele>176.6</ele>
        <time>2020-01-12T07:28:31Z</time>
      </trkpt>
      <trkpt lat="56.913586814924" lon="14.76883403928">
        <ele>176.4</ele>
        <time>2020-01-12T07:28:40Z</time>
      </trkpt>
      <trkpt lat="56.914142367256" lon="14.769079042217">
        <ele>176.8</ele>
        <time>2020-01-12T07:28:50Z</time>
      </trkpt>
      <trkpt lat="56.914434141195" lon="14.769196053541">
        <ele>177.4</ele>
        <time>2020-01-12T07:28:55Z</time>
      </trkpt>
      <trkpt lat="56.914489210278" lon="14.769246177303">
        <ele>177.6</ele>
        <time>2020-01-12T07:28:56Z</time>
      </trkpt>
      <trkpt lat="56.914541094239" lon="14.769303174223">
        <ele>177.8</ele>
        <time>2020-01-12T07:28:57Z</time>
      </trkpt>
      <trkpt lat="56.9146181239" lon="14.769465615445">
        <ele>178</ele>
        <time>2020-01-12T07:28:59Z</time>
      </trkpt>
      <trkpt lat="56.914802274243" lon="14.769897870028">
        <ele>178</ele>
        <time>2020-01-12T07:29:04Z</time>
      </trkpt>
      <trkpt lat="56.914892128211" lon="14.770011360954">
        <ele>178</ele>
        <time>2020-01-12T07:29:06Z</time>
      </trkpt>
      <trkpt lat="56.915444998335" lon="14.77032350291">
        <ele>178</ele>
        <time>2020-01-12T07:29:16Z</time>
      </trkpt>
      <trkpt lat="56.9159759917" lon="14.770597507221">
        <ele>177.4</ele>
        <time>2020-01-12T07:29:25Z</time>
      </trkpt>
      <trkpt lat="56.916533136593" lon="14.770617875238">
        <ele>177.4</ele>
        <time>2020-01-12T07:29:35Z</time>
      </trkpt>
      <trkpt lat="56.916658865093" lon="14.770627933518">
        <ele>177</ele>
        <time>2020-01-12T07:29:37Z</time>
      </trkpt>
      <trkpt lat="56.916873274095" lon="14.770719463866">
        <ele>176.4</ele>
        <time>2020-01-12T07:29:40Z</time>
      </trkpt>
      <trkpt lat="56.917361603589" lon="14.771270070877">
        <ele>176.4</ele>
        <time>2020-01-12T07:29:49Z</time>
      </trkpt>
      <trkpt lat="56.917500575491" lon="14.771456484333">
        <ele>176.4</ele>
        <time>2020-01-12T07:29:52Z</time>
      </trkpt>
      <trkpt lat="56.917968201692" lon="14.77195797341">
        <ele>176</ele>
        <time>2020-01-12T07:30:00Z</time>
      </trkpt>
      <trkpt lat="56.918228543506" lon="14.77213734607">
        <ele>175.4</ele>
        <time>2020-01-12T07:30:04Z</time>
      </trkpt>
      <trkpt lat="56.918297442724" lon="14.772168945833">
        <ele>175.2</ele>
        <time>2020-01-12T07:30:05Z</time>
      </trkpt>
      <trkpt lat="56.918362402449" lon="14.772191409325">
        <ele>175</ele>
        <time>2020-01-12T07:30:06Z</time>
      </trkpt>
      <trkpt lat="56.918552252484" lon="14.772199875044">
        <ele>174.4</ele>
        <time>2020-01-12T07:30:09Z</time>
      </trkpt>
      <trkpt lat="56.918612434526" lon="14.772194845904">
        <ele>174.2</ele>
        <time>2020-01-12T07:30:10Z</time>
      </trkpt>
      <trkpt lat="56.918667168333" lon="14.772220243061">
        <ele>174</ele>
        <time>2020-01-12T07:30:11Z</time>
      </trkpt>
      <trkpt lat="56.919192042911" lon="14.772657526784">
        <ele>173.2</ele>
        <time>2020-01-12T07:30:20Z</time>
      </trkpt>
      <trkpt lat="56.919369906829" lon="14.77287998241">
        <ele>173.2</ele>
        <time>2020-01-12T07:30:24Z</time>
      </trkpt>
      <trkpt lat="56.919453390553" lon="14.773001687598">
        <ele>173.2</ele>
        <time>2020-01-12T07:30:26Z</time>
      </trkpt>
      <trkpt lat="56.919953119431" lon="14.773590432254">
        <ele>173.8</ele>
        <time>2020-01-12T07:30:36Z</time>
      </trkpt>
      <trkpt lat="56.920445053142" lon="14.774036014058">
        <ele>174.4</ele>
        <time>2020-01-12T07:30:45Z</time>
      </trkpt>
      <trkpt lat="56.920856269156" lon="14.774427197331">
        <ele>174.2</ele>
        <time>2020-01-12T07:30:54Z</time>
      </trkpt>
      <trkpt lat="56.921203447454" lon="14.77487738918">
        <ele>174.4</ele>
        <time>2020-01-12T07:31:02Z</time>
      </trkpt>
      <trkpt lat="56.92131945295" lon="14.77504837994">
        <ele>174.4</ele>
        <time>2020-01-12T07:31:04Z</time>
      </trkpt>
      <trkpt lat="56.921403020493" lon="14.775245438409">
        <ele>174.4</ele>
        <time>2020-01-12T07:31:06Z</time>
      </trkpt>
      <trkpt lat="56.921441074319" lon="14.775471414433">
        <ele>174.4</ele>
        <time>2020-01-12T07:31:08Z</time>
      </trkpt>
      <trkpt lat="56.921412324402" lon="14.775688840919">
        <ele>174.6</ele>
        <time>2020-01-12T07:31:10Z</time>
      </trkpt>
      <trkpt lat="56.921376952784" lon="14.775880115877">
        <ele>174.8</ele>
        <time>2020-01-12T07:31:12Z</time>
      </trkpt>
      <trkpt lat="56.921348454324" lon="14.776045406945">
        <ele>175</ele>
        <time>2020-01-12T07:31:14Z</time>
      </trkpt>
      <trkpt lat="56.921349543971" lon="14.776205752692">
        <ele>175.4</ele>
        <time>2020-01-12T07:31:16Z</time>
      </trkpt>
      <trkpt lat="56.921419532836" lon="14.776334750133">
        <ele>175.4</ele>
        <time>2020-01-12T07:31:18Z</time>
      </trkpt>
      <trkpt lat="56.921942563396" lon="14.776834646649">
        <ele>175.8</ele>
        <time>2020-01-12T07:31:28Z</time>
      </trkpt>
      <trkpt lat="56.922440280618" lon="14.777297662805">
        <ele>175.4</ele>
        <time>2020-01-12T07:31:37Z</time>
      </trkpt>
      <trkpt lat="56.922490739656" lon="14.777362454892">
        <ele>175.4</ele>
        <time>2020-01-12T07:31:38Z</time>
      </trkpt>
      <trkpt lat="56.922567936955" lon="14.777522633001">
        <ele>175.4</ele>
        <time>2020-01-12T07:31:40Z</time>
      </trkpt>
      <trkpt lat="56.922608924446" lon="14.777691863562">
        <ele>175.6</ele>
        <time>2020-01-12T07:31:42Z</time>
      </trkpt>
      <trkpt lat="56.922714368748" lon="14.778108527811">
        <ele>176.4</ele>
        <time>2020-01-12T07:31:47Z</time>
      </trkpt>
      <trkpt lat="56.922941937333" lon="14.778566933922">
        <ele>177</ele>
        <time>2020-01-12T07:31:53Z</time>
      </trkpt>
      <trkpt lat="56.923001365004" lon="14.778779498906">
        <ele>177.2</ele>
        <time>2020-01-12T07:31:55Z</time>
      </trkpt>
      <trkpt lat="56.923079819588" lon="14.779529678956">
        <ele>177.4</ele>
        <time>2020-01-12T07:32:02Z</time>
      </trkpt>
      <trkpt lat="56.923091889524" lon="14.779613497956">
        <ele>177.4</ele>
        <time>2020-01-12T07:32:03Z</time>
      </trkpt>
      <trkpt lat="56.923147880616" lon="14.779701256449">
        <ele>177.2</ele>
        <time>2020-01-12T07:32:05Z</time>
      </trkpt>
      <trkpt lat="56.92328165574" lon="14.779720367181">
        <ele>176.6</ele>
        <time>2020-01-12T07:32:08Z</time>
      </trkpt>
      <trkpt lat="56.923331276588" lon="14.779731431289">
        <ele>176.2</ele>
        <time>2020-01-12T07:32:09Z</time>
      </trkpt>
      <trkpt lat="56.923368911319" lon="14.779764623613">
        <ele>176.2</ele>
        <time>2020-01-12T07:32:10Z</time>
      </trkpt>
      <trkpt lat="56.923522132451" lon="14.779832349365">
        <ele>176</ele>
        <time>2020-01-12T07:32:15Z</time>
      </trkpt>
      <trkpt lat="56.923745007172" lon="14.77951509445">
        <ele>175.2</ele>
        <time>2020-01-12T07:32:20Z</time>
      </trkpt>
      <trkpt lat="56.923894875544" lon="14.779312001013">
        <ele>174.8</ele>
        <time>2020-01-12T07:32:23Z</time>
      </trkpt>
      <trkpt lat="56.923971318472" lon="14.779149895067">
        <ele>174.2</ele>
        <time>2020-01-12T07:32:25Z</time>
      </trkpt>
      <trkpt lat="56.924001744769" lon="14.779071440483">
        <ele>174.2</ele>
        <time>2020-01-12T07:32:26Z</time>
      </trkpt>
      <trkpt lat="56.924049353961" lon="14.779048054982">
        <ele>174</ele>
        <time>2020-01-12T07:32:27Z</time>
      </trkpt>
      <trkpt lat="56.924145242897" lon="14.779093401061">
        <ele>174</ele>
        <time>2020-01-12T07:32:29Z</time>
      </trkpt>
      <trkpt lat="56.924225122404" lon="14.779200689381">
        <ele>174.4</ele>
        <time>2020-01-12T07:32:31Z</time>
      </trkpt>
      <trkpt lat="56.924537012903" lon="14.779763366328">
        <ele>174.8</ele>
        <time>2020-01-12T07:32:38Z</time>
      </trkpt>
      <trkpt lat="56.92499407791" lon="14.780397289425">
        <ele>174.8</ele>
        <time>2020-01-12T07:32:48Z</time>
      </trkpt>
      <trkpt lat="56.925089463932" lon="14.780490663791">
        <ele>175</ele>
        <time>2020-01-12T07:32:50Z</time>
      </trkpt>
      <trkpt lat="56.925283756374" lon="14.781031883074">
        <ele>175.2</ele>
        <time>2020-01-12T07:32:57Z</time>
      </trkpt>
      <trkpt lat="56.925344273692" lon="14.781345449953">
        <ele>175.4</ele>
        <time>2020-01-12T07:33:00Z</time>
      </trkpt>
      <trkpt lat="56.925419124059" lon="14.781528678287">
        <ele>175.4</ele>
        <time>2020-01-12T07:33:02Z</time>
      </trkpt>
      <trkpt lat="56.925697654596" lon="14.782158661891">
        <ele>174.8</ele>
        <time>2020-01-12T07:33:09Z</time>
      </trkpt>
      <trkpt lat="56.925884068052" lon="14.782450184373">
        <ele>174</ele>
        <time>2020-01-12T07:33:13Z</time>
      </trkpt>
      <trkpt lat="56.926055477907" lon="14.782715639146">
        <ele>174</ele>
        <time>2020-01-12T07:33:17Z</time>
      </trkpt>
      <trkpt lat="56.926157988544" lon="14.782836087049">
        <ele>174</ele>
        <time>2020-01-12T07:33:19Z</time>
      </trkpt>
      <trkpt lat="56.926357477764" lon="14.783188294487">
        <ele>174.8</ele>
        <time>2020-01-12T07:33:24Z</time>
      </trkpt>
      <trkpt lat="56.926385305672" lon="14.783439164754">
        <ele>175.2</ele>
        <time>2020-01-12T07:33:26Z</time>
      </trkpt>
      <trkpt lat="56.926395112495" lon="14.783918022701">
        <ele>176</ele>
        <time>2020-01-12T07:33:30Z</time>
      </trkpt>
      <trkpt lat="56.92635194571" lon="14.784364358876">
        <ele>176</ele>
        <time>2020-01-12T07:33:34Z</time>
      </trkpt>
      <trkpt lat="56.926333421711" lon="14.784553957454">
        <ele>176</ele>
        <time>2020-01-12T07:33:36Z</time>
      </trkpt>
      <trkpt lat="56.926266701787" lon="14.784863249564">
        <ele>176.2</ele>
        <time>2020-01-12T07:33:40Z</time>
      </trkpt>
      <trkpt lat="56.926274161678" lon="14.785109845062">
        <ele>176.4</ele>
        <time>2020-01-12T07:33:43Z</time>
      </trkpt>
      <trkpt lat="56.92622873178" lon="14.785778720682">
        <ele>177.4</ele>
        <time>2020-01-12T07:33:50Z</time>
      </trkpt>
      <trkpt lat="56.926189923583" lon="14.786017604832">
        <ele>178.4</ele>
        <time>2020-01-12T07:33:54Z</time>
      </trkpt>
      <trkpt lat="56.926171902498" lon="14.786165377729">
        <ele>179.4</ele>
        <time>2020-01-12T07:33:57Z</time>
      </trkpt>
      <trkpt lat="56.926125131496" lon="14.786394287418">
        <ele>180.8</ele>
        <time>2020-01-12T07:34:01Z</time>
      </trkpt>
      <trkpt lat="56.926088921688" lon="14.786588412222">
        <ele>181.8</ele>
        <time>2020-01-12T07:34:05Z</time>
      </trkpt>
      <trkpt lat="56.926048688568" lon="14.786835762091">
        <ele>182.8</ele>
        <time>2020-01-12T07:34:09Z</time>
      </trkpt>
      <trkpt lat="56.925981381911" lon="14.787216300351">
        <ele>184</ele>
        <time>2020-01-12T07:34:15Z</time>
      </trkpt>
      <trkpt lat="56.925895048341" lon="14.787841506272">
        <ele>185</ele>
        <time>2020-01-12T07:34:25Z</time>
      </trkpt>
      <trkpt lat="56.925924049715" lon="14.788464281442">
        <ele>186.2</ele>
        <time>2020-01-12T07:34:33Z</time>
      </trkpt>
      <trkpt lat="56.925998983901" lon="14.788913886558">
        <ele>186.8</ele>
        <time>2020-01-12T07:34:39Z</time>
      </trkpt>
      <trkpt lat="56.926047431283" lon="14.789072723563">
        <ele>186.8</ele>
        <time>2020-01-12T07:34:41Z</time>
      </trkpt>
      <trkpt lat="56.926093699371" lon="14.789196859502">
        <ele>186.6</ele>
        <time>2020-01-12T07:34:43Z</time>
      </trkpt>
      <trkpt lat="56.926155222517" lon="14.789319905794">
        <ele>186.4</ele>
        <time>2020-01-12T07:34:45Z</time>
      </trkpt>
      <trkpt lat="56.926378181057" lon="14.789797003542">
        <ele>185.2</ele>
        <time>2020-01-12T07:34:51Z</time>
      </trkpt>
      <trkpt lat="56.926416989254" lon="14.789907225527">
        <ele>184.8</ele>
        <time>2020-01-12T07:34:52Z</time>
      </trkpt>
      <trkpt lat="56.92647599783" lon="14.790108307308">
        <ele>184.2</ele>
        <time>2020-01-12T07:34:54Z</time>
      </trkpt>
      <trkpt lat="56.926657968879" lon="14.790559840261">
        <ele>183</ele>
        <time>2020-01-12T07:34:58Z</time>
      </trkpt>
      <trkpt lat="56.926748577218" lon="14.790747175726">
        <ele>182.8</ele>
        <time>2020-01-12T07:35:00Z</time>
      </trkpt>
      <trkpt lat="56.92707949463" lon="14.791554436515">
        <ele>182.4</ele>
        <time>2020-01-12T07:35:09Z</time>
      </trkpt>
      <trkpt lat="56.927117129361" lon="14.791816119433">
        <ele>182.6</ele>
        <time>2020-01-12T07:35:12Z</time>
      </trkpt>
      <trkpt lat="56.927131378591" lon="14.792237477546">
        <ele>183.6</ele>
        <time>2020-01-12T07:35:17Z</time>
      </trkpt>
      <trkpt lat="56.927141353052" lon="14.79249027565">
        <ele>184.2</ele>
        <time>2020-01-12T07:35:20Z</time>
      </trkpt>
      <trkpt lat="56.927140347224" lon="14.792575184297">
        <ele>184.4</ele>
        <time>2020-01-12T07:35:21Z</time>
      </trkpt>
      <trkpt lat="56.927189381339" lon="14.792899815284">
        <ele>185.2</ele>
        <time>2020-01-12T07:35:25Z</time>
      </trkpt>
      <trkpt lat="56.927234392142" lon="14.793707411349">
        <ele>186.2</ele>
        <time>2020-01-12T07:35:35Z</time>
      </trkpt>
      <trkpt lat="56.927220813464" lon="14.794220551267">
        <ele>187.4</ele>
        <time>2020-01-12T07:35:41Z</time>
      </trkpt>
      <trkpt lat="56.927235314151" lon="14.794826227361">
        <ele>188</ele>
        <time>2020-01-12T07:35:48Z</time>
      </trkpt>
      <trkpt lat="56.927291053786" lon="14.794924211772">
        <ele>188</ele>
        <time>2020-01-12T07:35:50Z</time>
      </trkpt>
      <trkpt lat="56.927872841465" lon="14.794809966475">
        <ele>187</ele>
        <time>2020-01-12T07:36:01Z</time>
      </trkpt>
      <trkpt lat="56.928408780151" lon="14.794661690664">
        <ele>187</ele>
        <time>2020-01-12T07:36:11Z</time>
      </trkpt>
      <trkpt lat="56.928775739733" lon="14.79450276984">
        <ele>186.2</ele>
        <time>2020-01-12T07:36:18Z</time>
      </trkpt>
      <trkpt lat="56.928942204267" lon="14.794434289717">
        <ele>185.2</ele>
        <time>2020-01-12T07:36:21Z</time>
      </trkpt>
      <trkpt lat="56.929059383229" lon="14.794376119331">
        <ele>184.6</ele>
        <time>2020-01-12T07:36:23Z</time>
      </trkpt>
      <trkpt lat="56.929172371241" lon="14.794350889812">
        <ele>184</ele>
        <time>2020-01-12T07:36:25Z</time>
      </trkpt>
      <trkpt lat="56.929775029851" lon="14.794244942596">
        <ele>183.4</ele>
        <time>2020-01-12T07:36:35Z</time>
      </trkpt>
      <trkpt lat="56.929881060886" lon="14.794202027268">
        <ele>183</ele>
        <time>2020-01-12T07:36:37Z</time>
      </trkpt>
      <trkpt lat="56.930432506087" lon="14.794130529661">
        <ele>182.6</ele>
        <time>2020-01-12T07:36:45Z</time>
      </trkpt>
      <trkpt lat="56.930740121817" lon="14.794038747856">
        <ele>181.8</ele>
        <time>2020-01-12T07:36:49Z</time>
      </trkpt>
      <trkpt lat="56.93131738327" lon="14.793773712178">
        <ele>182</ele>
        <time>2020-01-12T07:36:58Z</time>
      </trkpt>
      <trkpt lat="56.931865894806" lon="14.793506329568">
        <ele>182.6</ele>
        <time>2020-01-12T07:37:07Z</time>
      </trkpt>
      <trkpt lat="56.932468050502" lon="14.793453439779">
        <ele>181.2</ele>
        <time>2020-01-12T07:37:16Z</time>
      </trkpt>
      <trkpt lat="56.932535943892" lon="14.793474813624">
        <ele>181</ele>
        <time>2020-01-12T07:37:17Z</time>
      </trkpt>
      <trkpt lat="56.932604340196" lon="14.793507419215">
        <ele>180.8</ele>
        <time>2020-01-12T07:37:18Z</time>
      </trkpt>
      <trkpt lat="56.93294514825" lon="14.793753260342">
        <ele>179.8</ele>
        <time>2020-01-12T07:37:23Z</time>
      </trkpt>
      <trkpt lat="56.933008683052" lon="14.793819728809">
        <ele>179.6</ele>
        <time>2020-01-12T07:37:24Z</time>
      </trkpt>
      <trkpt lat="56.933468514086" lon="14.794351811821">
        <ele>179.2</ele>
        <time>2020-01-12T07:37:32Z</time>
      </trkpt>
      <trkpt lat="56.933946198567" lon="14.79494449597">
        <ele>180.2</ele>
        <time>2020-01-12T07:37:41Z</time>
      </trkpt>
      <trkpt lat="56.934093133274" lon="14.795139123688">
        <ele>180.6</ele>
        <time>2020-01-12T07:37:44Z</time>
      </trkpt>
      <trkpt lat="56.934585569899" lon="14.79571898353">
        <ele>180</ele>
        <time>2020-01-12T07:37:52Z</time>
      </trkpt>
      <trkpt lat="56.93465757042" lon="14.795820236882">
        <ele>179.8</ele>
        <time>2020-01-12T07:37:53Z</time>
      </trkpt>
      <trkpt lat="56.934721105222" lon="14.795928698668">
        <ele>179.4</ele>
        <time>2020-01-12T07:37:54Z</time>
      </trkpt>
      <trkpt lat="56.934783215101" lon="14.796021067206">
        <ele>179</ele>
        <time>2020-01-12T07:37:55Z</time>
      </trkpt>
      <trkpt lat="56.934846582265" lon="14.796086278388">
        <ele>178.4</ele>
        <time>2020-01-12T07:37:56Z</time>
      </trkpt>
      <trkpt lat="56.934916152035" lon="14.796097426315">
        <ele>177.8</ele>
        <time>2020-01-12T07:37:57Z</time>
      </trkpt>
      <trkpt lat="56.934976334077" lon="14.796093403003">
        <ele>177.2</ele>
        <time>2020-01-12T07:37:58Z</time>
      </trkpt>
      <trkpt lat="56.935036599938" lon="14.796098599781">
        <ele>176.8</ele>
        <time>2020-01-12T07:37:59Z</time>
      </trkpt>
      <trkpt lat="56.935261234858" lon="14.796298759553">
        <ele>176.2</ele>
        <time>2020-01-12T07:38:03Z</time>
      </trkpt>
      <trkpt lat="56.935321500719" lon="14.796362797269">
        <ele>176.2</ele>
        <time>2020-01-12T07:38:04Z</time>
      </trkpt>
      <trkpt lat="56.93541529418" lon="14.796508893786">
        <ele>176.2</ele>
        <time>2020-01-12T07:38:06Z</time>
      </trkpt>
      <trkpt lat="56.935524510337" lon="14.796578798832">
        <ele>176</ele>
        <time>2020-01-12T07:38:08Z</time>
      </trkpt>
      <trkpt lat="56.935638671815" lon="14.796565471611">
        <ele>176</ele>
        <time>2020-01-12T07:38:10Z</time>
      </trkpt>
      <trkpt lat="56.935952657789" lon="14.796680890374">
        <ele>175.6</ele>
        <time>2020-01-12T07:38:15Z</time>
      </trkpt>
      <trkpt lat="56.936518938953" lon="14.797024129179">
        <ele>176</ele>
        <time>2020-01-12T07:38:24Z</time>
      </trkpt>
      <trkpt lat="56.936999557099" lon="14.79725203304">
        <ele>176.4</ele>
        <time>2020-01-12T07:38:32Z</time>
      </trkpt>
      <trkpt lat="56.937508841343" lon="14.797682108329">
        <ele>176.6</ele>
        <time>2020-01-12T07:38:41Z</time>
      </trkpt>
      <trkpt lat="56.937670109099" lon="14.797843376085">
        <ele>176.6</ele>
        <time>2020-01-12T07:38:44Z</time>
      </trkpt>
      <trkpt lat="56.938016616845" lon="14.798018473976">
        <ele>177</ele>
        <time>2020-01-12T07:38:50Z</time>
      </trkpt>
      <trkpt lat="56.938126671192" lon="14.798043116762">
        <ele>177.2</ele>
        <time>2020-01-12T07:38:52Z</time>
      </trkpt>
      <trkpt lat="56.938182746103" lon="14.798061808399">
        <ele>177.4</ele>
        <time>2020-01-12T07:38:53Z</time>
      </trkpt>
      <trkpt lat="56.938284753826" lon="14.798164402855">
        <ele>177.6</ele>
        <time>2020-01-12T07:38:55Z</time>
      </trkpt>
      <trkpt lat="56.938517686827" lon="14.798560279992">
        <ele>178.4</ele>
        <time>2020-01-12T07:39:00Z</time>
      </trkpt>
      <trkpt lat="56.938983049915" lon="14.799065373286">
        <ele>179</ele>
        <time>2020-01-12T07:39:11Z</time>
      </trkpt>
      <trkpt lat="56.939245487204" lon="14.799160256394">
        <ele>179.2</ele>
        <time>2020-01-12T07:39:16Z</time>
      </trkpt>
      <trkpt lat="56.939549331079" lon="14.799320853598">
        <ele>179.2</ele>
        <time>2020-01-12T07:39:21Z</time>
      </trkpt>
      <trkpt lat="56.940020393859" lon="14.800019484963">
        <ele>177.4</ele>
        <time>2020-01-12T07:39:29Z</time>
      </trkpt>
      <trkpt lat="56.940097758796" lon="14.80011864284">
        <ele>176.8</ele>
        <time>2020-01-12T07:39:30Z</time>
      </trkpt>
      <trkpt lat="56.940223319658" lon="14.800320143716">
        <ele>175.8</ele>
        <time>2020-01-12T07:39:32Z</time>
      </trkpt>
      <trkpt lat="56.940282998786" lon="14.800556597115">
        <ele>174</ele>
        <time>2020-01-12T07:39:34Z</time>
      </trkpt>
      <trkpt lat="56.940258020724" lon="14.800781483492">
        <ele>172.8</ele>
        <time>2020-01-12T07:39:36Z</time>
      </trkpt>
      <trkpt lat="56.940194402103" lon="14.800978122866">
        <ele>172.6</ele>
        <time>2020-01-12T07:39:38Z</time>
      </trkpt>
      <trkpt lat="56.940036906202" lon="14.801322199861">
        <ele>173.2</ele>
        <time>2020-01-12T07:39:42Z</time>
      </trkpt>
      <trkpt lat="56.939935233755" lon="14.801436948072">
        <ele>173.4</ele>
        <time>2020-01-12T07:39:44Z</time>
      </trkpt>
      <trkpt lat="56.939405832951" lon="14.801826706422">
        <ele>173</ele>
        <time>2020-01-12T07:39:53Z</time>
      </trkpt>
      <trkpt lat="56.938883305305" lon="14.802046731297">
        <ele>173.8</ele>
        <time>2020-01-12T07:40:02Z</time>
      </trkpt>
      <trkpt lat="56.93835231194" lon="14.802043294718">
        <ele>175</ele>
        <time>2020-01-12T07:40:12Z</time>
      </trkpt>
      <trkpt lat="56.938053161929" lon="14.802197689316">
        <ele>175.4</ele>
        <time>2020-01-12T07:40:18Z</time>
      </trkpt>
      <trkpt lat="56.93792986418" lon="14.802368847714">
        <ele>175.6</ele>
        <time>2020-01-12T07:40:20Z</time>
      </trkpt>
      <trkpt lat="56.937834226701" lon="14.802532462402">
        <ele>175.6</ele>
        <time>2020-01-12T07:40:22Z</time>
      </trkpt>
      <trkpt lat="56.937658709715" lon="14.803287252497">
        <ele>175.4</ele>
        <time>2020-01-12T07:40:29Z</time>
      </trkpt>
      <trkpt lat="56.937299461481" lon="14.803992254106">
        <ele>174.2</ele>
        <time>2020-01-12T07:40:38Z</time>
      </trkpt>
      <trkpt lat="56.936796128386" lon="14.804519559435">
        <ele>175.6</ele>
        <time>2020-01-12T07:40:49Z</time>
      </trkpt>
      <trkpt lat="56.936708118436" lon="14.80465492712">
        <ele>175.8</ele>
        <time>2020-01-12T07:40:51Z</time>
      </trkpt>
      <trkpt lat="56.93661055312" lon="14.804767076942">
        <ele>176</ele>
        <time>2020-01-12T07:40:53Z</time>
      </trkpt>
      <trkpt lat="56.936095233908" lon="14.805194889118">
        <ele>176.6</ele>
        <time>2020-01-12T07:41:03Z</time>
      </trkpt>
      <trkpt lat="56.935565749285" lon="14.805543743796">
        <ele>176.2</ele>
        <time>2020-01-12T07:41:12Z</time>
      </trkpt>
      <trkpt lat="56.935319489063" lon="14.805734432021">
        <ele>177.2</ele>
        <time>2020-01-12T07:41:17Z</time>
      </trkpt>
      <trkpt lat="56.935017489206" lon="14.806183869499">
        <ele>178</ele>
        <time>2020-01-12T07:41:24Z</time>
      </trkpt>
      <trkpt lat="56.934612475798" lon="14.806910747867">
        <ele>177</ele>
        <time>2020-01-12T07:41:33Z</time>
      </trkpt>
      <trkpt lat="56.934343165351" lon="14.807512568287">
        <ele>176</ele>
        <time>2020-01-12T07:41:39Z</time>
      </trkpt>
      <trkpt lat="56.934220538154" lon="14.807791182643">
        <ele>175</ele>
        <time>2020-01-12T07:41:42Z</time>
      </trkpt>
      <trkpt lat="56.934137641163" lon="14.807959826471">
        <ele>174.6</ele>
        <time>2020-01-12T07:41:44Z</time>
      </trkpt>
      <trkpt lat="56.934034962888" lon="14.808083794772">
        <ele>174.4</ele>
        <time>2020-01-12T07:41:46Z</time>
      </trkpt>
      <trkpt lat="56.933931027328" lon="14.808143641538">
        <ele>174.4</ele>
        <time>2020-01-12T07:41:48Z</time>
      </trkpt>
      <trkpt lat="56.933354771703" lon="14.808248918202">
        <ele>174.6</ele>
        <time>2020-01-12T07:41:58Z</time>
      </trkpt>
      <trkpt lat="56.932836267369" lon="14.8085793327">
        <ele>175.6</ele>
        <time>2020-01-12T07:42:09Z</time>
      </trkpt>
      <trkpt lat="56.932448353037" lon="14.809288692897">
        <ele>175.8</ele>
        <time>2020-01-12T07:42:17Z</time>
      </trkpt>
      <trkpt lat="56.932407197908" lon="14.809381564349">
        <ele>176</ele>
        <time>2020-01-12T07:42:18Z</time>
      </trkpt>
      <trkpt lat="56.932044764552" lon="14.81022469967">
        <ele>176.2</ele>
        <time>2020-01-12T07:42:27Z</time>
      </trkpt>
      <trkpt lat="56.931602200232" lon="14.810782431296">
        <ele>175.4</ele>
        <time>2020-01-12T07:42:36Z</time>
      </trkpt>
      <trkpt lat="56.931109679788" lon="14.811313173204">
        <ele>175.6</ele>
        <time>2020-01-12T07:42:47Z</time>
      </trkpt>
      <trkpt lat="56.930637946456" lon="14.811804604001">
        <ele>176.4</ele>
        <time>2020-01-12T07:42:56Z</time>
      </trkpt>
      <trkpt lat="56.930421106703" lon="14.812085062375">
        <ele>176.2</ele>
        <time>2020-01-12T07:43:01Z</time>
      </trkpt>
      <trkpt lat="56.930330498364" lon="14.812255550221">
        <ele>176</ele>
        <time>2020-01-12T07:43:03Z</time>
      </trkpt>
      <trkpt lat="56.929909559346" lon="14.813022661709">
        <ele>175.6</ele>
        <time>2020-01-12T07:43:12Z</time>
      </trkpt>
      <trkpt lat="56.929588951671" lon="14.813840064597">
        <ele>175.2</ele>
        <time>2020-01-12T07:43:21Z</time>
      </trkpt>
      <trkpt lat="56.929515107132" lon="14.814123456636">
        <ele>175</ele>
        <time>2020-01-12T07:43:24Z</time>
      </trkpt>
      <trkpt lat="56.929373033927" lon="14.814485973811">
        <ele>176.2</ele>
        <time>2020-01-12T07:43:29Z</time>
      </trkpt>
      <trkpt lat="56.929272534946" lon="14.814713458577">
        <ele>176.6</ele>
        <time>2020-01-12T07:43:32Z</time>
      </trkpt>
      <trkpt lat="56.929189386498" lon="14.814781687243">
        <ele>176.8</ele>
        <time>2020-01-12T07:43:34Z</time>
      </trkpt>
      <trkpt lat="56.929090982992" lon="14.814856956705">
        <ele>177.4</ele>
        <time>2020-01-12T07:43:36Z</time>
      </trkpt>
      <trkpt lat="56.929036752099" lon="14.81489006521">
        <ele>177.8</ele>
        <time>2020-01-12T07:43:37Z</time>
      </trkpt>
      <trkpt lat="56.928508776218" lon="14.815113275207">
        <ele>177.6</ele>
        <time>2020-01-12T07:43:47Z</time>
      </trkpt>
      <trkpt lat="56.928091525236" lon="14.815289630383">
        <ele>178.6</ele>
        <time>2020-01-12T07:43:55Z</time>
      </trkpt>
      <trkpt lat="56.927778293633" lon="14.815534800958">
        <ele>179</ele>
        <time>2020-01-12T07:44:01Z</time>
      </trkpt>
      <trkpt lat="56.927410914956" lon="14.816007623937">
        <ele>177.4</ele>
        <time>2020-01-12T07:44:07Z</time>
      </trkpt>
      <trkpt lat="56.927123834881" lon="14.816366788352">
        <ele>176.2</ele>
        <time>2020-01-12T07:44:12Z</time>
      </trkpt>
      <trkpt lat="56.926593176792" lon="14.816756546702">
        <ele>175.8</ele>
        <time>2020-01-12T07:44:21Z</time>
      </trkpt>
      <trkpt lat="56.92625052472" lon="14.816902978495">
        <ele>176.4</ele>
        <time>2020-01-12T07:44:27Z</time>
      </trkpt>
      <trkpt lat="56.925903933155" lon="14.817243870368">
        <ele>176.4</ele>
        <time>2020-01-12T07:44:34Z</time>
      </trkpt>
      <trkpt lat="56.925798656491" lon="14.817309584464">
        <ele>176.4</ele>
        <time>2020-01-12T07:44:36Z</time>
      </trkpt>
      <trkpt lat="56.925474612237" lon="14.817304220048">
        <ele>176.4</ele>
        <time>2020-01-12T07:44:42Z</time>
      </trkpt>
      <trkpt lat="56.925225585988" lon="14.817218724668">
        <ele>177.4</ele>
        <time>2020-01-12T07:44:47Z</time>
      </trkpt>
      <trkpt lat="56.925043950215" lon="14.817156195694">
        <ele>178.6</ele>
        <time>2020-01-12T07:44:51Z</time>
      </trkpt>
      <trkpt lat="56.924857788216" lon="14.817076986739">
        <ele>179.8</ele>
        <time>2020-01-12T07:44:55Z</time>
      </trkpt>
      <trkpt lat="56.924559308757" lon="14.816939104484">
        <ele>180</ele>
        <time>2020-01-12T07:45:01Z</time>
      </trkpt>
      <trkpt lat="56.924065028114" lon="14.816428562955">
        <ele>178.8</ele>
        <time>2020-01-12T07:45:09Z</time>
      </trkpt>
      <trkpt lat="56.923521629537" lon="14.816002427159">
        <ele>178.2</ele>
        <time>2020-01-12T07:45:18Z</time>
      </trkpt>
      <trkpt lat="56.923460776943" lon="14.815975940355">
        <ele>178.2</ele>
        <time>2020-01-12T07:45:19Z</time>
      </trkpt>
      <trkpt lat="56.923335048443" lon="14.815942748031">
        <ele>178.4</ele>
        <time>2020-01-12T07:45:21Z</time>
      </trkpt>
      <trkpt lat="56.923053332784" lon="14.81590678968">
        <ele>178.2</ele>
        <time>2020-01-12T07:45:26Z</time>
      </trkpt>
      <trkpt lat="56.922510856216" lon="14.816119606121">
        <ele>178.8</ele>
        <time>2020-01-12T07:45:35Z</time>
      </trkpt>
      <trkpt lat="56.922001069058" lon="14.816385647627">
        <ele>178.8</ele>
        <time>2020-01-12T07:45:44Z</time>
      </trkpt>
      <trkpt lat="56.921412994954" lon="14.816292021804">
        <ele>179</ele>
        <time>2020-01-12T07:45:54Z</time>
      </trkpt>
      <trkpt lat="56.920891221679" lon="14.816027405221">
        <ele>179.4</ele>
        <time>2020-01-12T07:46:04Z</time>
      </trkpt>
      <trkpt lat="56.920492410877" lon="14.815882146894">
        <ele>179</ele>
        <time>2020-01-12T07:46:12Z</time>
      </trkpt>
      <trkpt lat="56.920453770318" lon="14.815973677242">
        <ele>179</ele>
        <time>2020-01-12T07:46:14Z</time>
      </trkpt>
      <trkpt lat="56.920305662145" lon="14.81698889297">
        <ele>178.2</ele>
        <time>2020-01-12T07:46:27Z</time>
      </trkpt>
      <trkpt lat="56.920283953024" lon="14.817177737177">
        <ele>178.2</ele>
        <time>2020-01-12T07:46:29Z</time>
      </trkpt>
      <trkpt lat="56.920262746817" lon="14.81735769657">
        <ele>178.2</ele>
        <time>2020-01-12T07:46:31Z</time>
      </trkpt>
      <trkpt lat="56.92023818785" lon="14.817545367311">
        <ele>178</ele>
        <time>2020-01-12T07:46:33Z</time>
      </trkpt>
      <trkpt lat="56.920207007182" lon="14.817737815735">
        <ele>177.8</ele>
        <time>2020-01-12T07:46:35Z</time>
      </trkpt>
      <trkpt lat="56.920184208414" lon="14.817925905571">
        <ele>177.6</ele>
        <time>2020-01-12T07:46:37Z</time>
      </trkpt>
      <trkpt lat="56.920143304742" lon="14.818192449991">
        <ele>177.4</ele>
        <time>2020-01-12T07:46:40Z</time>
      </trkpt>
      <trkpt lat="56.919970302326" lon="14.819212191945">
        <ele>176.8</ele>
        <time>2020-01-12T07:46:49Z</time>
      </trkpt>
      <trkpt lat="56.919887656792" lon="14.819580324993">
        <ele>176.6</ele>
        <time>2020-01-12T07:46:52Z</time>
      </trkpt>
      <trkpt lat="56.919590350799" lon="14.820525300399">
        <ele>176.6</ele>
        <time>2020-01-12T07:47:01Z</time>
      </trkpt>
      <trkpt lat="56.919285501096" lon="14.821340943088">
        <ele>176.6</ele>
        <time>2020-01-12T07:47:10Z</time>
      </trkpt>
      <trkpt lat="56.919253063143" lon="14.821426606106">
        <ele>176.8</ele>
        <time>2020-01-12T07:47:11Z</time>
      </trkpt>
      <trkpt lat="56.918902615904" lon="14.822230346497">
        <ele>176.4</ele>
        <time>2020-01-12T07:47:20Z</time>
      </trkpt>
      <trkpt lat="56.918557030167" lon="14.823006678075">
        <ele>176.4</ele>
        <time>2020-01-12T07:47:29Z</time>
      </trkpt>
      <trkpt lat="56.918365000838" lon="14.82350917298">
        <ele>176.6</ele>
        <time>2020-01-12T07:47:35Z</time>
      </trkpt>
      <trkpt lat="56.918178000649" lon="14.823967830548">
        <ele>176.4</ele>
        <time>2020-01-12T07:47:40Z</time>
      </trkpt>
      <trkpt lat="56.918000723464" lon="14.824437468405">
        <ele>175.6</ele>
        <time>2020-01-12T07:47:45Z</time>
      </trkpt>
      <trkpt lat="56.91768170835" lon="14.825246657031">
        <ele>174.6</ele>
        <time>2020-01-12T07:47:54Z</time>
      </trkpt>
      <trkpt lat="56.917626974543" lon="14.825419491809">
        <ele>174.4</ele>
        <time>2020-01-12T07:47:56Z</time>
      </trkpt>
      <trkpt lat="56.917290776534" lon="14.82621065935">
        <ele>174.2</ele>
        <time>2020-01-12T07:48:05Z</time>
      </trkpt>
      <trkpt lat="56.916928929911" lon="14.827027559324">
        <ele>175</ele>
        <time>2020-01-12T07:48:15Z</time>
      </trkpt>
      <trkpt lat="56.916592312807" lon="14.827840855081">
        <ele>175.6</ele>
        <time>2020-01-12T07:48:25Z</time>
      </trkpt>
      <trkpt lat="56.916561467415" lon="14.827917717104">
        <ele>175.6</ele>
        <time>2020-01-12T07:48:26Z</time>
      </trkpt>
      <trkpt lat="56.916337838323" lon="14.828453236695">
        <ele>175.4</ele>
        <time>2020-01-12T07:48:33Z</time>
      </trkpt>
      <trkpt lat="56.916269609657" lon="14.828581731222">
        <ele>175.4</ele>
        <time>2020-01-12T07:48:35Z</time>
      </trkpt>
      <trkpt lat="56.91592737668" lon="14.82947792397">
        <ele>175.2</ele>
        <time>2020-01-12T07:48:45Z</time>
      </trkpt>
      <trkpt lat="56.91583517578" lon="14.829873214374">
        <ele>175</ele>
        <time>2020-01-12T07:48:49Z</time>
      </trkpt>
      <trkpt lat="56.915607607195" lon="14.830809053509">
        <ele>175.2</ele>
        <time>2020-01-12T07:48:58Z</time>
      </trkpt>
      <trkpt lat="56.915574750147" lon="14.83111155628">
        <ele>175.2</ele>
        <time>2020-01-12T07:49:01Z</time>
      </trkpt>
      <trkpt lat="56.91555019118" lon="14.831643555473">
        <ele>175</ele>
        <time>2020-01-12T07:49:06Z</time>
      </trkpt>
      <trkpt lat="56.915535271398" lon="14.832249063929">
        <ele>175</ele>
        <time>2020-01-12T07:49:12Z</time>
      </trkpt>
      <trkpt lat="56.915614815629" lon="14.832640331021">
        <ele>175.2</ele>
        <time>2020-01-12T07:49:16Z</time>
      </trkpt>
      <trkpt lat="56.915793685375" lon="14.83365546293">
        <ele>174.8</ele>
        <time>2020-01-12T07:49:28Z</time>
      </trkpt>
      <trkpt lat="56.915934585114" lon="14.834397596356">
        <ele>174.8</ele>
        <time>2020-01-12T07:49:36Z</time>
      </trkpt>
      <trkpt lat="56.915942045005" lon="14.834622650371">
        <ele>175</ele>
        <time>2020-01-12T07:49:38Z</time>
      </trkpt>
      <trkpt lat="56.915959311719" lon="14.834968487565">
        <ele>174.8</ele>
        <time>2020-01-12T07:49:41Z</time>
      </trkpt>
      <trkpt lat="56.91596174247" lon="14.83541063279">
        <ele>174.6</ele>
        <time>2020-01-12T07:49:45Z</time>
      </trkpt>
      <trkpt lat="56.915935507123" lon="14.835769126653">
        <ele>174.2</ele>
        <time>2020-01-12T07:49:48Z</time>
      </trkpt>
      <trkpt lat="56.915955288407" lon="14.835995102677">
        <ele>174.2</ele>
        <time>2020-01-12T07:49:50Z</time>
      </trkpt>
      <trkpt lat="56.915902482437" lon="14.8368263357">
        <ele>173.6</ele>
        <time>2020-01-12T07:49:57Z</time>
      </trkpt>
      <trkpt lat="56.915709950194" lon="14.837802743231">
        <ele>172.6</ele>
        <time>2020-01-12T07:50:06Z</time>
      </trkpt>
      <trkpt lat="56.915643397908" lon="14.838115220463">
        <ele>172.6</ele>
        <time>2020-01-12T07:50:09Z</time>
      </trkpt>
      <trkpt lat="56.915413901486" lon="14.839096238039">
        <ele>173.6</ele>
        <time>2020-01-12T07:50:19Z</time>
      </trkpt>
      <trkpt lat="56.915293285945" lon="14.839632931096">
        <ele>174.8</ele>
        <time>2020-01-12T07:50:25Z</time>
      </trkpt>
      <trkpt lat="56.915118271873" lon="14.840598693614">
        <ele>176</ele>
        <time>2020-01-12T07:50:36Z</time>
      </trkpt>
      <trkpt lat="56.914921045766" lon="14.841536795862">
        <ele>175.8</ele>
        <time>2020-01-12T07:50:46Z</time>
      </trkpt>
      <trkpt lat="56.914851559815" lon="14.841807531232">
        <ele>176</ele>
        <time>2020-01-12T07:50:49Z</time>
      </trkpt>
      <trkpt lat="56.914643688695" lon="14.842814113603">
        <ele>175.8</ele>
        <time>2020-01-12T07:51:00Z</time>
      </trkpt>
      <trkpt lat="56.914433303005" lon="14.843781552501">
        <ele>175.8</ele>
        <time>2020-01-12T07:51:10Z</time>
      </trkpt>
      <trkpt lat="56.914344957779" lon="14.844197630017">
        <ele>175</ele>
        <time>2020-01-12T07:51:14Z</time>
      </trkpt>
      <trkpt lat="56.914184109118" lon="14.84497689526">
        <ele>173.8</ele>
        <time>2020-01-12T07:51:21Z</time>
      </trkpt>
      <trkpt lat="56.914159801608" lon="14.845213013383">
        <ele>173.4</ele>
        <time>2020-01-12T07:51:23Z</time>
      </trkpt>
      <trkpt lat="56.914182684195" lon="14.845570752875">
        <ele>172.8</ele>
        <time>2020-01-12T07:51:26Z</time>
      </trkpt>
      <trkpt lat="56.914189305896" lon="14.845701175239">
        <ele>172.8</ele>
        <time>2020-01-12T07:51:27Z</time>
      </trkpt>
      <trkpt lat="56.914093333141" lon="14.846792079524">
        <ele>171.8</ele>
        <time>2020-01-12T07:51:35Z</time>
      </trkpt>
      <trkpt lat="56.914077994264" lon="14.846917556567">
        <ele>171.8</ele>
        <time>2020-01-12T07:51:36Z</time>
      </trkpt>
      <trkpt lat="56.914026529398" lon="14.847891784804">
        <ele>172.8</ele>
        <time>2020-01-12T07:51:45Z</time>
      </trkpt>
      <trkpt lat="56.914046981234" lon="14.848279447679">
        <ele>173.8</ele>
        <time>2020-01-12T07:51:49Z</time>
      </trkpt>
      <trkpt lat="56.914096937358" lon="14.84876719044">
        <ele>175</ele>
        <time>2020-01-12T07:51:54Z</time>
      </trkpt>
      <trkpt lat="56.914299527881" lon="14.849691211096">
        <ele>174.8</ele>
        <time>2020-01-12T07:52:03Z</time>
      </trkpt>
      <trkpt lat="56.914505554983" lon="14.850182222798">
        <ele>174</ele>
        <time>2020-01-12T07:52:08Z</time>
      </trkpt>
      <trkpt lat="56.914637821365" lon="14.850486569587">
        <ele>174</ele>
        <time>2020-01-12T07:52:11Z</time>
      </trkpt>
      <trkpt lat="56.914682915987" lon="14.850742385175">
        <ele>173.8</ele>
        <time>2020-01-12T07:52:13Z</time>
      </trkpt>
      <trkpt lat="56.914683167444" lon="14.851015635115">
        <ele>173.8</ele>
        <time>2020-01-12T07:52:15Z</time>
      </trkpt>
      <trkpt lat="56.914525336267" lon="14.851936554468">
        <ele>174</ele>
        <time>2020-01-12T07:52:22Z</time>
      </trkpt>
      <trkpt lat="56.914518546928" lon="14.852192621513">
        <ele>173.4</ele>
        <time>2020-01-12T07:52:24Z</time>
      </trkpt>
      <trkpt lat="56.914544111723" lon="14.852436199527">
        <ele>173</ele>
        <time>2020-01-12T07:52:26Z</time>
      </trkpt>
      <trkpt lat="56.914566575215" lon="14.853001307225">
        <ele>173</ele>
        <time>2020-01-12T07:52:31Z</time>
      </trkpt>
      <trkpt lat="56.914594235485" lon="14.853371116653">
        <ele>173.8</ele>
        <time>2020-01-12T07:52:35Z</time>
      </trkpt>
      <trkpt lat="56.914610915466" lon="14.853454600377">
        <ele>174</ele>
        <time>2020-01-12T07:52:36Z</time>
      </trkpt>
      <trkpt lat="56.91472625041" lon="14.853946282631">
        <ele>175.2</ele>
        <time>2020-01-12T07:52:42Z</time>
      </trkpt>
      <trkpt lat="56.9147606162" lon="14.854108556215">
        <ele>175.6</ele>
        <time>2020-01-12T07:52:44Z</time>
      </trkpt>
      <trkpt lat="56.914760700019" lon="14.854276110396">
        <ele>176.2</ele>
        <time>2020-01-12T07:52:46Z</time>
      </trkpt>
      <trkpt lat="56.914703535461" lon="14.854403599095">
        <ele>176.8</ele>
        <time>2020-01-12T07:52:48Z</time>
      </trkpt>
      <trkpt lat="56.914661458323" lon="14.85443922217">
        <ele>177.2</ele>
        <time>2020-01-12T07:52:49Z</time>
      </trkpt>
      <trkpt lat="56.91453765766" lon="14.85455321601">
        <ele>178.2</ele>
        <time>2020-01-12T07:52:52Z</time>
      </trkpt>
      <trkpt lat="56.914495412884" lon="14.854693780473">
        <ele>178.4</ele>
        <time>2020-01-12T07:52:54Z</time>
      </trkpt>
      <trkpt lat="56.914514020702" lon="14.854860412645">
        <ele>178.4</ele>
        <time>2020-01-12T07:52:56Z</time>
      </trkpt>
      <trkpt lat="56.914656093907" lon="14.855381850644">
        <ele>177.2</ele>
        <time>2020-01-12T07:53:01Z</time>
      </trkpt>
      <trkpt lat="56.91464410779" lon="14.855582597149">
        <ele>176.6</ele>
        <time>2020-01-12T07:53:03Z</time>
      </trkpt>
      <trkpt lat="56.914587278508" lon="14.855718803024">
        <ele>176.2</ele>
        <time>2020-01-12T07:53:05Z</time>
      </trkpt>
      <trkpt lat="56.914519971851" lon="14.855826007525">
        <ele>175.8</ele>
        <time>2020-01-12T07:53:07Z</time>
      </trkpt>
      <trkpt lat="56.914469931908" lon="14.855960201744">
        <ele>175.8</ele>
        <time>2020-01-12T07:53:09Z</time>
      </trkpt>
      <trkpt lat="56.91441528192" lon="14.856252646235">
        <ele>176</ele>
        <time>2020-01-12T07:53:12Z</time>
      </trkpt>
      <trkpt lat="56.914387118736" lon="14.856472252015">
        <ele>176</ele>
        <time>2020-01-12T07:53:14Z</time>
      </trkpt>
      <trkpt lat="56.913986212459" lon="14.8571608251">
        <ele>176.6</ele>
        <time>2020-01-12T07:53:24Z</time>
      </trkpt>
      <trkpt lat="56.913828968015" lon="14.857338856656">
        <ele>176.8</ele>
        <time>2020-01-12T07:53:28Z</time>
      </trkpt>
      <trkpt lat="56.913685469887" lon="14.857395434481">
        <ele>177.2</ele>
        <time>2020-01-12T07:53:31Z</time>
      </trkpt>
      <trkpt lat="56.913265369059" lon="14.857474811074">
        <ele>177.6</ele>
        <time>2020-01-12T07:53:39Z</time>
      </trkpt>
      <trkpt lat="56.913169312485" lon="14.857453185772">
        <ele>177.8</ele>
        <time>2020-01-12T07:53:41Z</time>
      </trkpt>
      <trkpt lat="56.912980384459" lon="14.857348244384">
        <ele>178.2</ele>
        <time>2020-01-12T07:53:45Z</time>
      </trkpt>
      <trkpt lat="56.912931098887" lon="14.857327038177">
        <ele>178.4</ele>
        <time>2020-01-12T07:53:46Z</time>
      </trkpt>
      <trkpt lat="56.912566150961" lon="14.857257803683">
        <ele>179.2</ele>
        <time>2020-01-12T07:53:54Z</time>
      </trkpt>
      <trkpt lat="56.912340426394" lon="14.857295186957">
        <ele>180.4</ele>
        <time>2020-01-12T07:53:59Z</time>
      </trkpt>
      <trkpt lat="56.912125682116" lon="14.85739468011">
        <ele>181.2</ele>
        <time>2020-01-12T07:54:04Z</time>
      </trkpt>
      <trkpt lat="56.911998277236" lon="14.857390070065">
        <ele>181.4</ele>
        <time>2020-01-12T07:54:07Z</time>
      </trkpt>
      <trkpt lat="56.911458399057" lon="14.85738126907">
        <ele>182.2</ele>
        <time>2020-01-12T07:54:19Z</time>
      </trkpt>
      <trkpt lat="56.911375418247" lon="14.857374312093">
        <ele>182.4</ele>
        <time>2020-01-12T07:54:21Z</time>
      </trkpt>
      <trkpt lat="56.910997729833" lon="14.857402307639">
        <ele>183.6</ele>
        <time>2020-01-12T07:54:31Z</time>
      </trkpt>
      <trkpt lat="56.910745267005" lon="14.857385040925">
        <ele>184.6</ele>
        <time>2020-01-12T07:54:37Z</time>
      </trkpt>
      <trkpt lat="56.91052608032" lon="14.857601210126">
        <ele>185</ele>
        <time>2020-01-12T07:54:42Z</time>
      </trkpt>
      <trkpt lat="56.910297086812" lon="14.857586457982">
        <ele>185.8</ele>
        <time>2020-01-12T07:54:47Z</time>
      </trkpt>
      <trkpt lat="56.910251740733" lon="14.857589056371">
        <ele>186</ele>
        <time>2020-01-12T07:54:48Z</time>
      </trkpt>
      <trkpt lat="56.910138752721" lon="14.857754515077">
        <ele>186.2</ele>
        <time>2020-01-12T07:54:52Z</time>
      </trkpt>
      <trkpt lat="56.910191977786" lon="14.858105129954">
        <ele>185.4</ele>
        <time>2020-01-12T07:54:56Z</time>
      </trkpt>
      <trkpt lat="56.910118971437" lon="14.858945499248">
        <ele>186.2</ele>
        <time>2020-01-12T07:55:06Z</time>
      </trkpt>
      <trkpt lat="56.909857875252" lon="14.859024037651">
        <ele>186.8</ele>
        <time>2020-01-12T07:55:12Z</time>
      </trkpt>
      <trkpt lat="56.90977254751" lon="14.859044405668">
        <ele>187</ele>
        <time>2020-01-12T07:55:14Z</time>
      </trkpt>
      <trkpt lat="56.9094716373" lon="14.859180192448">
        <ele>188</ele>
        <time>2020-01-12T07:55:21Z</time>
      </trkpt>
      <trkpt lat="56.909070479566" lon="14.859325366956">
        <ele>189</ele>
        <time>2020-01-12T07:55:30Z</time>
      </trkpt>
      <trkpt lat="56.908897644788" lon="14.859380268401">
        <ele>190.2</ele>
        <time>2020-01-12T07:55:34Z</time>
      </trkpt>
      <trkpt lat="56.908671752583" lon="14.859449754352">
        <ele>191.4</ele>
        <time>2020-01-12T07:55:39Z</time>
      </trkpt>
      <trkpt lat="56.908139837209" lon="14.859611022108">
        <ele>191.6</ele>
        <time>2020-01-12T07:55:51Z</time>
      </trkpt>
      <trkpt lat="56.908046546662" lon="14.859643376242">
        <ele>191.8</ele>
        <time>2020-01-12T07:55:53Z</time>
      </trkpt>
      <trkpt lat="56.907787294495" lon="14.859820150513">
        <ele>192.4</ele>
        <time>2020-01-12T07:55:59Z</time>
      </trkpt>
      <trkpt lat="56.907589733112" lon="14.860057525921">
        <ele>193.2</ele>
        <time>2020-01-12T07:56:04Z</time>
      </trkpt>
      <trkpt lat="56.90740298438" lon="14.860483074984">
        <ele>193.4</ele>
        <time>2020-01-12T07:56:10Z</time>
      </trkpt>
      <trkpt lat="56.907326373814" lon="14.860704021868">
        <ele>194</ele>
        <time>2020-01-12T07:56:13Z</time>
      </trkpt>
      <trkpt lat="56.907282620296" lon="14.860859589932">
        <ele>194.2</ele>
        <time>2020-01-12T07:56:15Z</time>
      </trkpt>
      <trkpt lat="56.90726552122" lon="14.861021947335">
        <ele>194.6</ele>
        <time>2020-01-12T07:56:17Z</time>
      </trkpt>
      <trkpt lat="56.907301479571" lon="14.861184388557">
        <ele>194.8</ele>
        <time>2020-01-12T07:56:19Z</time>
      </trkpt>
      <trkpt lat="56.907745133538" lon="14.861887043234">
        <ele>195.4</ele>
        <time>2020-01-12T07:56:29Z</time>
      </trkpt>
      <trkpt lat="56.908197253224" lon="14.862553236646">
        <ele>195</ele>
        <time>2020-01-12T07:56:38Z</time>
      </trkpt>
      <trkpt lat="56.908482824557" lon="14.862987670523">
        <ele>193.4</ele>
        <time>2020-01-12T07:56:43Z</time>
      </trkpt>
      <trkpt lat="56.908733694824" lon="14.863379608167">
        <ele>192.2</ele>
        <time>2020-01-12T07:56:47Z</time>
      </trkpt>
      <trkpt lat="56.908920778832" lon="14.863671465925">
        <ele>191.2</ele>
        <time>2020-01-12T07:56:50Z</time>
      </trkpt>
      <trkpt lat="56.909029743532" lon="14.863835164432">
        <ele>189.6</ele>
        <time>2020-01-12T07:56:52Z</time>
      </trkpt>
      <trkpt lat="56.909102163148" lon="14.863962401674">
        <ele>188.4</ele>
        <time>2020-01-12T07:56:54Z</time>
      </trkpt>
      <trkpt lat="56.909115155093" lon="14.864019817689">
        <ele>188.2</ele>
        <time>2020-01-12T07:56:55Z</time>
      </trkpt>
      <trkpt lat="56.909071736851" lon="14.864200447634">
        <ele>187.4</ele>
        <time>2020-01-12T07:56:58Z</time>
      </trkpt>
      <trkpt lat="56.909017925053" lon="14.864324248297">
        <ele>186.8</ele>
        <time>2020-01-12T07:57:00Z</time>
      </trkpt>
      <trkpt lat="56.908947433274" lon="14.864450228254">
        <ele>186.2</ele>
        <time>2020-01-12T07:57:02Z</time>
      </trkpt>
      <trkpt lat="56.908742998733" lon="14.86491659717">
        <ele>185.2</ele>
        <time>2020-01-12T07:57:09Z</time>
      </trkpt>
      <trkpt lat="56.908788177174" lon="14.865020784187">
        <ele>185</ele>
        <time>2020-01-12T07:57:11Z</time>
      </trkpt>
      <trkpt lat="56.908938464641" lon="14.865207952014">
        <ele>184.4</ele>
        <time>2020-01-12T07:57:14Z</time>
      </trkpt>
      <trkpt lat="56.908986241471" lon="14.865296548697">
        <ele>184.2</ele>
        <time>2020-01-12T07:57:15Z</time>
      </trkpt>
      <trkpt lat="56.909081795131" lon="14.865472233321">
        <ele>183</ele>
        <time>2020-01-12T07:57:17Z</time>
      </trkpt>
      <trkpt lat="56.90918246175" lon="14.865625035358">
        <ele>181.2</ele>
        <time>2020-01-12T07:57:19Z</time>
      </trkpt>
      <trkpt lat="56.909285307663" lon="14.865770042228">
        <ele>179.6</ele>
        <time>2020-01-12T07:57:21Z</time>
      </trkpt>
      <trkpt lat="56.909384884635" lon="14.865921754618">
        <ele>178.6</ele>
        <time>2020-01-12T07:57:23Z</time>
      </trkpt>
      <trkpt lat="56.909527879849" lon="14.866165919365">
        <ele>177.8</ele>
        <time>2020-01-12T07:57:26Z</time>
      </trkpt>
      <trkpt lat="56.90956132363" lon="14.866270860753">
        <ele>177.4</ele>
        <time>2020-01-12T07:57:27Z</time>
      </trkpt>
      <trkpt lat="56.909584122398" lon="14.8663809151">
        <ele>177.2</ele>
        <time>2020-01-12T07:57:28Z</time>
      </trkpt>
      <trkpt lat="56.909602646397" lon="14.866588367125">
        <ele>176</ele>
        <time>2020-01-12T07:57:30Z</time>
      </trkpt>
      <trkpt lat="56.909568699702" lon="14.866766314862">
        <ele>175</ele>
        <time>2020-01-12T07:57:32Z</time>
      </trkpt>
      <trkpt lat="56.909548583142" lon="14.86685952159">
        <ele>175</ele>
        <time>2020-01-12T07:57:33Z</time>
      </trkpt>
      <trkpt lat="56.909432829103" lon="14.867339217727">
        <ele>174.8</ele>
        <time>2020-01-12T07:57:38Z</time>
      </trkpt>
      <trkpt lat="56.90941212581" lon="14.867514064161">
        <ele>174.6</ele>
        <time>2020-01-12T07:57:40Z</time>
      </trkpt>
      <trkpt lat="56.909401564616" lon="14.867692850088">
        <ele>174</ele>
        <time>2020-01-12T07:57:42Z</time>
      </trkpt>
      <trkpt lat="56.909383711169" lon="14.867780105667">
        <ele>173.8</ele>
        <time>2020-01-12T07:57:43Z</time>
      </trkpt>
      <trkpt lat="56.909264772008" lon="14.86823415319">
        <ele>172.6</ele>
        <time>2020-01-12T07:57:48Z</time>
      </trkpt>
      <trkpt lat="56.909205009061" lon="14.868398270792">
        <ele>172.2</ele>
        <time>2020-01-12T07:57:50Z</time>
      </trkpt>
      <trkpt lat="56.908943912876" lon="14.868359462595">
        <ele>173.8</ele>
        <time>2020-01-12T07:58:00Z</time>
      </trkpt>
      <trkpt lat="56.908582485348" lon="14.868374047101">
        <ele>174.8</ele>
        <time>2020-01-12T07:58:08Z</time>
      </trkpt>
      <trkpt lat="56.908453823183" lon="14.868351332152">
        <ele>176</ele>
        <time>2020-01-12T07:58:13Z</time>
      </trkpt>
      <trkpt lat="56.908221141639" lon="14.868329287755">
        <ele>177.2</ele>
        <time>2020-01-12T07:58:19Z</time>
      </trkpt>
      <trkpt lat="56.908004218067" lon="14.868269943903">
        <ele>178.6</ele>
        <time>2020-01-12T07:58:24Z</time>
      </trkpt>
      <trkpt lat="56.90776675884" lon="14.868206995834">
        <ele>179.6</ele>
        <time>2020-01-12T07:58:31Z</time>
      </trkpt>
      <trkpt lat="56.907628122214" lon="14.868260556175">
        <ele>180.8</ele>
        <time>2020-01-12T07:58:36Z</time>
      </trkpt>
      <trkpt lat="56.907452856685" lon="14.868314032697">
        <ele>181.8</ele>
        <time>2020-01-12T07:58:42Z</time>
      </trkpt>
      <trkpt lat="56.907211960879" lon="14.868358037672">
        <ele>182.8</ele>
        <time>2020-01-12T07:58:47Z</time>
      </trkpt>
      <trkpt lat="56.90698305119" lon="14.868405814502">
        <ele>184</ele>
        <time>2020-01-12T07:58:52Z</time>
      </trkpt>
      <trkpt lat="56.906812730982" lon="14.868517796686">
        <ele>185</ele>
        <time>2020-01-12T07:58:58Z</time>
      </trkpt>
      <trkpt lat="56.906637800729" lon="14.868641345892">
        <ele>186.2</ele>
        <time>2020-01-12T07:59:04Z</time>
      </trkpt>
      <trkpt lat="56.90652539945" lon="14.868719129924">
        <ele>187.2</ele>
        <time>2020-01-12T07:59:08Z</time>
      </trkpt>
      <trkpt lat="56.906423559365" lon="14.86876053651">
        <ele>188.4</ele>
        <time>2020-01-12T07:59:12Z</time>
      </trkpt>
      <trkpt lat="56.906253155338" lon="14.868759949777">
        <ele>189.6</ele>
        <time>2020-01-12T07:59:17Z</time>
      </trkpt>
      <trkpt lat="56.906119128757" lon="14.868665904859">
        <ele>190.8</ele>
        <time>2020-01-12T07:59:22Z</time>
      </trkpt>
      <trkpt lat="56.906006978935" lon="14.868551659562">
        <ele>191.8</ele>
        <time>2020-01-12T07:59:27Z</time>
      </trkpt>
      <trkpt lat="56.90586490573" lon="14.868370275246">
        <ele>193</ele>
        <time>2020-01-12T07:59:33Z</time>
      </trkpt>
      <trkpt lat="56.905763903835" lon="14.868198865391">
        <ele>194</ele>
        <time>2020-01-12T07:59:38Z</time>
      </trkpt>
      <trkpt lat="56.905659046266" lon="14.867971380625">
        <ele>195</ele>
        <time>2020-01-12T07:59:44Z</time>
      </trkpt>
      <trkpt lat="56.905560558941" lon="14.86773207738">
        <ele>196.2</ele>
        <time>2020-01-12T07:59:50Z</time>
      </trkpt>
      <trkpt lat="56.905464334729" lon="14.867529151581">
        <ele>197.4</ele>
        <time>2020-01-12T07:59:55Z</time>
      </trkpt>
      <trkpt lat="56.905377162969" lon="14.867290937983">
        <ele>198.4</ele>
        <time>2020-01-12T08:00:00Z</time>
      </trkpt>
      <trkpt lat="56.905288566286" lon="14.86705062891">
        <ele>199.6</ele>
        <time>2020-01-12T08:00:05Z</time>
      </trkpt>
      <trkpt lat="56.905165100899" lon="14.866729350683">
        <ele>200.6</ele>
        <time>2020-01-12T08:00:12Z</time>
      </trkpt>
      <trkpt lat="56.905092681283" lon="14.866562131778">
        <ele>201.6</ele>
        <time>2020-01-12T08:00:16Z</time>
      </trkpt>
      <trkpt lat="56.904910961691" lon="14.866114538318">
        <ele>202.8</ele>
        <time>2020-01-12T08:00:24Z</time>
      </trkpt>
      <trkpt lat="56.9048532104" lon="14.865097981486">
        <ele>203</ele>
        <time>2020-01-12T08:00:37Z</time>
      </trkpt>
      <trkpt lat="56.904671993722" lon="14.864726830954">
        <ele>203.8</ele>
        <time>2020-01-12T08:00:47Z</time>
      </trkpt>
      <trkpt lat="56.904622037598" lon="14.864725070755">
        <ele>204.2</ele>
        <time>2020-01-12T08:00:48Z</time>
      </trkpt>
      <trkpt lat="56.904523634092" lon="14.864663882885">
        <ele>204.4</ele>
        <time>2020-01-12T08:00:50Z</time>
      </trkpt>
      <trkpt lat="56.904442916395" lon="14.864552319796">
        <ele>204.6</ele>
        <time>2020-01-12T08:00:52Z</time>
      </trkpt>
      <trkpt lat="56.904319115732" lon="14.864201285824">
        <ele>204.8</ele>
        <time>2020-01-12T08:00:57Z</time>
      </trkpt>
      <trkpt lat="56.90408375198" lon="14.863277516625">
        <ele>204.8</ele>
        <time>2020-01-12T08:01:08Z</time>
      </trkpt>
      <trkpt lat="56.90385744068" lon="14.862570670998">
        <ele>203.6</ele>
        <time>2020-01-12T08:01:15Z</time>
      </trkpt>
      <trkpt lat="56.903745542315" lon="14.862123999547">
        <ele>202.4</ele>
        <time>2020-01-12T08:01:19Z</time>
      </trkpt>
      <trkpt lat="56.903509927106" lon="14.861362168656">
        <ele>201.2</ele>
        <time>2020-01-12T08:01:26Z</time>
      </trkpt>
      <trkpt lat="56.903387551366" lon="14.860884735632">
        <ele>200</ele>
        <time>2020-01-12T08:01:30Z</time>
      </trkpt>
      <trkpt lat="56.903312449542" lon="14.860491456884">
        <ele>198.8</ele>
        <time>2020-01-12T08:01:33Z</time>
      </trkpt>
      <trkpt lat="56.903223014669" lon="14.859695595479">
        <ele>197.6</ele>
        <time>2020-01-12T08:01:39Z</time>
      </trkpt>
      <trkpt lat="56.903156043288" lon="14.859019846701">
        <ele>196.8</ele>
        <time>2020-01-12T08:01:45Z</time>
      </trkpt>
      <trkpt lat="56.90314497918" lon="14.858860590601">
        <ele>197.2</ele>
        <time>2020-01-12T08:01:47Z</time>
      </trkpt>
      <trkpt lat="56.903139363307" lon="14.858664286503">
        <ele>198.8</ele>
        <time>2020-01-12T08:01:50Z</time>
      </trkpt>
      <trkpt lat="56.903138944212" lon="14.858523638221">
        <ele>200.2</ele>
        <time>2020-01-12T08:01:52Z</time>
      </trkpt>
      <trkpt lat="56.903128047742" lon="14.857728112092">
        <ele>200.4</ele>
        <time>2020-01-12T08:02:02Z</time>
      </trkpt>
      <trkpt lat="56.903071721374" lon="14.857257300769">
        <ele>200.4</ele>
        <time>2020-01-12T08:02:07Z</time>
      </trkpt>
      <trkpt lat="56.903008940943" lon="14.85705437497">
        <ele>199.8</ele>
        <time>2020-01-12T08:02:09Z</time>
      </trkpt>
      <trkpt lat="56.902939287354" lon="14.856865949858">
        <ele>199.2</ele>
        <time>2020-01-12T08:02:11Z</time>
      </trkpt>
      <trkpt lat="56.902860916589" lon="14.856686828655">
        <ele>198.6</ele>
        <time>2020-01-12T08:02:13Z</time>
      </trkpt>
      <trkpt lat="56.902783635471" lon="14.856497313896">
        <ele>197.8</ele>
        <time>2020-01-12T08:02:15Z</time>
      </trkpt>
      <trkpt lat="56.902652374917" lon="14.856173185823">
        <ele>196.8</ele>
        <time>2020-01-12T08:02:18Z</time>
      </trkpt>
      <trkpt lat="56.90254315876" lon="14.855937822071">
        <ele>195.6</ele>
        <time>2020-01-12T08:02:20Z</time>
      </trkpt>
      <trkpt lat="56.902431763309" lon="14.855684940148">
        <ele>194</ele>
        <time>2020-01-12T08:02:22Z</time>
      </trkpt>
      <trkpt lat="56.902329168853" lon="14.855439015202">
        <ele>191.8</ele>
        <time>2020-01-12T08:02:24Z</time>
      </trkpt>
      <trkpt lat="56.902223137818" lon="14.855209854056">
        <ele>190.4</ele>
        <time>2020-01-12T08:02:26Z</time>
      </trkpt>
      <trkpt lat="56.901861123557" lon="14.854478281824">
        <ele>189.4</ele>
        <time>2020-01-12T08:02:33Z</time>
      </trkpt>
      <trkpt lat="56.901762720051" lon="14.854252808714">
        <ele>188.2</ele>
        <time>2020-01-12T08:02:35Z</time>
      </trkpt>
      <trkpt lat="56.901636153361" lon="14.853934883247">
        <ele>187</ele>
        <time>2020-01-12T08:02:38Z</time>
      </trkpt>
      <trkpt lat="56.901529367955" lon="14.853744865574">
        <ele>186.4</ele>
        <time>2020-01-12T08:02:40Z</time>
      </trkpt>
      <trkpt lat="56.901410428794" lon="14.853619137074">
        <ele>185.6</ele>
        <time>2020-01-12T08:02:42Z</time>
      </trkpt>
      <trkpt lat="56.901231894324" lon="14.853479410801">
        <ele>185</ele>
        <time>2020-01-12T08:02:45Z</time>
      </trkpt>
      <trkpt lat="56.900936767625" lon="14.853251758397">
        <ele>186.6</ele>
        <time>2020-01-12T08:02:51Z</time>
      </trkpt>
      <trkpt lat="56.900899719627" lon="14.853213369295">
        <ele>187</ele>
        <time>2020-01-12T08:02:52Z</time>
      </trkpt>
      <trkpt lat="56.900730908161" lon="14.853059309973">
        <ele>188.2</ele>
        <time>2020-01-12T08:02:56Z</time>
      </trkpt>
      <trkpt lat="56.900216678596" lon="14.852699475006">
        <ele>188.6</ele>
        <time>2020-01-12T08:03:06Z</time>
      </trkpt>
      <trkpt lat="56.90016689011" lon="14.852670976546">
        <ele>188.6</ele>
        <time>2020-01-12T08:03:07Z</time>
      </trkpt>
      <trkpt lat="56.900061110532" lon="14.852640634068">
        <ele>188.4</ele>
        <time>2020-01-12T08:03:09Z</time>
      </trkpt>
      <trkpt lat="56.899561130197" lon="14.852668378157">
        <ele>188.2</ele>
        <time>2020-01-12T08:03:18Z</time>
      </trkpt>
      <trkpt lat="56.899455434438" lon="14.852699558825">
        <ele>188.6</ele>
        <time>2020-01-12T08:03:20Z</time>
      </trkpt>
      <trkpt lat="56.89936474228" lon="14.852776756124">
        <ele>189</ele>
        <time>2020-01-12T08:03:22Z</time>
      </trkpt>
      <trkpt lat="56.899288886085" lon="14.852858228192">
        <ele>189.2</ele>
        <time>2020-01-12T08:03:24Z</time>
      </trkpt>
      <trkpt lat="56.899255274666" lon="14.852900975882">
        <ele>189.4</ele>
        <time>2020-01-12T08:03:25Z</time>
      </trkpt>
      <trkpt lat="56.899130468175" lon="14.853040115422">
        <ele>189.8</ele>
        <time>2020-01-12T08:03:28Z</time>
      </trkpt>
      <trkpt lat="56.898869958723" lon="14.853389305376">
        <ele>190.4</ele>
        <time>2020-01-12T08:03:35Z</time>
      </trkpt>
      <trkpt lat="56.89839495645" lon="14.853964974268">
        <ele>190.4</ele>
        <time>2020-01-12T08:03:46Z</time>
      </trkpt>
      <trkpt lat="56.89830107917" lon="14.854093217338">
        <ele>190.6</ele>
        <time>2020-01-12T08:03:48Z</time>
      </trkpt>
      <trkpt lat="56.897789447994" lon="14.854410304615">
        <ele>191.2</ele>
        <time>2020-01-12T08:03:56Z</time>
      </trkpt>
      <trkpt lat="56.897691631221" lon="14.854442910206">
        <ele>191.4</ele>
        <time>2020-01-12T08:03:58Z</time>
      </trkpt>
      <trkpt lat="56.897323162897" lon="14.854589509637">
        <ele>192.6</ele>
        <time>2020-01-12T08:04:06Z</time>
      </trkpt>
      <trkpt lat="56.896914126177" lon="14.854781958061">
        <ele>193.6</ele>
        <time>2020-01-12T08:04:15Z</time>
      </trkpt>
      <trkpt lat="56.896710613645" lon="14.854864687414">
        <ele>193.6</ele>
        <time>2020-01-12T08:04:19Z</time>
      </trkpt>
      <trkpt lat="56.89661715546" lon="14.854798889499">
        <ele>193.6</ele>
        <time>2020-01-12T08:04:21Z</time>
      </trkpt>
      <trkpt lat="56.896527217673" lon="14.85377118474">
        <ele>193.6</ele>
        <time>2020-01-12T08:04:32Z</time>
      </trkpt>
      <trkpt lat="56.896421438095" lon="14.852702827766">
        <ele>194.2</ele>
        <time>2020-01-12T08:04:44Z</time>
      </trkpt>
      <trkpt lat="56.896403836105" lon="14.852606184459">
        <ele>194.2</ele>
        <time>2020-01-12T08:04:45Z</time>
      </trkpt>
      <trkpt lat="56.896297469794" lon="14.852138725896">
        <ele>192.6</ele>
        <time>2020-01-12T08:04:49Z</time>
      </trkpt>
      <trkpt lat="56.896067973372" lon="14.851427186405">
        <ele>193.8</ele>
        <time>2020-01-12T08:04:58Z</time>
      </trkpt>
      <trkpt lat="56.896012233737" lon="14.851287292494">
        <ele>193.8</ele>
        <time>2020-01-12T08:05:00Z</time>
      </trkpt>
      <trkpt lat="56.8959264869" lon="14.851134490457">
        <ele>193.6</ele>
        <time>2020-01-12T08:05:02Z</time>
      </trkpt>
      <trkpt lat="56.895831352335" lon="14.851022005359">
        <ele>193.2</ele>
        <time>2020-01-12T08:05:04Z</time>
      </trkpt>
      <trkpt lat="56.89575130519" lon="14.850971127226">
        <ele>192.6</ele>
        <time>2020-01-12T08:05:06Z</time>
      </trkpt>
      <trkpt lat="56.895622391568" lon="14.850939443644">
        <ele>192.4</ele>
        <time>2020-01-12T08:05:09Z</time>
      </trkpt>
      <trkpt lat="56.895359451365" lon="14.850910274632">
        <ele>193.8</ele>
        <time>2020-01-12T08:05:15Z</time>
      </trkpt>
      <trkpt lat="56.895033730731" lon="14.85079393386">
        <ele>193.8</ele>
        <time>2020-01-12T08:05:22Z</time>
      </trkpt>
      <trkpt lat="56.894780848808" lon="14.850854199721">
        <ele>194</ele>
        <time>2020-01-12T08:05:27Z</time>
      </trkpt>
      <trkpt lat="56.894683534949" lon="14.85080985947">
        <ele>194.2</ele>
        <time>2020-01-12T08:05:29Z</time>
      </trkpt>
      <trkpt lat="56.894622933812" lon="14.850666612799">
        <ele>194.4</ele>
        <time>2020-01-12T08:05:31Z</time>
      </trkpt>
      <trkpt lat="56.894518160062" lon="14.850413898514">
        <ele>194.2</ele>
        <time>2020-01-12T08:05:34Z</time>
      </trkpt>
      <trkpt lat="56.894412045208" lon="14.85027425606">
        <ele>193.6</ele>
        <time>2020-01-12T08:05:36Z</time>
      </trkpt>
      <trkpt lat="56.894315150444" lon="14.850140313298">
        <ele>192.8</ele>
        <time>2020-01-12T08:05:38Z</time>
      </trkpt>
      <trkpt lat="56.894252453832" lon="14.849992288944">
        <ele>192.4</ele>
        <time>2020-01-12T08:05:40Z</time>
      </trkpt>
      <trkpt lat="56.894204509364" lon="14.849684673214">
        <ele>194</ele>
        <time>2020-01-12T08:05:45Z</time>
      </trkpt>
      <trkpt lat="56.894224625924" lon="14.849517789585">
        <ele>195.4</ele>
        <time>2020-01-12T08:05:48Z</time>
      </trkpt>
      <trkpt lat="56.894279192093" lon="14.84925836978">
        <ele>196.6</ele>
        <time>2020-01-12T08:05:53Z</time>
      </trkpt>
      <trkpt lat="56.894311462408" lon="14.849095593282">
        <ele>197.6</ele>
        <time>2020-01-12T08:05:57Z</time>
      </trkpt>
      <trkpt lat="56.894338368307" lon="14.848927703825">
        <ele>198.6</ele>
        <time>2020-01-12T08:06:01Z</time>
      </trkpt>
      <trkpt lat="56.894341637248" lon="14.848818487668">
        <ele>199.6</ele>
        <time>2020-01-12T08:06:03Z</time>
      </trkpt>
      <trkpt lat="56.894326717466" lon="14.848625955425">
        <ele>201</ele>
        <time>2020-01-12T08:06:06Z</time>
      </trkpt>
      <trkpt lat="56.894269720546" lon="14.848353627494">
        <ele>201.8</ele>
        <time>2020-01-12T08:06:10Z</time>
      </trkpt>
      <trkpt lat="56.894204257907" lon="14.848047520506">
        <ele>201.2</ele>
        <time>2020-01-12T08:06:13Z</time>
      </trkpt>
      <trkpt lat="56.894111889369" lon="14.847792794565">
        <ele>200</ele>
        <time>2020-01-12T08:06:15Z</time>
      </trkpt>
      <trkpt lat="56.894062436159" lon="14.847676202336">
        <ele>198.8</ele>
        <time>2020-01-12T08:06:16Z</time>
      </trkpt>
      <trkpt lat="56.894018598822" lon="14.847579307572">
        <ele>197.6</ele>
        <time>2020-01-12T08:06:17Z</time>
      </trkpt>
      <trkpt lat="56.893929499225" lon="14.847401695111">
        <ele>196.2</ele>
        <time>2020-01-12T08:06:19Z</time>
      </trkpt>
      <trkpt lat="56.893874849237" lon="14.847306979641">
        <ele>195.8</ele>
        <time>2020-01-12T08:06:20Z</time>
      </trkpt>
      <trkpt lat="56.893750629479" lon="14.847167421006">
        <ele>195.2</ele>
        <time>2020-01-12T08:06:22Z</time>
      </trkpt>
      <trkpt lat="56.893687178496" lon="14.847122074927">
        <ele>194.8</ele>
        <time>2020-01-12T08:06:23Z</time>
      </trkpt>
      <trkpt lat="56.893501938506" lon="14.847044374714">
        <ele>193.6</ele>
        <time>2020-01-12T08:06:26Z</time>
      </trkpt>
      <trkpt lat="56.893145204842" lon="14.846937170213">
        <ele>194.6</ele>
        <time>2020-01-12T08:06:33Z</time>
      </trkpt>
      <trkpt lat="56.892954013703" lon="14.846918394757">
        <ele>195.2</ele>
        <time>2020-01-12T08:06:36Z</time>
      </trkpt>
      <trkpt lat="56.892789393187" lon="14.84685360267">
        <ele>195.2</ele>
        <time>2020-01-12T08:06:38Z</time>
      </trkpt>
      <trkpt lat="56.892683865066" lon="14.846693676018">
        <ele>195.2</ele>
        <time>2020-01-12T08:06:40Z</time>
      </trkpt>
      <trkpt lat="56.892453698092" lon="14.845716262659">
        <ele>193.8</ele>
        <time>2020-01-12T08:06:49Z</time>
      </trkpt>
      <trkpt lat="56.892421092501" lon="14.845621211913">
        <ele>193.6</ele>
        <time>2020-01-12T08:06:50Z</time>
      </trkpt>
      <trkpt lat="56.892365352866" lon="14.845493974671">
        <ele>193.2</ele>
        <time>2020-01-12T08:06:52Z</time>
      </trkpt>
      <trkpt lat="56.892260662935" lon="14.845454831198">
        <ele>192.6</ele>
        <time>2020-01-12T08:06:54Z</time>
      </trkpt>
      <trkpt lat="56.891865037255" lon="14.84553764437">
        <ele>191.4</ele>
        <time>2020-01-12T08:06:59Z</time>
      </trkpt>
      <trkpt lat="56.891714246874" lon="14.845480563631">
        <ele>191</ele>
        <time>2020-01-12T08:07:01Z</time>
      </trkpt>
      <trkpt lat="56.891558427353" lon="14.845293814899">
        <ele>190.8</ele>
        <time>2020-01-12T08:07:04Z</time>
      </trkpt>
      <trkpt lat="56.891515679663" lon="14.845086949607">
        <ele>191</ele>
        <time>2020-01-12T08:07:06Z</time>
      </trkpt>
      <trkpt lat="56.891443427685" lon="14.844842617222">
        <ele>191.4</ele>
        <time>2020-01-12T08:07:09Z</time>
      </trkpt>
      <trkpt lat="56.891420796555" lon="14.844620748329">
        <ele>192.8</ele>
        <time>2020-01-12T08:07:12Z</time>
      </trkpt>
      <trkpt lat="56.891412749931" lon="14.844438861099">
        <ele>193.8</ele>
        <time>2020-01-12T08:07:14Z</time>
      </trkpt>
      <trkpt lat="56.891378970874" lon="14.843896300712">
        <ele>194</ele>
        <time>2020-01-12T08:07:19Z</time>
      </trkpt>
      <trkpt lat="56.891360195418" lon="14.843619362736">
        <ele>193</ele>
        <time>2020-01-12T08:07:21Z</time>
      </trkpt>
      <trkpt lat="56.89135248407" lon="14.843451892374">
        <ele>192.2</ele>
        <time>2020-01-12T08:07:22Z</time>
      </trkpt>
      <trkpt lat="56.891335804089" lon="14.843338317629">
        <ele>191.4</ele>
        <time>2020-01-12T08:07:23Z</time>
      </trkpt>
      <trkpt lat="56.891304204326" lon="14.843235723173">
        <ele>190.8</ele>
        <time>2020-01-12T08:07:24Z</time>
      </trkpt>
      <trkpt lat="56.891279729178" lon="14.843162046272">
        <ele>190.6</ele>
        <time>2020-01-12T08:07:25Z</time>
      </trkpt>
      <trkpt lat="56.89100295884" lon="14.842467857314">
        <ele>192.4</ele>
        <time>2020-01-12T08:07:34Z</time>
      </trkpt>
      <trkpt lat="56.890937999115" lon="14.842318240399">
        <ele>193.4</ele>
        <time>2020-01-12T08:07:36Z</time>
      </trkpt>
      <trkpt lat="56.890876643607" lon="14.842199552695">
        <ele>194.4</ele>
        <time>2020-01-12T08:07:38Z</time>
      </trkpt>
      <trkpt lat="56.890837248677" lon="14.842151524408">
        <ele>195</ele>
        <time>2020-01-12T08:07:39Z</time>
      </trkpt>
      <trkpt lat="56.890779916481" lon="14.842041721518">
        <ele>195.8</ele>
        <time>2020-01-12T08:07:41Z</time>
      </trkpt>
      <trkpt lat="56.890582019822" lon="14.84170711607">
        <ele>196</ele>
        <time>2020-01-12T08:07:46Z</time>
      </trkpt>
      <trkpt lat="56.89048160466" lon="14.841587590176">
        <ele>195.6</ele>
        <time>2020-01-12T08:07:48Z</time>
      </trkpt>
      <trkpt lat="56.890346739889" lon="14.841492204154">
        <ele>194.4</ele>
        <time>2020-01-12T08:07:50Z</time>
      </trkpt>
      <trkpt lat="56.89021757481" lon="14.841405451489">
        <ele>193.4</ele>
        <time>2020-01-12T08:07:52Z</time>
      </trkpt>
      <trkpt lat="56.890096288717" lon="14.841343760705">
        <ele>193</ele>
        <time>2020-01-12T08:07:54Z</time>
      </trkpt>
      <trkpt lat="56.889991598786" lon="14.841309227277">
        <ele>193.2</ele>
        <time>2020-01-12T08:07:56Z</time>
      </trkpt>
      <trkpt lat="56.889845669907" lon="14.841228928675">
        <ele>194.4</ele>
        <time>2020-01-12T08:08:00Z</time>
      </trkpt>
      <trkpt lat="56.88977501049" lon="14.841155922326">
        <ele>195.8</ele>
        <time>2020-01-12T08:08:03Z</time>
      </trkpt>
      <trkpt lat="56.889711056593" lon="14.841061374494">
        <ele>196.8</ele>
        <time>2020-01-12T08:08:06Z</time>
      </trkpt>
      <trkpt lat="56.889597649486" lon="14.840925420076">
        <ele>197.6</ele>
        <time>2020-01-12T08:08:10Z</time>
      </trkpt>
      <trkpt lat="56.889367566331" lon="14.840777647179">
        <ele>196</ele>
        <time>2020-01-12T08:08:14Z</time>
      </trkpt>
      <trkpt lat="56.889321298243" lon="14.840757111524">
        <ele>195.8</ele>
        <time>2020-01-12T08:08:15Z</time>
      </trkpt>
      <trkpt lat="56.889282070951" lon="14.840725847037">
        <ele>195.6</ele>
        <time>2020-01-12T08:08:16Z</time>
      </trkpt>
      <trkpt lat="56.889202107625" lon="14.840599699442">
        <ele>195.4</ele>
        <time>2020-01-12T08:08:18Z</time>
      </trkpt>
      <trkpt lat="56.889080486256" lon="14.840450166346">
        <ele>195.2</ele>
        <time>2020-01-12T08:08:21Z</time>
      </trkpt>
      <trkpt lat="56.888976299239" lon="14.840378668739">
        <ele>194.8</ele>
        <time>2020-01-12T08:08:23Z</time>
      </trkpt>
      <trkpt lat="56.888588552545" lon="14.840091840121">
        <ele>195</ele>
        <time>2020-01-12T08:08:30Z</time>
      </trkpt>
      <trkpt lat="56.888427955341" lon="14.840010535691">
        <ele>195.2</ele>
        <time>2020-01-12T08:08:33Z</time>
      </trkpt>
      <trkpt lat="56.888355619544" lon="14.83993182965">
        <ele>195.6</ele>
        <time>2020-01-12T08:08:35Z</time>
      </trkpt>
      <trkpt lat="56.888310860198" lon="14.839836778904">
        <ele>195.8</ele>
        <time>2020-01-12T08:08:37Z</time>
      </trkpt>
      <trkpt lat="56.888160740369" lon="14.83970216559">
        <ele>196.2</ele>
        <time>2020-01-12T08:08:40Z</time>
      </trkpt>
      <trkpt lat="56.887993605283" lon="14.839503933655">
        <ele>196.6</ele>
        <time>2020-01-12T08:08:44Z</time>
      </trkpt>
      <trkpt lat="56.887925208979" lon="14.839347359763">
        <ele>197.2</ele>
        <time>2020-01-12T08:08:46Z</time>
      </trkpt>
      <trkpt lat="56.88786561367" lon="14.839153737873">
        <ele>197.4</ele>
        <time>2020-01-12T08:08:48Z</time>
      </trkpt>
      <trkpt lat="56.887822530704" lon="14.83889247405">
        <ele>196.8</ele>
        <time>2020-01-12T08:08:53Z</time>
      </trkpt>
      <trkpt lat="56.887565122555" lon="14.839117528065">
        <ele>196.6</ele>
        <time>2020-01-12T08:09:00Z</time>
      </trkpt>
      <trkpt lat="56.887302852904" lon="14.839188438939">
        <ele>196.6</ele>
        <time>2020-01-12T08:09:04Z</time>
      </trkpt>
      <trkpt lat="56.887031949896" lon="14.83916320942">
        <ele>196.2</ele>
        <time>2020-01-12T08:09:07Z</time>
      </trkpt>
      <trkpt lat="56.886950645466" lon="14.839129011268">
        <ele>196</ele>
        <time>2020-01-12T08:09:08Z</time>
      </trkpt>
      <trkpt lat="56.88682793445" lon="14.839016861446">
        <ele>195.8</ele>
        <time>2020-01-12T08:09:10Z</time>
      </trkpt>
      <trkpt lat="56.88660413772" lon="14.838737325081">
        <ele>196.6</ele>
        <time>2020-01-12T08:09:15Z</time>
      </trkpt>
      <trkpt lat="56.886410683468" lon="14.838425099306">
        <ele>197</ele>
        <time>2020-01-12T08:09:20Z</time>
      </trkpt>
      <trkpt lat="56.886249918626" lon="14.838187137165">
        <ele>197.2</ele>
        <time>2020-01-12T08:09:24Z</time>
      </trkpt>
      <trkpt lat="56.8860693725" lon="14.837985803927">
        <ele>197.4</ele>
        <time>2020-01-12T08:09:28Z</time>
      </trkpt>
      <trkpt lat="56.885605601973" lon="14.837547682014">
        <ele>195.8</ele>
        <time>2020-01-12T08:09:36Z</time>
      </trkpt>
      <trkpt lat="56.885405442201" lon="14.837389431742">
        <ele>194.4</ele>
        <time>2020-01-12T08:09:39Z</time>
      </trkpt>
      <trkpt lat="56.885274349285" lon="14.837254231695">
        <ele>193.2</ele>
        <time>2020-01-12T08:09:41Z</time>
      </trkpt>
      <trkpt lat="56.885158679065" lon="14.837058179054">
        <ele>192.4</ele>
        <time>2020-01-12T08:09:43Z</time>
      </trkpt>
      <trkpt lat="56.885105118724" lon="14.836951645105">
        <ele>192</ele>
        <time>2020-01-12T08:09:44Z</time>
      </trkpt>
      <trkpt lat="56.884935888163" lon="14.836663391564">
        <ele>190.8</ele>
        <time>2020-01-12T08:09:47Z</time>
      </trkpt>
      <trkpt lat="56.884466417944" lon="14.835996695238">
        <ele>190.2</ele>
        <time>2020-01-12T08:09:56Z</time>
      </trkpt>
      <trkpt lat="56.88417003396" lon="14.835600566644">
        <ele>189.8</ele>
        <time>2020-01-12T08:10:01Z</time>
      </trkpt>
      <trkpt lat="56.884016142276" lon="14.835425217296">
        <ele>188.4</ele>
        <time>2020-01-12T08:10:03Z</time>
      </trkpt>
      <trkpt lat="56.883878008564" lon="14.835231930682">
        <ele>186.4</ele>
        <time>2020-01-12T08:10:05Z</time>
      </trkpt>
      <trkpt lat="56.883808103518" lon="14.835146435302">
        <ele>185.4</ele>
        <time>2020-01-12T08:10:06Z</time>
      </trkpt>
      <trkpt lat="56.883742054146" lon="14.835070662926">
        <ele>184.8</ele>
        <time>2020-01-12T08:10:07Z</time>
      </trkpt>
      <trkpt lat="56.883601405864" lon="14.834975109266">
        <ele>184.4</ele>
        <time>2020-01-12T08:10:09Z</time>
      </trkpt>
      <trkpt lat="56.883533931569" lon="14.834942838951">
        <ele>184.2</ele>
        <time>2020-01-12T08:10:10Z</time>
      </trkpt>
      <trkpt lat="56.883377609134" lon="14.834857846485">
        <ele>184.4</ele>
        <time>2020-01-12T08:10:13Z</time>
      </trkpt>
      <trkpt lat="56.883257664145" lon="14.834806465438">
        <ele>184.4</ele>
        <time>2020-01-12T08:10:15Z</time>
      </trkpt>
      <trkpt lat="56.883136629509" lon="14.83471744966">
        <ele>184.4</ele>
        <time>2020-01-12T08:10:17Z</time>
      </trkpt>
      <trkpt lat="56.88297477502" lon="14.834513015119">
        <ele>185</ele>
        <time>2020-01-12T08:10:20Z</time>
      </trkpt>
      <trkpt lat="56.882849633253" lon="14.834306568922">
        <ele>185.2</ele>
        <time>2020-01-12T08:10:23Z</time>
      </trkpt>
      <trkpt lat="56.882440764171" lon="14.833645991383">
        <ele>184</ele>
        <time>2020-01-12T08:10:32Z</time>
      </trkpt>
      <trkpt lat="56.882238676562" lon="14.83334197987">
        <ele>183</ele>
        <time>2020-01-12T08:10:35Z</time>
      </trkpt>
      <trkpt lat="56.882113031881" lon="14.833126397402">
        <ele>182</ele>
        <time>2020-01-12T08:10:37Z</time>
      </trkpt>
      <trkpt lat="56.881996104376" lon="14.832916346988">
        <ele>180.8</ele>
        <time>2020-01-12T08:10:39Z</time>
      </trkpt>
      <trkpt lat="56.881902310915" lon="14.832697579398">
        <ele>180</ele>
        <time>2020-01-12T08:10:41Z</time>
      </trkpt>
      <trkpt lat="56.88186920241" lon="14.832573694916">
        <ele>179.6</ele>
        <time>2020-01-12T08:10:42Z</time>
      </trkpt>
      <trkpt lat="56.881725117549" lon="14.83215007369">
        <ele>179</ele>
        <time>2020-01-12T08:10:46Z</time>
      </trkpt>
      <trkpt lat="56.881673820321" lon="14.831956619438">
        <ele>179</ele>
        <time>2020-01-12T08:10:48Z</time>
      </trkpt>
      <trkpt lat="56.881595365737" lon="14.831818066631">
        <ele>179.2</ele>
        <time>2020-01-12T08:10:50Z</time>
      </trkpt>
      <trkpt lat="56.88150542795" lon="14.831813540405">
        <ele>179.4</ele>
        <time>2020-01-12T08:10:52Z</time>
      </trkpt>
      <trkpt lat="56.88143250542" lon="14.831894174283">
        <ele>179.6</ele>
        <time>2020-01-12T08:10:54Z</time>
      </trkpt>
      <trkpt lat="56.880891202318" lon="14.832110762579">
        <ele>179.4</ele>
        <time>2020-01-12T08:11:05Z</time>
      </trkpt>
      <trkpt lat="56.880527763134" lon="14.832230707568">
        <ele>178.4</ele>
        <time>2020-01-12T08:11:11Z</time>
      </trkpt>
      <trkpt lat="56.880061813313" lon="14.832464562578">
        <ele>178.4</ele>
        <time>2020-01-12T08:11:18Z</time>
      </trkpt>
      <trkpt lat="56.879505590429" lon="14.83271417556">
        <ele>178.8</ele>
        <time>2020-01-12T08:11:27Z</time>
      </trkpt>
      <trkpt lat="56.879260336035" lon="14.832695400104">
        <ele>179.4</ele>
        <time>2020-01-12T08:11:32Z</time>
      </trkpt>
      <trkpt lat="56.879217504526" lon="14.832672768974">
        <ele>179.8</ele>
        <time>2020-01-12T08:11:33Z</time>
      </trkpt>
      <trkpt lat="56.878880552146" lon="14.83254402299">
        <ele>180.6</ele>
        <time>2020-01-12T08:11:40Z</time>
      </trkpt>
      <trkpt lat="56.878784830848" lon="14.832615939692">
        <ele>180.2</ele>
        <time>2020-01-12T08:11:42Z</time>
      </trkpt>
      <trkpt lat="56.878690450654" lon="14.832734459758">
        <ele>180</ele>
        <time>2020-01-12T08:11:44Z</time>
      </trkpt>
      <trkpt lat="56.878612415165" lon="14.832883909035">
        <ele>179.6</ele>
        <time>2020-01-12T08:11:46Z</time>
      </trkpt>
      <trkpt lat="56.878444525708" lon="14.833165205599">
        <ele>179.6</ele>
        <time>2020-01-12T08:11:50Z</time>
      </trkpt>
      <trkpt lat="56.878374704481" lon="14.833337034549">
        <ele>179.6</ele>
        <time>2020-01-12T08:11:52Z</time>
      </trkpt>
      <trkpt lat="56.877952172902" lon="14.833998450278">
        <ele>179.4</ele>
        <time>2020-01-12T08:12:01Z</time>
      </trkpt>
      <trkpt lat="56.87779392263" lon="14.83417681711">
        <ele>179.2</ele>
        <time>2020-01-12T08:12:04Z</time>
      </trkpt>
      <trkpt lat="56.877682862455" lon="14.834243453215">
        <ele>179</ele>
        <time>2020-01-12T08:12:06Z</time>
      </trkpt>
      <trkpt lat="56.877625111164" lon="14.834244291405">
        <ele>178.8</ele>
        <time>2020-01-12T08:12:07Z</time>
      </trkpt>
      <trkpt lat="56.877567108416" lon="14.834235741867">
        <ele>178.6</ele>
        <time>2020-01-12T08:12:08Z</time>
      </trkpt>
      <trkpt lat="56.877365356083" lon="14.834169692495">
        <ele>178.2</ele>
        <time>2020-01-12T08:12:11Z</time>
      </trkpt>
      <trkpt lat="56.877244405266" lon="14.834090651178">
        <ele>178.4</ele>
        <time>2020-01-12T08:12:13Z</time>
      </trkpt>
      <trkpt lat="56.877140469706" lon="14.833990655111">
        <ele>178.6</ele>
        <time>2020-01-12T08:12:15Z</time>
      </trkpt>
      <trkpt lat="56.877046424788" lon="14.833996103346">
        <ele>178.4</ele>
        <time>2020-01-12T08:12:17Z</time>
      </trkpt>
      <trkpt lat="56.876976855018" lon="14.834137925094">
        <ele>178.2</ele>
        <time>2020-01-12T08:12:19Z</time>
      </trkpt>
      <trkpt lat="56.876712992806" lon="14.834808560913">
        <ele>179.2</ele>
        <time>2020-01-12T08:12:28Z</time>
      </trkpt>
      <trkpt lat="56.8766229712" lon="14.835032273824">
        <ele>180</ele>
        <time>2020-01-12T08:12:31Z</time>
      </trkpt>
      <trkpt lat="56.876275289988" lon="14.835817741673">
        <ele>180.2</ele>
        <time>2020-01-12T08:12:41Z</time>
      </trkpt>
      <trkpt lat="56.876240505103" lon="14.835878091353">
        <ele>180.2</ele>
        <time>2020-01-12T08:12:42Z</time>
      </trkpt>
      <trkpt lat="56.876158027207" lon="14.835950259512">
        <ele>180</ele>
        <time>2020-01-12T08:12:44Z</time>
      </trkpt>
      <trkpt lat="56.875904055637" lon="14.836052853968">
        <ele>179.8</ele>
        <time>2020-01-12T08:12:49Z</time>
      </trkpt>
      <trkpt lat="56.875801628819" lon="14.836048746837">
        <ele>179.6</ele>
        <time>2020-01-12T08:12:51Z</time>
      </trkpt>
      <trkpt lat="56.875662573098" lon="14.835933830988">
        <ele>179.4</ele>
        <time>2020-01-12T08:12:54Z</time>
      </trkpt>
      <trkpt lat="56.875575568976" lon="14.835908433831">
        <ele>179.6</ele>
        <time>2020-01-12T08:12:56Z</time>
      </trkpt>
      <trkpt lat="56.875169298283" lon="14.835944727458">
        <ele>180.8</ele>
        <time>2020-01-12T08:13:05Z</time>
      </trkpt>
      <trkpt lat="56.875080031048" lon="14.835914804075">
        <ele>181</ele>
        <time>2020-01-12T08:13:07Z</time>
      </trkpt>
      <trkpt lat="56.875032254218" lon="14.835915977541">
        <ele>181.2</ele>
        <time>2020-01-12T08:13:08Z</time>
      </trkpt>
      <trkpt lat="56.874874590679" lon="14.835984457664">
        <ele>181.6</ele>
        <time>2020-01-12T08:13:11Z</time>
      </trkpt>
      <trkpt lat="56.874767050902" lon="14.836136756787">
        <ele>181.6</ele>
        <time>2020-01-12T08:13:14Z</time>
      </trkpt>
      <trkpt lat="56.874689099232" lon="14.836257456147">
        <ele>181.6</ele>
        <time>2020-01-12T08:13:16Z</time>
      </trkpt>
      <trkpt lat="56.874595808685" lon="14.836333312342">
        <ele>181.8</ele>
        <time>2020-01-12T08:13:18Z</time>
      </trkpt>
      <trkpt lat="56.874415094921" lon="14.8364156226">
        <ele>182.2</ele>
        <time>2020-01-12T08:13:22Z</time>
      </trkpt>
      <trkpt lat="56.874060540551" lon="14.836580662211">
        <ele>182.6</ele>
        <time>2020-01-12T08:13:29Z</time>
      </trkpt>
      <trkpt lat="56.873493505016" lon="14.836632797629">
        <ele>181.8</ele>
        <time>2020-01-12T08:13:39Z</time>
      </trkpt>
      <trkpt lat="56.873259230911" lon="14.836827257709">
        <ele>183</ele>
        <time>2020-01-12T08:13:45Z</time>
      </trkpt>
      <trkpt lat="56.873163341975" lon="14.836858689834">
        <ele>183.2</ele>
        <time>2020-01-12T08:13:47Z</time>
      </trkpt>
      <trkpt lat="56.873111960928" lon="14.836860952947">
        <ele>183.4</ele>
        <time>2020-01-12T08:13:48Z</time>
      </trkpt>
      <trkpt lat="56.872977850528" lon="14.836852403409">
        <ele>183.8</ele>
        <time>2020-01-12T08:13:51Z</time>
      </trkpt>
      <trkpt lat="56.872889924397" lon="14.836884673724">
        <ele>184.4</ele>
        <time>2020-01-12T08:13:53Z</time>
      </trkpt>
      <trkpt lat="56.872843907766" lon="14.836889451407">
        <ele>184.6</ele>
        <time>2020-01-12T08:13:54Z</time>
      </trkpt>
      <trkpt lat="56.872752377418" lon="14.836866317363">
        <ele>184.8</ele>
        <time>2020-01-12T08:13:56Z</time>
      </trkpt>
      <trkpt lat="56.872639389406" lon="14.836872939064">
        <ele>185</ele>
        <time>2020-01-12T08:13:58Z</time>
      </trkpt>
      <trkpt lat="56.872375191918" lon="14.836947370336">
        <ele>184.4</ele>
        <time>2020-01-12T08:14:02Z</time>
      </trkpt>
      <trkpt lat="56.872190371023" lon="14.837061196538">
        <ele>183.2</ele>
        <time>2020-01-12T08:14:05Z</time>
      </trkpt>
      <trkpt lat="56.871882587655" lon="14.83708785098">
        <ele>182.2</ele>
        <time>2020-01-12T08:14:10Z</time>
      </trkpt>
      <trkpt lat="56.871818717577" lon="14.837069159343">
        <ele>181.8</ele>
        <time>2020-01-12T08:14:11Z</time>
      </trkpt>
      <trkpt lat="56.871758619354" lon="14.837025070549">
        <ele>181.6</ele>
        <time>2020-01-12T08:14:12Z</time>
      </trkpt>
      <trkpt lat="56.871640350745" lon="14.836906382845">
        <ele>181</ele>
        <time>2020-01-12T08:14:14Z</time>
      </trkpt>
      <trkpt lat="56.871574971925" lon="14.836877632928">
        <ele>180.6</ele>
        <time>2020-01-12T08:14:15Z</time>
      </trkpt>
      <trkpt lat="56.871509509286" lon="14.836881404783">
        <ele>180.4</ele>
        <time>2020-01-12T08:14:16Z</time>
      </trkpt>
      <trkpt lat="56.871334998128" lon="14.837029680594">
        <ele>179.8</ele>
        <time>2020-01-12T08:14:19Z</time>
      </trkpt>
      <trkpt lat="56.871196445321" lon="14.836980311203">
        <ele>179.8</ele>
        <time>2020-01-12T08:14:21Z</time>
      </trkpt>
      <trkpt lat="56.871108435371" lon="14.836820384551">
        <ele>179.8</ele>
        <time>2020-01-12T08:14:23Z</time>
      </trkpt>
      <trkpt lat="56.871031238072" lon="14.836616452924">
        <ele>179.6</ele>
        <time>2020-01-12T08:14:25Z</time>
      </trkpt>
      <trkpt lat="56.870872568705" lon="14.836290313195">
        <ele>177.8</ele>
        <time>2020-01-12T08:14:28Z</time>
      </trkpt>
      <trkpt lat="56.870827809359" lon="14.836196603553">
        <ele>176.8</ele>
        <time>2020-01-12T08:14:29Z</time>
      </trkpt>
      <trkpt lat="56.870801909288" lon="14.836081687704">
        <ele>176.2</ele>
        <time>2020-01-12T08:14:30Z</time>
      </trkpt>
      <trkpt lat="56.870774835751" lon="14.835853029472">
        <ele>175.8</ele>
        <time>2020-01-12T08:14:32Z</time>
      </trkpt>
      <trkpt lat="56.870706690904" lon="14.835670304052">
        <ele>175.4</ele>
        <time>2020-01-12T08:14:34Z</time>
      </trkpt>
      <trkpt lat="56.87061398709" lon="14.835547928312">
        <ele>175.6</ele>
        <time>2020-01-12T08:14:36Z</time>
      </trkpt>
      <trkpt lat="56.870502340182" lon="14.835443154562">
        <ele>175</ele>
        <time>2020-01-12T08:14:38Z</time>
      </trkpt>
      <trkpt lat="56.870354315828" lon="14.835234361433">
        <ele>174.6</ele>
        <time>2020-01-12T08:14:41Z</time>
      </trkpt>
      <trkpt lat="56.870255912322" lon="14.83517929235">
        <ele>174.2</ele>
        <time>2020-01-12T08:14:43Z</time>
      </trkpt>
      <trkpt lat="56.870134626229" lon="14.835187925707">
        <ele>174</ele>
        <time>2020-01-12T08:14:45Z</time>
      </trkpt>
      <trkpt lat="56.870076539662" lon="14.835223213506">
        <ele>174</ele>
        <time>2020-01-12T08:14:46Z</time>
      </trkpt>
      <trkpt lat="56.87002222495" lon="14.835274175458">
        <ele>173.8</ele>
        <time>2020-01-12T08:14:47Z</time>
      </trkpt>
      <trkpt lat="56.86953942751" lon="14.835720846909">
        <ele>173.8</ele>
        <time>2020-01-12T08:14:57Z</time>
      </trkpt>
      <trkpt lat="56.869270787615" lon="14.835950510969">
        <ele>175.2</ele>
        <time>2020-01-12T08:15:03Z</time>
      </trkpt>
      <trkpt lat="56.869072890956" lon="14.836117646055">
        <ele>175.6</ele>
        <time>2020-01-12T08:15:07Z</time>
      </trkpt>
      <trkpt lat="56.868962836609" lon="14.836144719592">
        <ele>175.4</ele>
        <time>2020-01-12T08:15:09Z</time>
      </trkpt>
      <trkpt lat="56.868857224669" lon="14.836043298602">
        <ele>175.4</ele>
        <time>2020-01-12T08:15:11Z</time>
      </trkpt>
      <trkpt lat="56.868694867266" lon="14.835566787587">
        <ele>174.2</ele>
        <time>2020-01-12T08:15:16Z</time>
      </trkpt>
      <trkpt lat="56.868545082713" lon="14.835202007299">
        <ele>173</ele>
        <time>2020-01-12T08:15:20Z</time>
      </trkpt>
      <trkpt lat="56.868502251204" lon="14.835116511919">
        <ele>172.8</ele>
        <time>2020-01-12T08:15:21Z</time>
      </trkpt>
      <trkpt lat="56.86829722993" lon="14.834696578729">
        <ele>172</ele>
        <time>2020-01-12T08:15:26Z</time>
      </trkpt>
      <trkpt lat="56.868225816142" lon="14.834521229381">
        <ele>171.8</ele>
        <time>2020-01-12T08:15:28Z</time>
      </trkpt>
      <trkpt lat="56.86802230361" lon="14.834131890126">
        <ele>171</ele>
        <time>2020-01-12T08:15:33Z</time>
      </trkpt>
      <trkpt lat="56.867952147107" lon="14.833977160252">
        <ele>170.8</ele>
        <time>2020-01-12T08:15:35Z</time>
      </trkpt>
      <trkpt lat="56.867596251633" lon="14.833181550304">
        <ele>170.8</ele>
        <time>2020-01-12T08:15:45Z</time>
      </trkpt>
      <trkpt lat="56.867342363882" lon="14.832600014082">
        <ele>170</ele>
        <time>2020-01-12T08:15:52Z</time>
      </trkpt>
      <trkpt lat="56.867087302665" lon="14.83207966573">
        <ele>169</ele>
        <time>2020-01-12T08:15:59Z</time>
      </trkpt>
      <trkpt lat="56.867044890251" lon="14.831901634174">
        <ele>169</ele>
        <time>2020-01-12T08:16:01Z</time>
      </trkpt>
      <trkpt lat="56.867058049834" lon="14.831642549645">
        <ele>169.2</ele>
        <time>2020-01-12T08:16:04Z</time>
      </trkpt>
      <trkpt lat="56.867001220552" lon="14.831550432564">
        <ele>169.2</ele>
        <time>2020-01-12T08:16:06Z</time>
      </trkpt>
      <trkpt lat="56.866915222258" lon="14.831602484163">
        <ele>169.6</ele>
        <time>2020-01-12T08:16:08Z</time>
      </trkpt>
      <trkpt lat="56.866472993214" lon="14.832190893543">
        <ele>169.6</ele>
        <time>2020-01-12T08:16:18Z</time>
      </trkpt>
      <trkpt lat="56.866282556446" lon="14.832402285061">
        <ele>169.6</ele>
        <time>2020-01-12T08:16:22Z</time>
      </trkpt>
      <trkpt lat="56.866172502099" lon="14.832429358598">
        <ele>169.6</ele>
        <time>2020-01-12T08:16:24Z</time>
      </trkpt>
      <trkpt lat="56.866063788856" lon="14.832385437442">
        <ele>169.6</ele>
        <time>2020-01-12T08:16:26Z</time>
      </trkpt>
      <trkpt lat="56.86564519677" lon="14.832134818632">
        <ele>168.8</ele>
        <time>2020-01-12T08:16:34Z</time>
      </trkpt>
      <trkpt lat="56.865445875188" lon="14.83212744256">
        <ele>169</ele>
        <time>2020-01-12T08:16:38Z</time>
      </trkpt>
      <trkpt lat="56.865360798903" lon="14.832187876059">
        <ele>169.2</ele>
        <time>2020-01-12T08:16:40Z</time>
      </trkpt>
      <trkpt lat="56.865297850834" lon="14.832340594277">
        <ele>169.2</ele>
        <time>2020-01-12T08:16:42Z</time>
      </trkpt>
      <trkpt lat="56.865229789806" lon="14.832530276674">
        <ele>169.2</ele>
        <time>2020-01-12T08:16:44Z</time>
      </trkpt>
      <trkpt lat="56.865084196203" lon="14.832857003136">
        <ele>169.4</ele>
        <time>2020-01-12T08:16:48Z</time>
      </trkpt>
      <trkpt lat="56.865026947826" lon="14.833058168736">
        <ele>169.6</ele>
        <time>2020-01-12T08:16:50Z</time>
      </trkpt>
      <trkpt lat="56.86476425908" lon="14.833967101972">
        <ele>169.6</ele>
        <time>2020-01-12T08:16:59Z</time>
      </trkpt>
      <trkpt lat="56.864717907173" lon="14.834174134902">
        <ele>169.6</ele>
        <time>2020-01-12T08:17:01Z</time>
      </trkpt>
      <trkpt lat="56.864651438706" lon="14.834342443454">
        <ele>169.6</ele>
        <time>2020-01-12T08:17:03Z</time>
      </trkpt>
      <trkpt lat="56.864463097413" lon="14.834548722013">
        <ele>169.4</ele>
        <time>2020-01-12T08:17:07Z</time>
      </trkpt>
      <trkpt lat="56.864130755078" lon="14.835191697562">
        <ele>170</ele>
        <time>2020-01-12T08:17:15Z</time>
      </trkpt>
      <trkpt lat="56.86391349623" lon="14.835558489506">
        <ele>169.8</ele>
        <time>2020-01-12T08:17:20Z</time>
      </trkpt>
      <trkpt lat="56.863447211133" lon="14.836166428713">
        <ele>170.2</ele>
        <time>2020-01-12T08:17:30Z</time>
      </trkpt>
      <trkpt lat="56.863339587537" lon="14.836278494716">
        <ele>170.6</ele>
        <time>2020-01-12T08:17:32Z</time>
      </trkpt>
      <trkpt lat="56.863178068324" lon="14.836456274815">
        <ele>171</ele>
        <time>2020-01-12T08:17:35Z</time>
      </trkpt>
      <trkpt lat="56.863082430845" lon="14.836595498174">
        <ele>171</ele>
        <time>2020-01-12T08:17:37Z</time>
      </trkpt>
      <trkpt lat="56.862664676949" lon="14.837350623545">
        <ele>170.8</ele>
        <time>2020-01-12T08:17:47Z</time>
      </trkpt>
      <trkpt lat="56.862421350392" lon="14.837464365928">
        <ele>170.6</ele>
        <time>2020-01-12T08:17:51Z</time>
      </trkpt>
      <trkpt lat="56.862167881736" lon="14.837458498598">
        <ele>170.4</ele>
        <time>2020-01-12T08:17:55Z</time>
      </trkpt>
      <trkpt lat="56.861724479226" lon="14.837251130392">
        <ele>170</ele>
        <time>2020-01-12T08:18:02Z</time>
      </trkpt>
      <trkpt lat="56.861612329404" lon="14.837241323569">
        <ele>170</ele>
        <time>2020-01-12T08:18:04Z</time>
      </trkpt>
      <trkpt lat="56.861479727746" lon="14.837289603313">
        <ele>170.2</ele>
        <time>2020-01-12T08:18:07Z</time>
      </trkpt>
      <trkpt lat="56.861409403605" lon="14.837267307459">
        <ele>170.6</ele>
        <time>2020-01-12T08:18:09Z</time>
      </trkpt>
      <trkpt lat="56.861024506757" lon="14.837042923996">
        <ele>171.8</ele>
        <time>2020-01-12T08:18:17Z</time>
      </trkpt>
      <trkpt lat="56.860940268662" lon="14.837067985877">
        <ele>172</ele>
        <time>2020-01-12T08:18:19Z</time>
      </trkpt>
      <trkpt lat="56.860860724431" lon="14.837160941148">
        <ele>172.2</ele>
        <time>2020-01-12T08:18:21Z</time>
      </trkpt>
      <trkpt lat="56.860528717372" lon="14.837407871922">
        <ele>172.6</ele>
        <time>2020-01-12T08:18:29Z</time>
      </trkpt>
      <trkpt lat="56.860237111071" lon="14.837493283483">
        <ele>170.8</ele>
        <time>2020-01-12T08:18:33Z</time>
      </trkpt>
      <trkpt lat="56.860116160254" lon="14.837509712007">
        <ele>170</ele>
        <time>2020-01-12T08:18:35Z</time>
      </trkpt>
      <trkpt lat="56.860045500837" lon="14.837509209093">
        <ele>169.6</ele>
        <time>2020-01-12T08:18:36Z</time>
      </trkpt>
      <trkpt lat="56.859855902259" lon="14.837499989003">
        <ele>169</ele>
        <time>2020-01-12T08:18:39Z</time>
      </trkpt>
      <trkpt lat="56.859755738554" lon="14.837460174978">
        <ele>169.4</ele>
        <time>2020-01-12T08:18:41Z</time>
      </trkpt>
      <trkpt lat="56.85962783076" lon="14.83737199739">
        <ele>170</ele>
        <time>2020-01-12T08:18:43Z</time>
      </trkpt>
      <trkpt lat="56.859541916285" lon="14.837224056855">
        <ele>170.2</ele>
        <time>2020-01-12T08:18:45Z</time>
      </trkpt>
      <trkpt lat="56.859423731495" lon="14.836940832454">
        <ele>169.6</ele>
        <time>2020-01-12T08:18:48Z</time>
      </trkpt>
      <trkpt lat="56.859153163763" lon="14.836074311632">
        <ele>169.2</ele>
        <time>2020-01-12T08:18:57Z</time>
      </trkpt>
      <trkpt lat="56.858878405081" lon="14.835293956742">
        <ele>169.2</ele>
        <time>2020-01-12T08:19:06Z</time>
      </trkpt>
      <trkpt lat="56.858590486816" lon="14.834409917749">
        <ele>170.2</ele>
        <time>2020-01-12T08:19:18Z</time>
      </trkpt>
      <trkpt lat="56.858483282315" lon="14.834091657006">
        <ele>170.6</ele>
        <time>2020-01-12T08:19:22Z</time>
      </trkpt>
      <trkpt lat="56.858428045594" lon="14.833929718698">
        <ele>170.6</ele>
        <time>2020-01-12T08:19:24Z</time>
      </trkpt>
      <trkpt lat="56.858357386177" lon="14.833802649094">
        <ele>170.6</ele>
        <time>2020-01-12T08:19:26Z</time>
      </trkpt>
      <trkpt lat="56.858275495014" lon="14.833759985223">
        <ele>170.4</ele>
        <time>2020-01-12T08:19:28Z</time>
      </trkpt>
      <trkpt lat="56.858068210627" lon="14.833977663166">
        <ele>170.8</ele>
        <time>2020-01-12T08:19:34Z</time>
      </trkpt>
      <trkpt lat="56.857973578976" lon="14.833995348975">
        <ele>171.4</ele>
        <time>2020-01-12T08:19:36Z</time>
      </trkpt>
      <trkpt lat="56.857894789116" lon="14.834073552102">
        <ele>171.8</ele>
        <time>2020-01-12T08:19:38Z</time>
      </trkpt>
      <trkpt lat="56.857862015887" lon="14.834143876243">
        <ele>172</ele>
        <time>2020-01-12T08:19:39Z</time>
      </trkpt>
      <trkpt lat="56.857811137754" lon="14.83430506018">
        <ele>172.2</ele>
        <time>2020-01-12T08:19:41Z</time>
      </trkpt>
      <trkpt lat="56.857747100038" lon="14.834618375602">
        <ele>172.4</ele>
        <time>2020-01-12T08:19:44Z</time>
      </trkpt>
      <trkpt lat="56.857691192765" lon="14.834795820425">
        <ele>172</ele>
        <time>2020-01-12T08:19:46Z</time>
      </trkpt>
      <trkpt lat="56.857612738181" lon="14.834905036582">
        <ele>171</ele>
        <time>2020-01-12T08:19:48Z</time>
      </trkpt>
      <trkpt lat="56.85757007431" lon="14.834943844779">
        <ele>170.6</ele>
        <time>2020-01-12T08:19:49Z</time>
      </trkpt>
      <trkpt lat="56.85732448464" lon="14.835146183845">
        <ele>170.8</ele>
        <time>2020-01-12T08:19:56Z</time>
      </trkpt>
      <trkpt lat="56.857118625176" lon="14.835236121632">
        <ele>171.6</ele>
        <time>2020-01-12T08:20:01Z</time>
      </trkpt>
      <trkpt lat="56.856903629441" lon="14.835291525991">
        <ele>173</ele>
        <time>2020-01-12T08:20:07Z</time>
      </trkpt>
      <trkpt lat="56.856853673317" lon="14.8353595032">
        <ele>173.8</ele>
        <time>2020-01-12T08:20:09Z</time>
      </trkpt>
      <trkpt lat="56.856825426314" lon="14.835380625588">
        <ele>174.2</ele>
        <time>2020-01-12T08:20:10Z</time>
      </trkpt>
      <trkpt lat="56.856701374194" lon="14.835526219191">
        <ele>174</ele>
        <time>2020-01-12T08:20:14Z</time>
      </trkpt>
      <trkpt lat="56.856565419776" lon="14.835612468942">
        <ele>173.4</ele>
        <time>2020-01-12T08:20:17Z</time>
      </trkpt>
      <trkpt lat="56.856468357374" lon="14.835666196921">
        <ele>173</ele>
        <time>2020-01-12T08:20:19Z</time>
      </trkpt>
      <trkpt lat="56.856338186467" lon="14.835694024829">
        <ele>172</ele>
        <time>2020-01-12T08:20:21Z</time>
      </trkpt>
      <trkpt lat="56.856273142923" lon="14.835694527743">
        <ele>171.4</ele>
        <time>2020-01-12T08:20:22Z</time>
      </trkpt>
      <trkpt lat="56.856187228448" lon="14.83569058825">
        <ele>171</ele>
        <time>2020-01-12T08:20:23Z</time>
      </trkpt>
      <trkpt lat="56.856076084454" lon="14.835672650984">
        <ele>170.4</ele>
        <time>2020-01-12T08:20:25Z</time>
      </trkpt>
      <trkpt lat="56.855954965999" lon="14.835672818622">
        <ele>170.4</ele>
        <time>2020-01-12T08:20:27Z</time>
      </trkpt>
      <trkpt lat="56.855653804332" lon="14.835706932955">
        <ele>170.4</ele>
        <time>2020-01-12T08:20:32Z</time>
      </trkpt>
      <trkpt lat="56.855474096396" lon="14.835724451126">
        <ele>170.4</ele>
        <time>2020-01-12T08:20:35Z</time>
      </trkpt>
      <trkpt lat="56.85500186015" lon="14.835822603175">
        <ele>171</ele>
        <time>2020-01-12T08:20:49Z</time>
      </trkpt>
      <trkpt lat="56.85492558486" lon="14.835870882919">
        <ele>171</ele>
        <time>2020-01-12T08:20:51Z</time>
      </trkpt>
      <trkpt lat="56.854772028452" lon="14.835920336129">
        <ele>171</ele>
        <time>2020-01-12T08:20:53Z</time>
      </trkpt>
      <trkpt lat="56.85465820225" lon="14.835923185975">
        <ele>171</ele>
        <time>2020-01-12T08:20:55Z</time>
      </trkpt>
      <trkpt lat="56.854369613433" lon="14.836005831509">
        <ele>171.4</ele>
        <time>2020-01-12T08:21:03Z</time>
      </trkpt>
      <trkpt lat="56.853804673373" lon="14.836050842312">
        <ele>172.2</ele>
        <time>2020-01-12T08:21:14Z</time>
      </trkpt>
      <trkpt lat="56.853378034663" lon="14.836125022127">
        <ele>171.8</ele>
        <time>2020-01-12T08:21:20Z</time>
      </trkpt>
      <trkpt lat="56.853263621728" lon="14.835941374698">
        <ele>172</ele>
        <time>2020-01-12T08:21:23Z</time>
      </trkpt>
      <trkpt lat="56.853178880719" lon="14.835493865057">
        <ele>172</ele>
        <time>2020-01-12T08:21:32Z</time>
      </trkpt>
      <trkpt lat="56.853145017843" lon="14.835666364559">
        <ele>172</ele>
        <time>2020-01-12T08:21:34Z</time>
      </trkpt>
      <trkpt lat="56.853128337862" lon="14.83584732978">
        <ele>172</ele>
        <time>2020-01-12T08:21:36Z</time>
      </trkpt>
      <trkpt lat="56.853088859113" lon="14.835973728832">
        <ele>171.6</ele>
        <time>2020-01-12T08:21:38Z</time>
      </trkpt>
      <trkpt lat="56.852952820876" lon="14.835999209808">
        <ele>171.4</ele>
        <time>2020-01-12T08:21:41Z</time>
      </trkpt>
      <trkpt lat="56.852577982308" lon="14.836025277517">
        <ele>170.8</ele>
        <time>2020-01-12T08:21:48Z</time>
      </trkpt>
      <trkpt lat="56.852467760323" lon="14.836095350201">
        <ele>171</ele>
        <time>2020-01-12T08:21:51Z</time>
      </trkpt>
      <trkpt lat="56.852362316021" lon="14.836237255768">
        <ele>171</ele>
        <time>2020-01-12T08:21:53Z</time>
      </trkpt>
      <trkpt lat="56.852289980224" lon="14.836425513242">
        <ele>171</ele>
        <time>2020-01-12T08:21:55Z</time>
      </trkpt>
      <trkpt lat="56.852185457931" lon="14.836529784078">
        <ele>171</ele>
        <time>2020-01-12T08:21:57Z</time>
      </trkpt>
      <trkpt lat="56.851628061581" lon="14.836616620562">
        <ele>170.6</ele>
        <time>2020-01-12T08:22:07Z</time>
      </trkpt>
      <trkpt lat="56.851573076317" lon="14.836625589195">
        <ele>170.4</ele>
        <time>2020-01-12T08:22:08Z</time>
      </trkpt>
      <trkpt lat="56.851143001028" lon="14.836854331246">
        <ele>170.6</ele>
        <time>2020-01-12T08:22:18Z</time>
      </trkpt>
      <trkpt lat="56.851103103184" lon="14.83717334636">
        <ele>169.8</ele>
        <time>2020-01-12T08:22:22Z</time>
      </trkpt>
      <trkpt lat="56.851064462625" lon="14.837317347402">
        <ele>169.6</ele>
        <time>2020-01-12T08:22:24Z</time>
      </trkpt>
      <trkpt lat="56.850615360423" lon="14.837471742">
        <ele>169.4</ele>
        <time>2020-01-12T08:22:38Z</time>
      </trkpt>
      <trkpt lat="56.850065256326" lon="14.837655054153">
        <ele>169.4</ele>
        <time>2020-01-12T08:22:52Z</time>
      </trkpt>
      <trkpt lat="56.849497131144" lon="14.837805928353">
        <ele>169.4</ele>
        <time>2020-01-12T08:23:02Z</time>
      </trkpt>
      <trkpt lat="56.848956666232" lon="14.837931992129">
        <ele>169.6</ele>
        <time>2020-01-12T08:23:10Z</time>
      </trkpt>
      <trkpt lat="56.848741586678" lon="14.837958981847">
        <ele>169.6</ele>
        <time>2020-01-12T08:23:12Z</time>
      </trkpt>
      <trkpt lat="56.848262980188" lon="14.838052775308">
        <ele>170.4</ele>
        <time>2020-01-12T08:23:17Z</time>
      </trkpt>
      <trkpt lat="56.847988472963" lon="14.838168194071">
        <ele>171.2</ele>
        <time>2020-01-12T08:23:22Z</time>
      </trkpt>
      <trkpt lat="56.847947317834" lon="14.838191495753">
        <ele>171.6</ele>
        <time>2020-01-12T08:23:23Z</time>
      </trkpt>
      <trkpt lat="56.847432333898" lon="14.838503386252">
        <ele>172.6</ele>
        <time>2020-01-12T08:23:36Z</time>
      </trkpt>
      <trkpt lat="56.847387826009" lon="14.838514366541">
        <ele>172.8</ele>
        <time>2020-01-12T08:23:37Z</time>
      </trkpt>
      <trkpt lat="56.847228402271" lon="14.838545631028">
        <ele>174</ele>
        <time>2020-01-12T08:23:41Z</time>
      </trkpt>
      <trkpt lat="56.847069062352" lon="14.838513528351">
        <ele>175</ele>
        <time>2020-01-12T08:23:45Z</time>
      </trkpt>
      <trkpt lat="56.846930006631" lon="14.838507912478">
        <ele>176.2</ele>
        <time>2020-01-12T08:23:49Z</time>
      </trkpt>
      <trkpt lat="56.846640579624" lon="14.838622660689">
        <ele>177.2</ele>
        <time>2020-01-12T08:23:57Z</time>
      </trkpt>
      <trkpt lat="56.846469169769" lon="14.838686027853">
        <ele>178.4</ele>
        <time>2020-01-12T08:24:02Z</time>
      </trkpt>
      <trkpt lat="56.846396414877" lon="14.838741264574">
        <ele>179</ele>
        <time>2020-01-12T08:24:04Z</time>
      </trkpt>
      <trkpt lat="56.846317625017" lon="14.838779653676">
        <ele>179.4</ele>
        <time>2020-01-12T08:24:06Z</time>
      </trkpt>
      <trkpt lat="56.84594689358" lon="14.839018956921">
        <ele>179.6</ele>
        <time>2020-01-12T08:24:15Z</time>
      </trkpt>
      <trkpt lat="56.845510364228" lon="14.839224816385">
        <ele>178.6</ele>
        <time>2020-01-12T08:24:23Z</time>
      </trkpt>
      <trkpt lat="56.845439118078" lon="14.839353981464">
        <ele>178.6</ele>
        <time>2020-01-12T08:24:25Z</time>
      </trkpt>
      <trkpt lat="56.845329063731" lon="14.839572749054">
        <ele>179</ele>
        <time>2020-01-12T08:24:28Z</time>
      </trkpt>
      <trkpt lat="56.845246669654" lon="14.839652544742">
        <ele>179.2</ele>
        <time>2020-01-12T08:24:30Z</time>
      </trkpt>
      <trkpt lat="56.8450315901" lon="14.839777854147">
        <ele>180</ele>
        <time>2020-01-12T08:24:35Z</time>
      </trkpt>
      <trkpt lat="56.844776947978" lon="14.839853291247">
        <ele>180.4</ele>
        <time>2020-01-12T08:24:42Z</time>
      </trkpt>
      <trkpt lat="56.844501686382" lon="14.839918753886">
        <ele>179.2</ele>
        <time>2020-01-12T08:24:48Z</time>
      </trkpt>
      <trkpt lat="56.843984774609" lon="14.840201894468">
        <ele>180.2</ele>
        <time>2020-01-12T08:25:01Z</time>
      </trkpt>
      <trkpt lat="56.843720996216" lon="14.840282025432">
        <ele>180.4</ele>
        <time>2020-01-12T08:25:06Z</time>
      </trkpt>
      <trkpt lat="56.843631728981" lon="14.840285294373">
        <ele>180.6</ele>
        <time>2020-01-12T08:25:07Z</time>
      </trkpt>
      <trkpt lat="56.843551933293" lon="14.840266016003">
        <ele>180.8</ele>
        <time>2020-01-12T08:25:08Z</time>
      </trkpt>
      <trkpt lat="56.843429306096" lon="14.840156045475">
        <ele>181</ele>
        <time>2020-01-12T08:25:10Z</time>
      </trkpt>
      <trkpt lat="56.843090090603" lon="14.839402847941">
        <ele>181.6</ele>
        <time>2020-01-12T08:25:19Z</time>
      </trkpt>
      <trkpt lat="56.843052874967" lon="14.839317604018">
        <ele>181.8</ele>
        <time>2020-01-12T08:25:20Z</time>
      </trkpt>
      <trkpt lat="56.842838717422" lon="14.839018286369">
        <ele>182.8</ele>
        <time>2020-01-12T08:25:26Z</time>
      </trkpt>
      <trkpt lat="56.842661607875" lon="14.838948213685">
        <ele>183.8</ele>
        <time>2020-01-12T08:25:30Z</time>
      </trkpt>
      <trkpt lat="56.842622045307" lon="14.838927510392">
        <ele>184</ele>
        <time>2020-01-12T08:25:31Z</time>
      </trkpt>
      <trkpt lat="56.842569490794" lon="14.838853330577">
        <ele>184.4</ele>
        <time>2020-01-12T08:25:33Z</time>
      </trkpt>
      <trkpt lat="56.842438565516" lon="14.838623079784">
        <ele>185.2</ele>
        <time>2020-01-12T08:25:39Z</time>
      </trkpt>
      <trkpt lat="56.842332115386" lon="14.838533225816">
        <ele>186.4</ele>
        <time>2020-01-12T08:25:44Z</time>
      </trkpt>
      <trkpt lat="56.842210158741" lon="14.838522916079">
        <ele>187.2</ele>
        <time>2020-01-12T08:25:50Z</time>
      </trkpt>
      <trkpt lat="56.842080574567" lon="14.83848846647">
        <ele>187.2</ele>
        <time>2020-01-12T08:25:53Z</time>
      </trkpt>
      <trkpt lat="56.842021733629" lon="14.838405569479">
        <ele>187.6</ele>
        <time>2020-01-12T08:25:55Z</time>
      </trkpt>
      <trkpt lat="56.84196213832" lon="14.838239021126">
        <ele>189</ele>
        <time>2020-01-12T08:25:59Z</time>
      </trkpt>
      <trkpt lat="56.841869769782" lon="14.838063085045">
        <ele>190.2</ele>
        <time>2020-01-12T08:26:03Z</time>
      </trkpt>
      <trkpt lat="56.841777233606" lon="14.83757903032">
        <ele>191.2</ele>
        <time>2020-01-12T08:26:11Z</time>
      </trkpt>
      <trkpt lat="56.841822747323" lon="14.83731164771">
        <ele>192.2</ele>
        <time>2020-01-12T08:26:16Z</time>
      </trkpt>
      <trkpt lat="56.841852083973" lon="14.837093802129">
        <ele>193.4</ele>
        <time>2020-01-12T08:26:21Z</time>
      </trkpt>
      <trkpt lat="56.841918300983" lon="14.836813259936">
        <ele>194.4</ele>
        <time>2020-01-12T08:26:27Z</time>
      </trkpt>
      <trkpt lat="56.841923413942" lon="14.836761459794">
        <ele>194.8</ele>
        <time>2020-01-12T08:26:28Z</time>
      </trkpt>
      <trkpt lat="56.841955684257" lon="14.836555432692">
        <ele>195.6</ele>
        <time>2020-01-12T08:26:32Z</time>
      </trkpt>
      <trkpt lat="56.84200823877" lon="14.836248655152">
        <ele>196.8</ele>
        <time>2020-01-12T08:26:38Z</time>
      </trkpt>
      <trkpt lat="56.842046376415" lon="14.836037431272">
        <ele>197.8</ele>
        <time>2020-01-12T08:26:42Z</time>
      </trkpt>
      <trkpt lat="56.842084178784" lon="14.835873816584">
        <ele>198.8</ele>
        <time>2020-01-12T08:26:45Z</time>
      </trkpt>
      <trkpt lat="56.842256594467" lon="14.834909646627">
        <ele>198.8</ele>
        <time>2020-01-12T08:26:59Z</time>
      </trkpt>
      <trkpt lat="56.842443175561" lon="14.833940279892">
        <ele>199.2</ele>
        <time>2020-01-12T08:27:11Z</time>
      </trkpt>
      <trkpt lat="56.842520708136" lon="14.833530907896">
        <ele>198.6</ele>
        <time>2020-01-12T08:27:16Z</time>
      </trkpt>
      <trkpt lat="56.842602012566" lon="14.833101838435">
        <ele>199.2</ele>
        <time>2020-01-12T08:27:21Z</time>
      </trkpt>
      <trkpt lat="56.842690190154" lon="14.832674026259">
        <ele>199.6</ele>
        <time>2020-01-12T08:27:27Z</time>
      </trkpt>
      <trkpt lat="56.842748863454" lon="14.832574533106">
        <ele>199.8</ele>
        <time>2020-01-12T08:27:29Z</time>
      </trkpt>
      <trkpt lat="56.842780547036" lon="14.832531533959">
        <ele>200</ele>
        <time>2020-01-12T08:27:30Z</time>
      </trkpt>
      <trkpt lat="56.843332495151" lon="14.832359788828">
        <ele>201</ele>
        <time>2020-01-12T08:27:45Z</time>
      </trkpt>
      <trkpt lat="56.84388075523" lon="14.832473698849">
        <ele>201.6</ele>
        <time>2020-01-12T08:27:55Z</time>
      </trkpt>
      <trkpt lat="56.843968010809" lon="14.832427430761">
        <ele>201.6</ele>
        <time>2020-01-12T08:27:57Z</time>
      </trkpt>
      <trkpt lat="56.844350728363" lon="14.83204613813">
        <ele>202.4</ele>
        <time>2020-01-12T08:28:05Z</time>
      </trkpt>
      <trkpt lat="56.844644933053" lon="14.831702312592">
        <ele>203</ele>
        <time>2020-01-12T08:28:12Z</time>
      </trkpt>
      <trkpt lat="56.844707378208" lon="14.831582199965">
        <ele>203.2</ele>
        <time>2020-01-12T08:28:14Z</time>
      </trkpt>
      <trkpt lat="56.844763117843" lon="14.831460578596">
        <ele>203.4</ele>
        <time>2020-01-12T08:28:16Z</time>
      </trkpt>
      <trkpt lat="56.844840063685" lon="14.831204679189">
        <ele>204.6</ele>
        <time>2020-01-12T08:28:20Z</time>
      </trkpt>
      <trkpt lat="56.844958080837" lon="14.830530858248">
        <ele>205.6</ele>
        <time>2020-01-12T08:28:30Z</time>
      </trkpt>
      <trkpt lat="56.845025555132" lon="14.830193654411">
        <ele>206.8</ele>
        <time>2020-01-12T08:28:35Z</time>
      </trkpt>
      <trkpt lat="56.845133933099" lon="14.829627205609">
        <ele>207.8</ele>
        <time>2020-01-12T08:28:43Z</time>
      </trkpt>
      <trkpt lat="56.845165616681" lon="14.829485300042">
        <ele>208</ele>
        <time>2020-01-12T08:28:45Z</time>
      </trkpt>
      <trkpt lat="56.845243735989" lon="14.829296707292">
        <ele>208.2</ele>
        <time>2020-01-12T08:28:48Z</time>
      </trkpt>
      <trkpt lat="56.845324453686" lon="14.829202578555">
        <ele>208.2</ele>
        <time>2020-01-12T08:28:50Z</time>
      </trkpt>
      <trkpt lat="56.845474070601" lon="14.82920551222">
        <ele>208.4</ele>
        <time>2020-01-12T08:28:53Z</time>
      </trkpt>
      <trkpt lat="56.845596446341" lon="14.829201153632">
        <ele>208.6</ele>
        <time>2020-01-12T08:28:56Z</time>
      </trkpt>
      <trkpt lat="56.845679930065" lon="14.829116412623">
        <ele>208.8</ele>
        <time>2020-01-12T08:28:58Z</time>
      </trkpt>
      <trkpt lat="56.845755199527" lon="14.82898674463">
        <ele>208.6</ele>
        <time>2020-01-12T08:29:00Z</time>
      </trkpt>
      <trkpt lat="56.845811190619" lon="14.828829248729">
        <ele>208.6</ele>
        <time>2020-01-12T08:29:02Z</time>
      </trkpt>
      <trkpt lat="56.845889226108" lon="14.82855675316">
        <ele>208.6</ele>
        <time>2020-01-12T08:29:05Z</time>
      </trkpt>
      <trkpt lat="56.845931889979" lon="14.82827931227">
        <ele>209</ele>
        <time>2020-01-12T08:29:08Z</time>
      </trkpt>
      <trkpt lat="56.846035574082" lon="14.827287146767">
        <ele>209.2</ele>
        <time>2020-01-12T08:29:19Z</time>
      </trkpt>
      <trkpt lat="56.84613548633" lon="14.826422553782">
        <ele>208.4</ele>
        <time>2020-01-12T08:29:27Z</time>
      </trkpt>
      <trkpt lat="56.846162643686" lon="14.82620479202">
        <ele>207.8</ele>
        <time>2020-01-12T08:29:29Z</time>
      </trkpt>
      <trkpt lat="56.846193069983" lon="14.825986443525">
        <ele>207.2</ele>
        <time>2020-01-12T08:29:31Z</time>
      </trkpt>
      <trkpt lat="56.846251408007" lon="14.825661812538">
        <ele>206.6</ele>
        <time>2020-01-12T08:29:34Z</time>
      </trkpt>
      <trkpt lat="56.84631988813" lon="14.825189241016">
        <ele>206.2</ele>
        <time>2020-01-12T08:29:38Z</time>
      </trkpt>
      <trkpt lat="56.846364647476" lon="14.824963684087">
        <ele>205.6</ele>
        <time>2020-01-12T08:29:40Z</time>
      </trkpt>
      <trkpt lat="56.846452070693" lon="14.824549869684">
        <ele>204.6</ele>
        <time>2020-01-12T08:29:44Z</time>
      </trkpt>
      <trkpt lat="56.846476713479" lon="14.824447861961">
        <ele>204.2</ele>
        <time>2020-01-12T08:29:45Z</time>
      </trkpt>
      <trkpt lat="56.84650009898" lon="14.824348452627">
        <ele>203.8</ele>
        <time>2020-01-12T08:29:46Z</time>
      </trkpt>
      <trkpt lat="56.846502194455" lon="14.824222556489">
        <ele>202.8</ele>
        <time>2020-01-12T08:29:48Z</time>
      </trkpt>
      <trkpt lat="56.846427679364" lon="14.824180479351">
        <ele>201.8</ele>
        <time>2020-01-12T08:29:50Z</time>
      </trkpt>
      <trkpt lat="56.846122326747" lon="14.824163296456">
        <ele>202.8</ele>
        <time>2020-01-12T08:29:58Z</time>
      </trkpt>
      <trkpt lat="56.84594270263" lon="14.824151394158">
        <ele>204</ele>
        <time>2020-01-12T08:30:03Z</time>
      </trkpt>
      <trkpt lat="56.845653778537" lon="14.82412272806">
        <ele>205</ele>
        <time>2020-01-12T08:30:09Z</time>
      </trkpt>
      <trkpt lat="56.845137621135" lon="14.82411518435">
        <ele>206</ele>
        <time>2020-01-12T08:30:19Z</time>
      </trkpt>
      <trkpt lat="56.844577710215" lon="14.824206798517">
        <ele>206</ele>
        <time>2020-01-12T08:30:29Z</time>
      </trkpt>
      <trkpt lat="56.844028695765" lon="14.824442749002">
        <ele>205.8</ele>
        <time>2020-01-12T08:30:39Z</time>
      </trkpt>
      <trkpt lat="56.843725103347" lon="14.824703258454">
        <ele>205.8</ele>
        <time>2020-01-12T08:30:45Z</time>
      </trkpt>
      <trkpt lat="56.843491667432" lon="14.82495505073">
        <ele>205.8</ele>
        <time>2020-01-12T08:30:50Z</time>
      </trkpt>
      <trkpt lat="56.84304927075" lon="14.825548824526">
        <ele>205.6</ele>
        <time>2020-01-12T08:31:00Z</time>
      </trkpt>
      <trkpt lat="56.842559935428" lon="14.82600865556">
        <ele>206</ele>
        <time>2020-01-12T08:31:10Z</time>
      </trkpt>
      <trkpt lat="56.842454323488" lon="14.826086188135">
        <ele>205.8</ele>
        <time>2020-01-12T08:31:12Z</time>
      </trkpt>
      <trkpt lat="56.842072108848" lon="14.826321048973">
        <ele>205</ele>
        <time>2020-01-12T08:31:19Z</time>
      </trkpt>
      <trkpt lat="56.841509348082" lon="14.826475192114">
        <ele>204.4</ele>
        <time>2020-01-12T08:31:28Z</time>
      </trkpt>
      <trkpt lat="56.841327712309" lon="14.826520454374">
        <ele>204</ele>
        <time>2020-01-12T08:31:31Z</time>
      </trkpt>
      <trkpt lat="56.841056138749" lon="14.826551215947">
        <ele>203.6</ele>
        <time>2020-01-12T08:31:36Z</time>
      </trkpt>
      <trkpt lat="56.840969050808" lon="14.826473515734">
        <ele>203.2</ele>
        <time>2020-01-12T08:31:39Z</time>
      </trkpt>
      <trkpt lat="56.840971230102" lon="14.826213676834">
        <ele>203</ele>
        <time>2020-01-12T08:31:44Z</time>
      </trkpt>
      <trkpt lat="56.840965781867" lon="14.826131534214">
        <ele>202.8</ele>
        <time>2020-01-12T08:31:45Z</time>
      </trkpt>
      <trkpt lat="56.840884477437" lon="14.825618645753">
        <ele>202.6</ele>
        <time>2020-01-12T08:31:50Z</time>
      </trkpt>
      <trkpt lat="56.840793952917" lon="14.825205082807">
        <ele>202</ele>
        <time>2020-01-12T08:31:54Z</time>
      </trkpt>
      <trkpt lat="56.840781044791" lon="14.82484943879">
        <ele>201.8</ele>
        <time>2020-01-12T08:31:57Z</time>
      </trkpt>
      <trkpt lat="56.840770315959" lon="14.824723626471">
        <ele>201.8</ele>
        <time>2020-01-12T08:31:58Z</time>
      </trkpt>
      <trkpt lat="56.840730921029" lon="14.82434652479">
        <ele>200.6</ele>
        <time>2020-01-12T08:32:01Z</time>
      </trkpt>
      <trkpt lat="56.840705020958" lon="14.823961208847">
        <ele>199.4</ele>
        <time>2020-01-12T08:32:04Z</time>
      </trkpt>
      <trkpt lat="56.840690184995" lon="14.82369776573">
        <ele>198.2</ele>
        <time>2020-01-12T08:32:06Z</time>
      </trkpt>
      <trkpt lat="56.840678450335" lon="14.823440944314">
        <ele>196.8</ele>
        <time>2020-01-12T08:32:08Z</time>
      </trkpt>
      <trkpt lat="56.840619693216" lon="14.822453472675">
        <ele>197</ele>
        <time>2020-01-12T08:32:17Z</time>
      </trkpt>
      <trkpt lat="56.840579041001" lon="14.821747716695">
        <ele>197.8</ele>
        <time>2020-01-12T08:32:24Z</time>
      </trkpt>
      <trkpt lat="56.840602845597" lon="14.820676509875">
        <ele>198</ele>
        <time>2020-01-12T08:32:34Z</time>
      </trkpt>
      <trkpt lat="56.840664787838" lon="14.819977207958">
        <ele>196.6</ele>
        <time>2020-01-12T08:32:40Z</time>
      </trkpt>
      <trkpt lat="56.840689682081" lon="14.819617540629">
        <ele>195.6</ele>
        <time>2020-01-12T08:32:43Z</time>
      </trkpt>
      <trkpt lat="56.840749109752" lon="14.818849507132">
        <ele>194.4</ele>
        <time>2020-01-12T08:32:49Z</time>
      </trkpt>
      <trkpt lat="56.840763358982" lon="14.818583800902">
        <ele>193.4</ele>
        <time>2020-01-12T08:32:51Z</time>
      </trkpt>
      <trkpt lat="56.84077274671" lon="14.818306443831">
        <ele>191.8</ele>
        <time>2020-01-12T08:32:53Z</time>
      </trkpt>
      <trkpt lat="56.840778111126" lon="14.818038809764">
        <ele>190.6</ele>
        <time>2020-01-12T08:32:55Z</time>
      </trkpt>
      <trkpt lat="56.840789678148" lon="14.81791593111">
        <ele>190</ele>
        <time>2020-01-12T08:32:56Z</time>
      </trkpt>
      <trkpt lat="56.840808118328" lon="14.817810486808">
        <ele>189.4</ele>
        <time>2020-01-12T08:32:57Z</time>
      </trkpt>
      <trkpt lat="56.840837622616" lon="14.817723817962">
        <ele>188.8</ele>
        <time>2020-01-12T08:32:58Z</time>
      </trkpt>
      <trkpt lat="56.840927476584" lon="14.817611249045">
        <ele>188.2</ele>
        <time>2020-01-12T08:33:00Z</time>
      </trkpt>
      <trkpt lat="56.841004757702" lon="14.817505637105">
        <ele>187.8</ele>
        <time>2020-01-12T08:33:02Z</time>
      </trkpt>
      <trkpt lat="56.841033256162" lon="14.817337328553">
        <ele>187.2</ele>
        <time>2020-01-12T08:33:04Z</time>
      </trkpt>
      <trkpt lat="56.841005679711" lon="14.817185532344">
        <ele>186.4</ele>
        <time>2020-01-12T08:33:06Z</time>
      </trkpt>
      <trkpt lat="56.840916999209" lon="14.817071119409">
        <ele>186</ele>
        <time>2020-01-12T08:33:08Z</time>
      </trkpt>
      <trkpt lat="56.840861175755" lon="14.816869702352">
        <ele>185.6</ele>
        <time>2020-01-12T08:33:10Z</time>
      </trkpt>
      <trkpt lat="56.840836281512" lon="14.816624950872">
        <ele>185</ele>
        <time>2020-01-12T08:33:12Z</time>
      </trkpt>
      <trkpt lat="56.840803592102" lon="14.816240054024">
        <ele>183.8</ele>
        <time>2020-01-12T08:33:15Z</time>
      </trkpt>
      <trkpt lat="56.840776015651" lon="14.815976527088">
        <ele>182.4</ele>
        <time>2020-01-12T08:33:17Z</time>
      </trkpt>
      <trkpt lat="56.840752797788" lon="14.81573998987">
        <ele>181.4</ele>
        <time>2020-01-12T08:33:19Z</time>
      </trkpt>
      <trkpt lat="56.84072999902" lon="14.815665055684">
        <ele>181.2</ele>
        <time>2020-01-12T08:33:20Z</time>
      </trkpt>
      <trkpt lat="56.840694292126" lon="14.815630522256">
        <ele>180.8</ele>
        <time>2020-01-12T08:33:21Z</time>
      </trkpt>
      <trkpt lat="56.840597565" lon="14.815668827539">
        <ele>180.4</ele>
        <time>2020-01-12T08:33:23Z</time>
      </trkpt>
      <trkpt lat="56.840544256116" lon="14.815713670704">
        <ele>180.2</ele>
        <time>2020-01-12T08:33:24Z</time>
      </trkpt>
      <trkpt lat="56.840487594472" lon="14.815752143625">
        <ele>179.8</ele>
        <time>2020-01-12T08:33:25Z</time>
      </trkpt>
      <trkpt lat="56.840378043039" lon="14.815789862175">
        <ele>179.4</ele>
        <time>2020-01-12T08:33:27Z</time>
      </trkpt>
      <trkpt lat="56.840260444982" lon="14.815682070941">
        <ele>179.2</ele>
        <time>2020-01-12T08:33:29Z</time>
      </trkpt>
      <trkpt lat="56.840224486631" lon="14.815500854263">
        <ele>179.8</ele>
        <time>2020-01-12T08:33:31Z</time>
      </trkpt>
      <trkpt lat="56.84010638566" lon="14.814538779781">
        <ele>180.4</ele>
        <time>2020-01-12T08:33:40Z</time>
      </trkpt>
      <trkpt lat="56.840001779548" lon="14.814072746141">
        <ele>179</ele>
        <time>2020-01-12T08:33:44Z</time>
      </trkpt>
      <trkpt lat="56.839809331124" lon="14.813424992909">
        <ele>178.4</ele>
        <time>2020-01-12T08:33:50Z</time>
      </trkpt>
      <trkpt lat="56.839785610347" lon="14.813176385755">
        <ele>177.8</ele>
        <time>2020-01-12T08:33:52Z</time>
      </trkpt>
      <trkpt lat="56.839780162112" lon="14.812944710039">
        <ele>177</ele>
        <time>2020-01-12T08:33:54Z</time>
      </trkpt>
      <trkpt lat="56.839760967561" lon="14.812729379028">
        <ele>176.8</ele>
        <time>2020-01-12T08:33:56Z</time>
      </trkpt>
      <trkpt lat="56.839729954531" lon="14.812199810586">
        <ele>176.6</ele>
        <time>2020-01-12T08:34:01Z</time>
      </trkpt>
      <trkpt lat="56.839705479383" lon="14.811984311937">
        <ele>176.6</ele>
        <time>2020-01-12T08:34:03Z</time>
      </trkpt>
      <trkpt lat="56.83971998007" lon="14.810938921369">
        <ele>175.6</ele>
        <time>2020-01-12T08:34:12Z</time>
      </trkpt>
      <trkpt lat="56.83972836197" lon="14.810478168326">
        <ele>174.8</ele>
        <time>2020-01-12T08:34:16Z</time>
      </trkpt>
      <trkpt lat="56.839746885969" lon="14.810235260864">
        <ele>174.4</ele>
        <time>2020-01-12T08:34:18Z</time>
      </trkpt>
      <trkpt lat="56.839861969456" lon="14.809355831916">
        <ele>173.4</ele>
        <time>2020-01-12T08:34:25Z</time>
      </trkpt>
      <trkpt lat="56.839913937236" lon="14.808404234809">
        <ele>172.8</ele>
        <time>2020-01-12T08:34:33Z</time>
      </trkpt>
      <trkpt lat="56.840010664362" lon="14.808074155587">
        <ele>172.4</ele>
        <time>2020-01-12T08:34:36Z</time>
      </trkpt>
      <trkpt lat="56.840201520225" lon="14.807055922375">
        <ele>173.4</ele>
        <time>2020-01-12T08:34:46Z</time>
      </trkpt>
      <trkpt lat="56.840371086062" lon="14.80606727727">
        <ele>173.4</ele>
        <time>2020-01-12T08:34:56Z</time>
      </trkpt>
      <trkpt lat="56.840458844555" lon="14.805614487032">
        <ele>174.4</ele>
        <time>2020-01-12T08:35:01Z</time>
      </trkpt>
      <trkpt lat="56.84064701821" lon="14.804660962088">
        <ele>175.2</ele>
        <time>2020-01-12T08:35:12Z</time>
      </trkpt>
      <trkpt lat="56.840679875258" lon="14.804495000468">
        <ele>175.6</ele>
        <time>2020-01-12T08:35:14Z</time>
      </trkpt>
      <trkpt lat="56.840804681749" lon="14.804009856096">
        <ele>176.2</ele>
        <time>2020-01-12T08:35:20Z</time>
      </trkpt>
      <trkpt lat="56.840832677295" lon="14.803834674386">
        <ele>176.4</ele>
        <time>2020-01-12T08:35:22Z</time>
      </trkpt>
      <trkpt lat="56.840844495774" lon="14.803747754083">
        <ele>176.6</ele>
        <time>2020-01-12T08:35:23Z</time>
      </trkpt>
      <trkpt lat="56.841026466823" lon="14.802763551385">
        <ele>177.2</ele>
        <time>2020-01-12T08:35:34Z</time>
      </trkpt>
      <trkpt lat="56.841172647159" lon="14.8019492498">
        <ele>177.8</ele>
        <time>2020-01-12T08:35:43Z</time>
      </trkpt>
      <trkpt lat="56.841320000961" lon="14.801365199008">
        <ele>176.4</ele>
        <time>2020-01-12T08:35:49Z</time>
      </trkpt>
      <trkpt lat="56.841377165519" lon="14.801157830802">
        <ele>176</ele>
        <time>2020-01-12T08:35:51Z</time>
      </trkpt>
      <trkpt lat="56.841450255687" lon="14.800986756223">
        <ele>175.8</ele>
        <time>2020-01-12T08:35:53Z</time>
      </trkpt>
      <trkpt lat="56.841899944622" lon="14.800321568639">
        <ele>177.4</ele>
        <time>2020-01-12T08:36:04Z</time>
      </trkpt>
      <trkpt lat="56.841945039244" lon="14.800275049094">
        <ele>177.6</ele>
        <time>2020-01-12T08:36:05Z</time>
      </trkpt>
      <trkpt lat="56.842029444977" lon="14.800174047199">
        <ele>178</ele>
        <time>2020-01-12T08:36:07Z</time>
      </trkpt>
      <trkpt lat="56.842111671416" lon="14.800044798301">
        <ele>178.2</ele>
        <time>2020-01-12T08:36:09Z</time>
      </trkpt>
      <trkpt lat="56.842260282503" lon="14.799503159923">
        <ele>178.6</ele>
        <time>2020-01-12T08:36:15Z</time>
      </trkpt>
      <trkpt lat="56.842403696812" lon="14.798866303161">
        <ele>179.4</ele>
        <time>2020-01-12T08:36:22Z</time>
      </trkpt>
      <trkpt lat="56.842589691173" lon="14.797887129603">
        <ele>178.2</ele>
        <time>2020-01-12T08:36:32Z</time>
      </trkpt>
      <trkpt lat="56.842624392239" lon="14.797679426121">
        <ele>177.8</ele>
        <time>2020-01-12T08:36:34Z</time>
      </trkpt>
      <trkpt lat="56.842671749974" lon="14.797500640194">
        <ele>177.4</ele>
        <time>2020-01-12T08:36:36Z</time>
      </trkpt>
      <trkpt lat="56.842688765231" lon="14.797419084307">
        <ele>177.2</ele>
        <time>2020-01-12T08:36:37Z</time>
      </trkpt>
      <trkpt lat="56.842585919318" lon="14.797228731358">
        <ele>176.4</ele>
        <time>2020-01-12T08:36:40Z</time>
      </trkpt>
      <trkpt lat="56.842454072031" lon="14.797173746094">
        <ele>176.2</ele>
        <time>2020-01-12T08:36:42Z</time>
      </trkpt>
      <trkpt lat="56.842333791766" lon="14.797122029771">
        <ele>176</ele>
        <time>2020-01-12T08:36:44Z</time>
      </trkpt>
      <trkpt lat="56.842115024176" lon="14.796968138087">
        <ele>175.8</ele>
        <time>2020-01-12T08:36:48Z</time>
      </trkpt>
      <trkpt lat="56.842007149123" lon="14.796916924678">
        <ele>175.2</ele>
        <time>2020-01-12T08:36:50Z</time>
      </trkpt>
      <trkpt lat="56.841838002381" lon="14.796799242802">
        <ele>174.6</ele>
        <time>2020-01-12T08:36:53Z</time>
      </trkpt>
      <trkpt lat="56.841731803708" lon="14.796738390208">
        <ele>174.4</ele>
        <time>2020-01-12T08:36:55Z</time>
      </trkpt>
      <trkpt lat="56.84161261309" lon="14.796667898429">
        <ele>174.2</ele>
        <time>2020-01-12T08:36:57Z</time>
      </trkpt>
      <trkpt lat="56.84144581328" lon="14.796569997837">
        <ele>174</ele>
        <time>2020-01-12T08:37:00Z</time>
      </trkpt>
      <trkpt lat="56.840944827117" lon="14.79622525029">
        <ele>174.4</ele>
        <time>2020-01-12T08:37:09Z</time>
      </trkpt>
      <trkpt lat="56.840401596178" lon="14.795912940696">
        <ele>174.4</ele>
        <time>2020-01-12T08:37:18Z</time>
      </trkpt>
      <trkpt lat="56.839860125438" lon="14.795578419067">
        <ele>174</ele>
        <time>2020-01-12T08:37:28Z</time>
      </trkpt>
      <trkpt lat="56.839457375143" lon="14.795331069198">
        <ele>173.4</ele>
        <time>2020-01-12T08:37:36Z</time>
      </trkpt>
      <trkpt lat="56.839355451239" lon="14.795277341219">
        <ele>173.2</ele>
        <time>2020-01-12T08:37:38Z</time>
      </trkpt>
      <trkpt lat="56.839141377513" lon="14.79517248365">
        <ele>172.6</ele>
        <time>2020-01-12T08:37:42Z</time>
      </trkpt>
      <trkpt lat="56.838834683792" lon="14.794898060244">
        <ele>172.2</ele>
        <time>2020-01-12T08:37:48Z</time>
      </trkpt>
      <trkpt lat="56.83827661689" lon="14.794591031247">
        <ele>172.2</ele>
        <time>2020-01-12T08:37:57Z</time>
      </trkpt>
      <trkpt lat="56.837696086496" lon="14.794574267447">
        <ele>172.6</ele>
        <time>2020-01-12T08:38:07Z</time>
      </trkpt>
      <trkpt lat="56.837110946057" lon="14.794590025419">
        <ele>172.6</ele>
        <time>2020-01-12T08:38:17Z</time>
      </trkpt>
      <trkpt lat="56.836550699861" lon="14.794587762306">
        <ele>172.6</ele>
        <time>2020-01-12T08:38:27Z</time>
      </trkpt>
      <trkpt lat="56.83632950152" lon="14.794587929944">
        <ele>173.2</ele>
        <time>2020-01-12T08:38:31Z</time>
      </trkpt>
      <trkpt lat="56.835788449875" lon="14.794583822813">
        <ele>173.2</ele>
        <time>2020-01-12T08:38:41Z</time>
      </trkpt>
      <trkpt lat="56.835680323365" lon="14.79453043011">
        <ele>173</ele>
        <time>2020-01-12T08:38:43Z</time>
      </trkpt>
      <trkpt lat="56.835600527677" lon="14.794418531745">
        <ele>172.8</ele>
        <time>2020-01-12T08:38:45Z</time>
      </trkpt>
      <trkpt lat="56.835544368947" lon="14.794278554015">
        <ele>172.8</ele>
        <time>2020-01-12T08:38:47Z</time>
      </trkpt>
      <trkpt lat="56.835530790269" lon="14.794085099763">
        <ele>172.6</ele>
        <time>2020-01-12T08:38:49Z</time>
      </trkpt>
      <trkpt lat="56.83556339586" lon="14.793885191448">
        <ele>173</ele>
        <time>2020-01-12T08:38:51Z</time>
      </trkpt>
      <trkpt lat="56.835784091287" lon="14.793242718813">
        <ele>174</ele>
        <time>2020-01-12T08:38:59Z</time>
      </trkpt>
      <trkpt lat="56.835860701853" lon="14.793009450536">
        <ele>174</ele>
        <time>2020-01-12T08:39:02Z</time>
      </trkpt>
      <trkpt lat="56.835968157811" lon="14.79271491057">
        <ele>174</ele>
        <time>2020-01-12T08:39:06Z</time>
      </trkpt>
      <trkpt lat="56.836030686785" lon="14.792580213437">
        <ele>174</ele>
        <time>2020-01-12T08:39:08Z</time>
      </trkpt>
      <trkpt lat="56.836081900194" lon="14.792444929571">
        <ele>173.8</ele>
        <time>2020-01-12T08:39:10Z</time>
      </trkpt>
      <trkpt lat="56.836319527059" lon="14.791869595955">
        <ele>173.2</ele>
        <time>2020-01-12T08:39:18Z</time>
      </trkpt>
      <trkpt lat="56.836558159752" lon="14.791161157767">
        <ele>173.4</ele>
        <time>2020-01-12T08:39:26Z</time>
      </trkpt>
      <trkpt lat="56.836760834094" lon="14.79053142562">
        <ele>173</ele>
        <time>2020-01-12T08:39:33Z</time>
      </trkpt>
      <trkpt lat="56.836870301708" lon="14.790185756064">
        <ele>173</ele>
        <time>2020-01-12T08:39:37Z</time>
      </trkpt>
      <trkpt lat="56.836987983584" lon="14.789809073478">
        <ele>173.8</ele>
        <time>2020-01-12T08:39:41Z</time>
      </trkpt>
      <trkpt lat="56.837010530895" lon="14.789595251209">
        <ele>173.8</ele>
        <time>2020-01-12T08:39:43Z</time>
      </trkpt>
      <trkpt lat="56.836989073231" lon="14.78935628324">
        <ele>173.6</ele>
        <time>2020-01-12T08:39:45Z</time>
      </trkpt>
      <trkpt lat="56.836969794861" lon="14.788964932329">
        <ele>172.6</ele>
        <time>2020-01-12T08:39:48Z</time>
      </trkpt>
      <trkpt lat="56.836978512037" lon="14.788702411221">
        <ele>172</ele>
        <time>2020-01-12T08:39:50Z</time>
      </trkpt>
      <trkpt lat="56.836994605285" lon="14.788467215107">
        <ele>171.6</ele>
        <time>2020-01-12T08:39:52Z</time>
      </trkpt>
      <trkpt lat="56.837045064323" lon="14.788175022073">
        <ele>171</ele>
        <time>2020-01-12T08:39:55Z</time>
      </trkpt>
      <trkpt lat="56.837077334638" lon="14.787864640316">
        <ele>170.2</ele>
        <time>2020-01-12T08:39:58Z</time>
      </trkpt>
      <trkpt lat="56.837076244991" lon="14.787655008997">
        <ele>170</ele>
        <time>2020-01-12T08:40:00Z</time>
      </trkpt>
      <trkpt lat="56.837034586948" lon="14.787382681066">
        <ele>170.2</ele>
        <time>2020-01-12T08:40:03Z</time>
      </trkpt>
      <trkpt lat="56.836965939187" lon="14.787218479645">
        <ele>170.4</ele>
        <time>2020-01-12T08:40:05Z</time>
      </trkpt>
      <trkpt lat="56.836908439353" lon="14.787059391183">
        <ele>170.4</ele>
        <time>2020-01-12T08:40:07Z</time>
      </trkpt>
      <trkpt lat="56.836778603722" lon="14.786862165076">
        <ele>170.4</ele>
        <time>2020-01-12T08:40:10Z</time>
      </trkpt>
      <trkpt lat="56.83647534658" lon="14.78646368955">
        <ele>172.2</ele>
        <time>2020-01-12T08:40:18Z</time>
      </trkpt>
      <trkpt lat="56.836033117536" lon="14.785757682113">
        <ele>171.2</ele>
        <time>2020-01-12T08:40:27Z</time>
      </trkpt>
      <trkpt lat="56.835987771457" lon="14.78569758389">
        <ele>171</ele>
        <time>2020-01-12T08:40:28Z</time>
      </trkpt>
      <trkpt lat="56.835778056319" lon="14.785446545985">
        <ele>170.8</ele>
        <time>2020-01-12T08:40:32Z</time>
      </trkpt>
      <trkpt lat="56.835653836561" lon="14.78536733703">
        <ele>170</ele>
        <time>2020-01-12T08:40:34Z</time>
      </trkpt>
      <trkpt lat="56.835272460111" lon="14.785221659608">
        <ele>169</ele>
        <time>2020-01-12T08:40:40Z</time>
      </trkpt>
      <trkpt lat="56.835157376624" lon="14.785149072354">
        <ele>168.6</ele>
        <time>2020-01-12T08:40:42Z</time>
      </trkpt>
      <trkpt lat="56.834839367338" lon="14.784804660083">
        <ele>168</ele>
        <time>2020-01-12T08:40:49Z</time>
      </trkpt>
      <trkpt lat="56.83479477563" lon="14.784753195217">
        <ele>168</ele>
        <time>2020-01-12T08:40:50Z</time>
      </trkpt>
      <trkpt lat="56.83468748731" lon="14.784694521917">
        <ele>167.8</ele>
        <time>2020-01-12T08:40:52Z</time>
      </trkpt>
      <trkpt lat="56.834594029125" lon="14.784710363708">
        <ele>167.8</ele>
        <time>2020-01-12T08:40:54Z</time>
      </trkpt>
      <trkpt lat="56.8342776124" lon="14.784929382755">
        <ele>169.2</ele>
        <time>2020-01-12T08:41:02Z</time>
      </trkpt>
      <trkpt lat="56.834227069543" lon="14.784908092729">
        <ele>169.2</ele>
        <time>2020-01-12T08:41:03Z</time>
      </trkpt>
      <trkpt lat="56.834000590605" lon="14.784681110877">
        <ele>170.6</ele>
        <time>2020-01-12T08:41:09Z</time>
      </trkpt>
      <trkpt lat="56.83391551432" lon="14.784479190906">
        <ele>171.8</ele>
        <time>2020-01-12T08:41:13Z</time>
      </trkpt>
      <trkpt lat="56.833785008137" lon="14.784054563852">
        <ele>173</ele>
        <time>2020-01-12T08:41:20Z</time>
      </trkpt>
      <trkpt lat="56.833743769189" lon="14.783794389676">
        <ele>174.4</ele>
        <time>2020-01-12T08:41:24Z</time>
      </trkpt>
      <trkpt lat="56.833745864664" lon="14.783520720641">
        <ele>175.4</ele>
        <time>2020-01-12T08:41:28Z</time>
      </trkpt>
      <trkpt lat="56.833797245711" lon="14.783088382239">
        <ele>176</ele>
        <time>2020-01-12T08:41:33Z</time>
      </trkpt>
      <trkpt lat="56.833983240072" lon="14.782119853694">
        <ele>175.8</ele>
        <time>2020-01-12T08:41:44Z</time>
      </trkpt>
      <trkpt lat="56.834048367435" lon="14.781783990961">
        <ele>175.4</ele>
        <time>2020-01-12T08:41:47Z</time>
      </trkpt>
      <trkpt lat="56.834147525312" lon="14.781380570114">
        <ele>175</ele>
        <time>2020-01-12T08:41:50Z</time>
      </trkpt>
      <trkpt lat="56.834199241635" lon="14.781079743723">
        <ele>174.2</ele>
        <time>2020-01-12T08:41:52Z</time>
      </trkpt>
      <trkpt lat="56.834237714556" lon="14.780822335574">
        <ele>173.2</ele>
        <time>2020-01-12T08:41:54Z</time>
      </trkpt>
      <trkpt lat="56.834303177195" lon="14.780493932732">
        <ele>172</ele>
        <time>2020-01-12T08:41:57Z</time>
      </trkpt>
      <trkpt lat="56.834447513513" lon="14.779544850195">
        <ele>172.6</ele>
        <time>2020-01-12T08:42:07Z</time>
      </trkpt>
      <trkpt lat="56.834473497403" lon="14.779194402956">
        <ele>173</ele>
        <time>2020-01-12T08:42:11Z</time>
      </trkpt>
      <trkpt lat="56.834475760516" lon="14.778901204094">
        <ele>173.2</ele>
        <time>2020-01-12T08:42:14Z</time>
      </trkpt>
      <trkpt lat="56.834511551229" lon="14.778712276068">
        <ele>173.2</ele>
        <time>2020-01-12T08:42:16Z</time>
      </trkpt>
      <trkpt lat="56.834598387713" lon="14.778570202863">
        <ele>172.6</ele>
        <time>2020-01-12T08:42:18Z</time>
      </trkpt>
      <trkpt lat="56.834919163026" lon="14.778135014615">
        <ele>172.6</ele>
        <time>2020-01-12T08:42:25Z</time>
      </trkpt>
      <trkpt lat="56.835014884324" lon="14.777984140415">
        <ele>172.2</ele>
        <time>2020-01-12T08:42:27Z</time>
      </trkpt>
      <trkpt lat="56.835227700765" lon="14.777553813669">
        <ele>172</ele>
        <time>2020-01-12T08:42:32Z</time>
      </trkpt>
      <trkpt lat="56.835315123982" lon="14.777402688012">
        <ele>171.8</ele>
        <time>2020-01-12T08:42:34Z</time>
      </trkpt>
      <trkpt lat="56.835475972643" lon="14.777230607605">
        <ele>171.6</ele>
        <time>2020-01-12T08:42:37Z</time>
      </trkpt>
      <trkpt lat="56.835599354211" lon="14.777187357001">
        <ele>171.4</ele>
        <time>2020-01-12T08:42:39Z</time>
      </trkpt>
      <trkpt lat="56.835721897589" lon="14.777188865743">
        <ele>171</ele>
        <time>2020-01-12T08:42:41Z</time>
      </trkpt>
      <trkpt lat="56.835787108771" lon="14.777203198792">
        <ele>171</ele>
        <time>2020-01-12T08:42:42Z</time>
      </trkpt>
      <trkpt lat="56.835851900858" lon="14.777228679768">
        <ele>170.8</ele>
        <time>2020-01-12T08:42:43Z</time>
      </trkpt>
      <trkpt lat="56.835966481431" lon="14.777322305591">
        <ele>170.4</ele>
        <time>2020-01-12T08:42:45Z</time>
      </trkpt>
      <trkpt lat="56.836065890765" lon="14.777461026036">
        <ele>170</ele>
        <time>2020-01-12T08:42:47Z</time>
      </trkpt>
      <trkpt lat="56.836120708391" lon="14.777504528097">
        <ele>169.8</ele>
        <time>2020-01-12T08:42:48Z</time>
      </trkpt>
      <trkpt lat="56.8361719218" lon="14.777534032385">
        <ele>169.8</ele>
        <time>2020-01-12T08:42:49Z</time>
      </trkpt>
      <trkpt lat="56.836344337483" lon="14.77739112099">
        <ele>169.4</ele>
        <time>2020-01-12T08:42:52Z</time>
      </trkpt>
      <trkpt lat="56.836536199174" lon="14.777127342597">
        <ele>169</ele>
        <time>2020-01-12T08:42:56Z</time>
      </trkpt>
      <trkpt lat="56.836640721467" lon="14.777021898295">
        <ele>168.8</ele>
        <time>2020-01-12T08:42:58Z</time>
      </trkpt>
      <trkpt lat="56.836691767238" lon="14.776963476452">
        <ele>168.8</ele>
        <time>2020-01-12T08:42:59Z</time>
      </trkpt>
      <trkpt lat="56.836808862381" lon="14.776888626085">
        <ele>168.6</ele>
        <time>2020-01-12T08:43:01Z</time>
      </trkpt>
      <trkpt lat="56.83700005352" lon="14.776785528715">
        <ele>168.2</ele>
        <time>2020-01-12T08:43:04Z</time>
      </trkpt>
      <trkpt lat="56.837098540845" lon="14.776667930658">
        <ele>168</ele>
        <time>2020-01-12T08:43:06Z</time>
      </trkpt>
      <trkpt lat="56.837200967663" lon="14.776525019263">
        <ele>168</ele>
        <time>2020-01-12T08:43:08Z</time>
      </trkpt>
      <trkpt lat="56.837300041721" lon="14.776386298818">
        <ele>167.8</ele>
        <time>2020-01-12T08:43:10Z</time>
      </trkpt>
      <trkpt lat="56.837416801588" lon="14.776203992493">
        <ele>167.8</ele>
        <time>2020-01-12T08:43:13Z</time>
      </trkpt>
      <trkpt lat="56.837485700806" lon="14.776057979795">
        <ele>167.8</ele>
        <time>2020-01-12T08:43:16Z</time>
      </trkpt>
      <trkpt lat="56.837504224805" lon="14.775914146391">
        <ele>167.8</ele>
        <time>2020-01-12T08:43:18Z</time>
      </trkpt>
      <trkpt lat="56.837496764914" lon="14.77555045575">
        <ele>167.8</ele>
        <time>2020-01-12T08:43:22Z</time>
      </trkpt>
      <trkpt lat="56.837475810164" lon="14.775237391785">
        <ele>168.2</ele>
        <time>2020-01-12T08:43:25Z</time>
      </trkpt>
      <trkpt lat="56.837476732173" lon="14.775002111852">
        <ele>168.6</ele>
        <time>2020-01-12T08:43:27Z</time>
      </trkpt>
      <trkpt lat="56.837527358849" lon="14.774800694795">
        <ele>168.4</ele>
        <time>2020-01-12T08:43:29Z</time>
      </trkpt>
      <trkpt lat="56.837624002156" lon="14.774554015478">
        <ele>168.4</ele>
        <time>2020-01-12T08:43:32Z</time>
      </trkpt>
      <trkpt lat="56.837668677683" lon="14.774365841823">
        <ele>168.4</ele>
        <time>2020-01-12T08:43:34Z</time>
      </trkpt>
      <trkpt lat="56.837668761502" lon="14.774086389277">
        <ele>168.4</ele>
        <time>2020-01-12T08:43:36Z</time>
      </trkpt>
      <trkpt lat="56.837684184198" lon="14.773691601787">
        <ele>168.4</ele>
        <time>2020-01-12T08:43:39Z</time>
      </trkpt>
      <trkpt lat="56.837501626416" lon="14.772759115412">
        <ele>169</ele>
        <time>2020-01-12T08:43:50Z</time>
      </trkpt>
      <trkpt lat="56.837469104644" lon="14.772699436284">
        <ele>169.2</ele>
        <time>2020-01-12T08:43:51Z</time>
      </trkpt>
      <trkpt lat="56.837432140465" lon="14.772546298971">
        <ele>169.6</ele>
        <time>2020-01-12T08:43:53Z</time>
      </trkpt>
      <trkpt lat="56.837456196518" lon="14.772377319867">
        <ele>169.4</ele>
        <time>2020-01-12T08:43:55Z</time>
      </trkpt>
      <trkpt lat="56.837456112699" lon="14.772103483194">
        <ele>168.8</ele>
        <time>2020-01-12T08:43:58Z</time>
      </trkpt>
      <trkpt lat="56.837374892088" lon="14.771576513141">
        <ele>168.4</ele>
        <time>2020-01-12T08:44:04Z</time>
      </trkpt>
      <trkpt lat="56.837275985668" lon="14.77106865382">
        <ele>168.8</ele>
        <time>2020-01-12T08:44:09Z</time>
      </trkpt>
      <trkpt lat="56.837231561598" lon="14.770510000185">
        <ele>168.6</ele>
        <time>2020-01-12T08:44:14Z</time>
      </trkpt>
      <trkpt lat="56.837260562972" lon="14.770273798243">
        <ele>168.6</ele>
        <time>2020-01-12T08:44:16Z</time>
      </trkpt>
      <trkpt lat="56.837330635656" lon="14.770085876045">
        <ele>168.4</ele>
        <time>2020-01-12T08:44:18Z</time>
      </trkpt>
      <trkpt lat="56.837401714168" lon="14.769954112577">
        <ele>168.6</ele>
        <time>2020-01-12T08:44:20Z</time>
      </trkpt>
      <trkpt lat="56.837491149041" lon="14.769780858704">
        <ele>169</ele>
        <time>2020-01-12T08:44:23Z</time>
      </trkpt>
      <trkpt lat="56.837560886449" lon="14.769666613407">
        <ele>169.4</ele>
        <time>2020-01-12T08:44:25Z</time>
      </trkpt>
      <trkpt lat="56.837668174769" lon="14.769546668418">
        <ele>170</ele>
        <time>2020-01-12T08:44:28Z</time>
      </trkpt>
      <trkpt lat="56.83791787157" lon="14.769265204216">
        <ele>171.2</ele>
        <time>2020-01-12T08:44:35Z</time>
      </trkpt>
      <trkpt lat="56.838137980264" lon="14.768987008955">
        <ele>172.4</ele>
        <time>2020-01-12T08:44:41Z</time>
      </trkpt>
      <trkpt lat="56.838400249915" lon="14.768645278892">
        <ele>173.6</ele>
        <time>2020-01-12T08:44:49Z</time>
      </trkpt>
      <trkpt lat="56.838666207602" lon="14.768341602655">
        <ele>174.8</ele>
        <time>2020-01-12T08:44:59Z</time>
      </trkpt>
      <trkpt lat="56.838832420679" lon="14.768161727081">
        <ele>175.8</ele>
        <time>2020-01-12T08:45:04Z</time>
      </trkpt>
      <trkpt lat="56.839029898243" lon="14.76790867752">
        <ele>176.8</ele>
        <time>2020-01-12T08:45:10Z</time>
      </trkpt>
      <trkpt lat="56.83912067422" lon="14.767848746935">
        <ele>178</ele>
        <time>2020-01-12T08:45:14Z</time>
      </trkpt>
      <trkpt lat="56.839239110467" lon="14.767793342576">
        <ele>179.2</ele>
        <time>2020-01-12T08:45:18Z</time>
      </trkpt>
      <trkpt lat="56.839394846169" lon="14.76770332097">
        <ele>180.4</ele>
        <time>2020-01-12T08:45:22Z</time>
      </trkpt>
      <trkpt lat="56.839482520843" lon="14.76764045672">
        <ele>181.4</ele>
        <time>2020-01-12T08:45:25Z</time>
      </trkpt>
      <trkpt lat="56.839607746429" lon="14.767586058189">
        <ele>182.6</ele>
        <time>2020-01-12T08:45:29Z</time>
      </trkpt>
      <trkpt lat="56.839694163818" lon="14.767488157597">
        <ele>183.8</ele>
        <time>2020-01-12T08:45:32Z</time>
      </trkpt>
      <trkpt lat="56.839864903121" lon="14.767381791286">
        <ele>184.8</ele>
        <time>2020-01-12T08:45:37Z</time>
      </trkpt>
      <trkpt lat="56.840391202622" lon="14.767069984606">
        <ele>185.6</ele>
        <time>2020-01-12T08:45:53Z</time>
      </trkpt>
      <trkpt lat="56.840494216173" lon="14.767007204175">
        <ele>186</ele>
        <time>2020-01-12T08:45:56Z</time>
      </trkpt>
      <trkpt lat="56.840646682934" lon="14.766886169539">
        <ele>187.2</ele>
        <time>2020-01-12T08:46:00Z</time>
      </trkpt>
      <trkpt lat="56.840984473504" lon="14.766153759117">
        <ele>187.6</ele>
        <time>2020-01-12T08:46:10Z</time>
      </trkpt>
      <trkpt lat="56.841115734058" lon="14.765946307092">
        <ele>186.8</ele>
        <time>2020-01-12T08:46:12Z</time>
      </trkpt>
      <trkpt lat="56.841284545524" lon="14.765768024079">
        <ele>185.8</ele>
        <time>2020-01-12T08:46:14Z</time>
      </trkpt>
      <trkpt lat="56.841374399492" lon="14.765702729078">
        <ele>184.8</ele>
        <time>2020-01-12T08:46:15Z</time>
      </trkpt>
      <trkpt lat="56.841464337279" lon="14.765645229244">
        <ele>183.4</ele>
        <time>2020-01-12T08:46:16Z</time>
      </trkpt>
      <trkpt lat="56.841549665021" lon="14.765589489609">
        <ele>181.8</ele>
        <time>2020-01-12T08:46:17Z</time>
      </trkpt>
      <trkpt lat="56.841625688854" lon="14.765531989775">
        <ele>180.8</ele>
        <time>2020-01-12T08:46:18Z</time>
      </trkpt>
      <trkpt lat="56.841818221097" lon="14.765392682597">
        <ele>179.6</ele>
        <time>2020-01-12T08:46:21Z</time>
      </trkpt>
      <trkpt lat="56.842082418585" lon="14.765182464545">
        <ele>180.8</ele>
        <time>2020-01-12T08:46:26Z</time>
      </trkpt>
      <trkpt lat="56.842126255922" lon="14.765125132349">
        <ele>181</ele>
        <time>2020-01-12T08:46:27Z</time>
      </trkpt>
      <trkpt lat="56.842360781484" lon="14.764742414795">
        <ele>180.2</ele>
        <time>2020-01-12T08:46:32Z</time>
      </trkpt>
      <trkpt lat="56.842530179683" lon="14.764267999255">
        <ele>179.2</ele>
        <time>2020-01-12T08:46:36Z</time>
      </trkpt>
      <trkpt lat="56.842613160493" lon="14.764030959123">
        <ele>177.2</ele>
        <time>2020-01-12T08:46:38Z</time>
      </trkpt>
      <trkpt lat="56.842658841848" lon="14.76391973131">
        <ele>176</ele>
        <time>2020-01-12T08:46:39Z</time>
      </trkpt>
      <trkpt lat="56.842758083544" lon="14.763765420531">
        <ele>174.2</ele>
        <time>2020-01-12T08:46:41Z</time>
      </trkpt>
      <trkpt lat="56.842869646633" lon="14.763708591249">
        <ele>173.2</ele>
        <time>2020-01-12T08:46:43Z</time>
      </trkpt>
      <trkpt lat="56.842935360729" lon="14.76368755268">
        <ele>173</ele>
        <time>2020-01-12T08:46:45Z</time>
      </trkpt>
      <trkpt lat="56.843014402046" lon="14.763745890704">
        <ele>173.2</ele>
        <time>2020-01-12T08:46:47Z</time>
      </trkpt>
      <trkpt lat="56.843234259283" lon="14.763764917617">
        <ele>174.4</ele>
        <time>2020-01-12T08:46:51Z</time>
      </trkpt>
      <trkpt lat="56.843860890127" lon="14.763734910415">
        <ele>174.4</ele>
        <time>2020-01-12T08:46:59Z</time>
      </trkpt>
      <trkpt lat="56.844344441938" lon="14.763560231619">
        <ele>174</ele>
        <time>2020-01-12T08:47:06Z</time>
      </trkpt>
      <trkpt lat="56.844509565368" lon="14.763429054884">
        <ele>174</ele>
        <time>2020-01-12T08:47:09Z</time>
      </trkpt>
      <trkpt lat="56.844616350774" lon="14.76338245152">
        <ele>174.2</ele>
        <time>2020-01-12T08:47:11Z</time>
      </trkpt>
      <trkpt lat="56.844730596071" lon="14.763419918613">
        <ele>174.4</ele>
        <time>2020-01-12T08:47:13Z</time>
      </trkpt>
      <trkpt lat="56.844820198582" lon="14.763549335149">
        <ele>175</ele>
        <time>2020-01-12T08:47:15Z</time>
      </trkpt>
      <trkpt lat="56.844829418672" lon="14.763761564857">
        <ele>175.4</ele>
        <time>2020-01-12T08:47:17Z</time>
      </trkpt>
      <trkpt lat="56.844813157786" lon="14.763868350263">
        <ele>175.4</ele>
        <time>2020-01-12T08:47:18Z</time>
      </trkpt>
      <trkpt lat="56.844785413697" lon="14.764074461184">
        <ele>175.6</ele>
        <time>2020-01-12T08:47:20Z</time>
      </trkpt>
      <trkpt lat="56.844807038999" lon="14.764273196033">
        <ele>175.4</ele>
        <time>2020-01-12T08:47:22Z</time>
      </trkpt>
      <trkpt lat="56.844896473872" lon="14.764412084116">
        <ele>175</ele>
        <time>2020-01-12T08:47:24Z</time>
      </trkpt>
      <trkpt lat="56.845019771621" lon="14.764499591152">
        <ele>174.4</ele>
        <time>2020-01-12T08:47:26Z</time>
      </trkpt>
      <trkpt lat="56.845082803509" lon="14.764535214227">
        <ele>174.4</ele>
        <time>2020-01-12T08:47:27Z</time>
      </trkpt>
      <trkpt lat="56.845454373136" lon="14.764741576605">
        <ele>174.2</ele>
        <time>2020-01-12T08:47:33Z</time>
      </trkpt>
      <trkpt lat="56.845582113292" lon="14.764756747844">
        <ele>174</ele>
        <time>2020-01-12T08:47:35Z</time>
      </trkpt>
      <trkpt lat="56.845935410377" lon="14.764723471701">
        <ele>173.6</ele>
        <time>2020-01-12T08:47:41Z</time>
      </trkpt>
      <trkpt lat="56.846136911253" lon="14.764578129555">
        <ele>173.4</ele>
        <time>2020-01-12T08:47:44Z</time>
      </trkpt>
      <trkpt lat="56.846326174555" lon="14.764362798544">
        <ele>173.2</ele>
        <time>2020-01-12T08:47:47Z</time>
      </trkpt>
      <trkpt lat="56.846397672162" lon="14.764142522212">
        <ele>173.2</ele>
        <time>2020-01-12T08:47:49Z</time>
      </trkpt>
      <trkpt lat="56.846411921392" lon="14.763903302786">
        <ele>173.2</ele>
        <time>2020-01-12T08:47:51Z</time>
      </trkpt>
      <trkpt lat="56.846412340487" lon="14.763677159124">
        <ele>173</ele>
        <time>2020-01-12T08:47:53Z</time>
      </trkpt>
      <trkpt lat="56.846472354891" lon="14.763473898049">
        <ele>173</ele>
        <time>2020-01-12T08:47:55Z</time>
      </trkpt>
      <trkpt lat="56.846573356786" lon="14.763399718234">
        <ele>173</ele>
        <time>2020-01-12T08:47:57Z</time>
      </trkpt>
      <trkpt lat="56.847146175832" lon="14.763490745668">
        <ele>172.8</ele>
        <time>2020-01-12T08:48:06Z</time>
      </trkpt>
      <trkpt lat="56.847432585355" lon="14.763702304824">
        <ele>173</ele>
        <time>2020-01-12T08:48:11Z</time>
      </trkpt>
      <trkpt lat="56.847550937783" lon="14.763706495774">
        <ele>173.2</ele>
        <time>2020-01-12T08:48:13Z</time>
      </trkpt>
      <trkpt lat="56.847600810088" lon="14.763600800015">
        <ele>173</ele>
        <time>2020-01-12T08:48:15Z</time>
      </trkpt>
      <trkpt lat="56.847698291585" lon="14.762920357373">
        <ele>173.2</ele>
        <time>2020-01-12T08:48:22Z</time>
      </trkpt>
      <trkpt lat="56.847757970713" lon="14.762764118757">
        <ele>173.4</ele>
        <time>2020-01-12T08:48:24Z</time>
      </trkpt>
      <trkpt lat="56.847854446382" lon="14.762725478198">
        <ele>173.8</ele>
        <time>2020-01-12T08:48:26Z</time>
      </trkpt>
      <trkpt lat="56.847962405254" lon="14.762698823756">
        <ele>174.8</ele>
        <time>2020-01-12T08:48:28Z</time>
      </trkpt>
      <trkpt lat="56.848056533991" lon="14.762523977322">
        <ele>176</ele>
        <time>2020-01-12T08:48:31Z</time>
      </trkpt>
      <trkpt lat="56.848094923093" lon="14.762323733731">
        <ele>176.2</ele>
        <time>2020-01-12T08:48:33Z</time>
      </trkpt>
      <trkpt lat="56.848195841169" lon="14.762202363819">
        <ele>176.4</ele>
        <time>2020-01-12T08:48:35Z</time>
      </trkpt>
      <trkpt lat="56.848305392602" lon="14.762218121791">
        <ele>176.4</ele>
        <time>2020-01-12T08:48:37Z</time>
      </trkpt>
      <trkpt lat="56.848420643727" lon="14.762231700469">
        <ele>176.2</ele>
        <time>2020-01-12T08:48:39Z</time>
      </trkpt>
      <trkpt lat="56.848986002882" lon="14.762022236788">
        <ele>175.4</ele>
        <time>2020-01-12T08:48:49Z</time>
      </trkpt>
      <trkpt lat="56.849519762274" lon="14.761833308762">
        <ele>175.4</ele>
        <time>2020-01-12T08:48:58Z</time>
      </trkpt>
      <trkpt lat="56.849864006907" lon="14.761812270193">
        <ele>174.6</ele>
        <time>2020-01-12T08:49:03Z</time>
      </trkpt>
      <trkpt lat="56.850359293378" lon="14.761716716533">
        <ele>174.4</ele>
        <time>2020-01-12T08:49:10Z</time>
      </trkpt>
      <trkpt lat="56.850501282764" lon="14.761742029871">
        <ele>174.2</ele>
        <time>2020-01-12T08:49:12Z</time>
      </trkpt>
      <trkpt lat="56.850958515409" lon="14.761864908525">
        <ele>173.4</ele>
        <time>2020-01-12T08:49:18Z</time>
      </trkpt>
      <trkpt lat="56.851553630309" lon="14.761992397224">
        <ele>172.4</ele>
        <time>2020-01-12T08:49:27Z</time>
      </trkpt>
      <trkpt lat="56.851617165111" lon="14.762007400825">
        <ele>172.4</ele>
        <time>2020-01-12T08:49:28Z</time>
      </trkpt>
      <trkpt lat="56.851791424812" lon="14.762065235935">
        <ele>172.4</ele>
        <time>2020-01-12T08:49:31Z</time>
      </trkpt>
      <trkpt lat="56.852341612728" lon="14.762101026648">
        <ele>172.8</ele>
        <time>2020-01-12T08:49:40Z</time>
      </trkpt>
      <trkpt lat="56.852710751604" lon="14.762104798503">
        <ele>173</ele>
        <time>2020-01-12T08:49:46Z</time>
      </trkpt>
      <trkpt lat="56.852834971362" lon="14.762097170974">
        <ele>172.6</ele>
        <time>2020-01-12T08:49:48Z</time>
      </trkpt>
      <trkpt lat="56.85292985447" lon="14.762169925866">
        <ele>172.2</ele>
        <time>2020-01-12T08:49:50Z</time>
      </trkpt>
      <trkpt lat="56.852924154778" lon="14.762384837782">
        <ele>171.8</ele>
        <time>2020-01-12T08:49:52Z</time>
      </trkpt>
      <trkpt lat="56.852830696593" lon="14.763447746521">
        <ele>172</ele>
        <time>2020-01-12T08:50:02Z</time>
      </trkpt>
      <trkpt lat="56.852829187851" lon="14.763544389828">
        <ele>172.2</ele>
        <time>2020-01-12T08:50:03Z</time>
      </trkpt>
      <trkpt lat="56.852836396285" lon="14.763738095537">
        <ele>172.6</ele>
        <time>2020-01-12T08:50:05Z</time>
      </trkpt>
      <trkpt lat="56.852874869206" lon="14.764150820293">
        <ele>173.4</ele>
        <time>2020-01-12T08:50:10Z</time>
      </trkpt>
      <trkpt lat="56.852885765676" lon="14.764250732541">
        <ele>173.6</ele>
        <time>2020-01-12T08:50:11Z</time>
      </trkpt>
      <trkpt lat="56.852857099578" lon="14.765251279944">
        <ele>172.8</ele>
        <time>2020-01-12T08:50:19Z</time>
      </trkpt>
      <trkpt lat="56.852865565297" lon="14.765479519081">
        <ele>172.2</ele>
        <time>2020-01-12T08:50:21Z</time>
      </trkpt>
      <trkpt lat="56.852923651864" lon="14.765696777929">
        <ele>171.4</ele>
        <time>2020-01-12T08:50:23Z</time>
      </trkpt>
      <trkpt lat="56.852958855844" lon="14.765787302449">
        <ele>171</ele>
        <time>2020-01-12T08:50:24Z</time>
      </trkpt>
      <trkpt lat="56.853003196095" lon="14.765861566083">
        <ele>170.8</ele>
        <time>2020-01-12T08:50:25Z</time>
      </trkpt>
      <trkpt lat="56.853229507395" lon="14.766036915431">
        <ele>170.4</ele>
        <time>2020-01-12T08:50:29Z</time>
      </trkpt>
      <trkpt lat="56.853419273611" lon="14.765979834692">
        <ele>170.4</ele>
        <time>2020-01-12T08:50:32Z</time>
      </trkpt>
      <trkpt lat="56.853512564158" lon="14.766062815502">
        <ele>170.6</ele>
        <time>2020-01-12T08:50:34Z</time>
      </trkpt>
      <trkpt lat="56.85365572701" lon="14.76628594168">
        <ele>170.6</ele>
        <time>2020-01-12T08:50:37Z</time>
      </trkpt>
      <trkpt lat="56.853757567095" lon="14.766406138126">
        <ele>170.6</ele>
        <time>2020-01-12T08:50:39Z</time>
      </trkpt>
      <trkpt lat="56.853854797135" lon="14.76649632737">
        <ele>170.6</ele>
        <time>2020-01-12T08:50:41Z</time>
      </trkpt>
      <trkpt lat="56.853979771264" lon="14.766663630094">
        <ele>171.4</ele>
        <time>2020-01-12T08:50:44Z</time>
      </trkpt>
      <trkpt lat="56.854239191069" lon="14.766983148122">
        <ele>171.8</ele>
        <time>2020-01-12T08:50:51Z</time>
      </trkpt>
      <trkpt lat="56.854345808837" lon="14.767048862218">
        <ele>171.8</ele>
        <time>2020-01-12T08:50:53Z</time>
      </trkpt>
      <trkpt lat="56.854460054134" lon="14.767062021801">
        <ele>171.8</ele>
        <time>2020-01-12T08:50:55Z</time>
      </trkpt>
      <trkpt lat="56.854643701563" lon="14.767035451178">
        <ele>171.8</ele>
        <time>2020-01-12T08:50:58Z</time>
      </trkpt>
      <trkpt lat="56.854785439492" lon="14.767025141441">
        <ele>171.6</ele>
        <time>2020-01-12T08:51:01Z</time>
      </trkpt>
      <trkpt lat="56.854916951503" lon="14.767043078707">
        <ele>171.4</ele>
        <time>2020-01-12T08:51:03Z</time>
      </trkpt>
      <trkpt lat="56.85517452729" lon="14.767148271552">
        <ele>171</ele>
        <time>2020-01-12T08:51:08Z</time>
      </trkpt>
      <trkpt lat="56.855336381779" lon="14.767182134428">
        <ele>170.8</ele>
        <time>2020-01-12T08:51:11Z</time>
      </trkpt>
      <trkpt lat="56.855563279812" lon="14.767223792471">
        <ele>170.8</ele>
        <time>2020-01-12T08:51:15Z</time>
      </trkpt>
      <trkpt lat="56.85614263674" lon="14.767102087283">
        <ele>170.2</ele>
        <time>2020-01-12T08:51:24Z</time>
      </trkpt>
      <trkpt lat="56.856188401914" lon="14.767060177783">
        <ele>169.8</ele>
        <time>2020-01-12T08:51:25Z</time>
      </trkpt>
      <trkpt lat="56.856288984714" lon="14.766950710169">
        <ele>169.6</ele>
        <time>2020-01-12T08:51:27Z</time>
      </trkpt>
      <trkpt lat="56.856447067348" lon="14.766769912586">
        <ele>169.4</ele>
        <time>2020-01-12T08:51:30Z</time>
      </trkpt>
      <trkpt lat="56.85655251165" lon="14.766655080556">
        <ele>169.4</ele>
        <time>2020-01-12T08:51:32Z</time>
      </trkpt>
      <trkpt lat="56.85665979997" lon="14.766572770298">
        <ele>169.6</ele>
        <time>2020-01-12T08:51:34Z</time>
      </trkpt>
      <trkpt lat="56.857081660997" lon="14.766355343812">
        <ele>169.8</ele>
        <time>2020-01-12T08:51:40Z</time>
      </trkpt>
      <trkpt lat="56.857226081134" lon="14.766307566982">
        <ele>169.8</ele>
        <time>2020-01-12T08:51:42Z</time>
      </trkpt>
      <trkpt lat="56.857536127615" lon="14.76639993552">
        <ele>169.6</ele>
        <time>2020-01-12T08:51:46Z</time>
      </trkpt>
      <trkpt lat="56.85782153131" lon="14.766602274586">
        <ele>169.4</ele>
        <time>2020-01-12T08:51:50Z</time>
      </trkpt>
      <trkpt lat="56.858010626974" lon="14.766681483541">
        <ele>169.6</ele>
        <time>2020-01-12T08:51:53Z</time>
      </trkpt>
      <trkpt lat="56.85812579428" lon="14.76663546691">
        <ele>169.8</ele>
        <time>2020-01-12T08:51:55Z</time>
      </trkpt>
      <trkpt lat="56.858211457298" lon="14.766597580722">
        <ele>170</ele>
        <time>2020-01-12T08:51:57Z</time>
      </trkpt>
      <trkpt lat="56.858412036165" lon="14.766403707375">
        <ele>170.2</ele>
        <time>2020-01-12T08:52:02Z</time>
      </trkpt>
      <trkpt lat="56.858502560685" lon="14.766425332677">
        <ele>170.4</ele>
        <time>2020-01-12T08:52:04Z</time>
      </trkpt>
      <trkpt lat="56.858680005508" lon="14.766704869042">
        <ele>170.2</ele>
        <time>2020-01-12T08:52:08Z</time>
      </trkpt>
      <trkpt lat="56.859131287004" lon="14.76737139773">
        <ele>170</ele>
        <time>2020-01-12T08:52:17Z</time>
      </trkpt>
      <trkpt lat="56.859219464592" lon="14.767537694626">
        <ele>169.8</ele>
        <time>2020-01-12T08:52:19Z</time>
      </trkpt>
      <trkpt lat="56.859404788401" lon="14.767988054113">
        <ele>169.4</ele>
        <time>2020-01-12T08:52:24Z</time>
      </trkpt>
      <trkpt lat="56.859547699796" lon="14.768350487469">
        <ele>169.4</ele>
        <time>2020-01-12T08:52:28Z</time>
      </trkpt>
      <trkpt lat="56.859593800246" lon="14.768563723005">
        <ele>169.4</ele>
        <time>2020-01-12T08:52:30Z</time>
      </trkpt>
      <trkpt lat="56.859607630381" lon="14.768781149491">
        <ele>169.4</ele>
        <time>2020-01-12T08:52:32Z</time>
      </trkpt>
      <trkpt lat="56.859575946799" lon="14.769077868751">
        <ele>169.4</ele>
        <time>2020-01-12T08:52:35Z</time>
      </trkpt>
      <trkpt lat="56.859584412518" lon="14.769348604121">
        <ele>169.4</ele>
        <time>2020-01-12T08:52:38Z</time>
      </trkpt>
      <trkpt lat="56.859640152153" lon="14.769853865053">
        <ele>169.8</ele>
        <time>2020-01-12T08:52:43Z</time>
      </trkpt>
      <trkpt lat="56.859639062506" lon="14.770116050885">
        <ele>169.8</ele>
        <time>2020-01-12T08:52:46Z</time>
      </trkpt>
      <trkpt lat="56.859690862648" lon="14.770278659745">
        <ele>169.6</ele>
        <time>2020-01-12T08:52:48Z</time>
      </trkpt>
      <trkpt lat="56.859748111025" lon="14.770457194215">
        <ele>169.4</ele>
        <time>2020-01-12T08:52:50Z</time>
      </trkpt>
      <trkpt lat="56.860037286575" lon="14.77079624207">
        <ele>171.2</ele>
        <time>2020-01-12T08:52:59Z</time>
      </trkpt>
      <trkpt lat="56.860031419245" lon="14.771113413166">
        <ele>172.2</ele>
        <time>2020-01-12T08:53:03Z</time>
      </trkpt>
      <trkpt lat="56.860017421472" lon="14.771192286845">
        <ele>172.2</ele>
        <time>2020-01-12T08:53:04Z</time>
      </trkpt>
      <trkpt lat="56.859958999629" lon="14.771811541617">
        <ele>173.2</ele>
        <time>2020-01-12T08:53:12Z</time>
      </trkpt>
      <trkpt lat="56.859956820335" lon="14.771884464147">
        <ele>173.6</ele>
        <time>2020-01-12T08:53:13Z</time>
      </trkpt>
      <trkpt lat="56.859961765656" lon="14.772133658034">
        <ele>174.2</ele>
        <time>2020-01-12T08:53:16Z</time>
      </trkpt>
      <trkpt lat="56.859969477004" lon="14.772219907785">
        <ele>174.4</ele>
        <time>2020-01-12T08:53:17Z</time>
      </trkpt>
      <trkpt lat="56.860039214412" lon="14.772658197336">
        <ele>175.6</ele>
        <time>2020-01-12T08:53:22Z</time>
      </trkpt>
      <trkpt lat="56.860068131967" lon="14.772753080444">
        <ele>175.6</ele>
        <time>2020-01-12T08:53:23Z</time>
      </trkpt>
      <trkpt lat="56.86012655381" lon="14.772967405627">
        <ele>175.8</ele>
        <time>2020-01-12T08:53:25Z</time>
      </trkpt>
      <trkpt lat="56.860184053644" lon="14.77316999615">
        <ele>175.4</ele>
        <time>2020-01-12T08:53:27Z</time>
      </trkpt>
      <trkpt lat="56.860350518178" lon="14.773598814154">
        <ele>174.6</ele>
        <time>2020-01-12T08:53:31Z</time>
      </trkpt>
      <trkpt lat="56.86039058366" lon="14.773664947345">
        <ele>174.4</ele>
        <time>2020-01-12T08:53:32Z</time>
      </trkpt>
      <trkpt lat="56.860610524716" lon="14.77395538018">
        <ele>174.2</ele>
        <time>2020-01-12T08:53:37Z</time>
      </trkpt>
      <trkpt lat="56.860726781669" lon="14.773914392689">
        <ele>174</ele>
        <time>2020-01-12T08:53:39Z</time>
      </trkpt>
      <trkpt lat="56.86085997006" lon="14.773909447368">
        <ele>173.8</ele>
        <time>2020-01-12T08:53:41Z</time>
      </trkpt>
      <trkpt lat="56.861026183137" lon="14.773972395437">
        <ele>173.4</ele>
        <time>2020-01-12T08:53:44Z</time>
      </trkpt>
      <trkpt lat="56.861143110642" lon="14.774060573025">
        <ele>173.4</ele>
        <time>2020-01-12T08:53:46Z</time>
      </trkpt>
      <trkpt lat="56.861233299886" lon="14.774237598753">
        <ele>173.6</ele>
        <time>2020-01-12T08:53:48Z</time>
      </trkpt>
      <trkpt lat="56.861458186263" lon="14.774865235425">
        <ele>174</ele>
        <time>2020-01-12T08:53:55Z</time>
      </trkpt>
      <trkpt lat="56.861540831797" lon="14.775066233387">
        <ele>174.4</ele>
        <time>2020-01-12T08:53:58Z</time>
      </trkpt>
      <trkpt lat="56.861606042979" lon="14.775206043479">
        <ele>174.6</ele>
        <time>2020-01-12T08:54:00Z</time>
      </trkpt>
      <trkpt lat="56.861688353237" lon="14.775352726729">
        <ele>174.8</ele>
        <time>2020-01-12T08:54:02Z</time>
      </trkpt>
      <trkpt lat="56.861822882732" lon="14.775509971173">
        <ele>175.6</ele>
        <time>2020-01-12T08:54:05Z</time>
      </trkpt>
      <trkpt lat="56.861898906565" lon="14.7756384657">
        <ele>176</ele>
        <time>2020-01-12T08:54:07Z</time>
      </trkpt>
      <trkpt lat="56.86192447136" lon="14.7758228675">
        <ele>176.2</ele>
        <time>2020-01-12T08:54:09Z</time>
      </trkpt>
      <trkpt lat="56.86193872059" lon="14.776140290053">
        <ele>176.4</ele>
        <time>2020-01-12T08:54:12Z</time>
      </trkpt>
      <trkpt lat="56.862015498794" lon="14.776494760604">
        <ele>176</ele>
        <time>2020-01-12T08:54:15Z</time>
      </trkpt>
      <trkpt lat="56.862092025541" lon="14.776717048592">
        <ele>175.4</ele>
        <time>2020-01-12T08:54:17Z</time>
      </trkpt>
      <trkpt lat="56.862177520921" lon="14.776959117864">
        <ele>175</ele>
        <time>2020-01-12T08:54:19Z</time>
      </trkpt>
      <trkpt lat="56.862249772899" lon="14.777176376712">
        <ele>174.6</ele>
        <time>2020-01-12T08:54:21Z</time>
      </trkpt>
      <trkpt lat="56.862278858092" lon="14.777278468254">
        <ele>174.4</ele>
        <time>2020-01-12T08:54:22Z</time>
      </trkpt>
      <trkpt lat="56.86232847894" lon="14.777399586709">
        <ele>174</ele>
        <time>2020-01-12T08:54:23Z</time>
      </trkpt>
      <trkpt lat="56.862419674012" lon="14.777624640724">
        <ele>173.6</ele>
        <time>2020-01-12T08:54:25Z</time>
      </trkpt>
      <trkpt lat="56.862568788013" lon="14.777961006371">
        <ele>173.6</ele>
        <time>2020-01-12T08:54:28Z</time>
      </trkpt>
      <trkpt lat="56.862853940251" lon="14.778651088198">
        <ele>174.4</ele>
        <time>2020-01-12T08:54:35Z</time>
      </trkpt>
      <trkpt lat="56.862936082871" lon="14.778933642047">
        <ele>174.4</ele>
        <time>2020-01-12T08:54:38Z</time>
      </trkpt>
      <trkpt lat="56.863008418668" lon="14.779103626979">
        <ele>173.8</ele>
        <time>2020-01-12T08:54:40Z</time>
      </trkpt>
      <trkpt lat="56.863080000094" lon="14.779300433991">
        <ele>173</ele>
        <time>2020-01-12T08:54:42Z</time>
      </trkpt>
      <trkpt lat="56.863313016914" lon="14.779598410536">
        <ele>173.2</ele>
        <time>2020-01-12T08:54:47Z</time>
      </trkpt>
      <trkpt lat="56.863543770621" lon="14.77967686512">
        <ele>174</ele>
        <time>2020-01-12T08:54:50Z</time>
      </trkpt>
      <trkpt lat="56.863602443921" lon="14.779753056591">
        <ele>174.2</ele>
        <time>2020-01-12T08:54:51Z</time>
      </trkpt>
      <trkpt lat="56.863704954558" lon="14.779955311838">
        <ele>174</ele>
        <time>2020-01-12T08:54:53Z</time>
      </trkpt>
      <trkpt lat="56.863824061357" lon="14.780106772771">
        <ele>172.4</ele>
        <time>2020-01-12T08:54:55Z</time>
      </trkpt>
      <trkpt lat="56.863988514235" lon="14.780036029535">
        <ele>171.6</ele>
        <time>2020-01-12T08:54:56Z</time>
      </trkpt>
      <trkpt lat="56.864103849179" lon="14.780032006223">
        <ele>170.8</ele>
        <time>2020-01-12T08:54:57Z</time>
      </trkpt>
      <trkpt lat="56.864247682583" lon="14.780026557988">
        <ele>170</ele>
        <time>2020-01-12T08:54:59Z</time>
      </trkpt>
      <trkpt lat="56.864281294002" lon="14.779987330696">
        <ele>170</ele>
        <time>2020-01-12T08:55:01Z</time>
      </trkpt>
      <trkpt lat="56.864372656712" lon="14.780115489947">
        <ele>170.6</ele>
        <time>2020-01-12T08:55:03Z</time>
      </trkpt>
      <trkpt lat="56.864475334987" lon="14.780384465118">
        <ele>171.2</ele>
        <time>2020-01-12T08:55:06Z</time>
      </trkpt>
      <trkpt lat="56.864570218095" lon="14.780652769737">
        <ele>171.2</ele>
        <time>2020-01-12T08:55:09Z</time>
      </trkpt>
      <trkpt lat="56.864673147827" lon="14.780940520364">
        <ele>171.4</ele>
        <time>2020-01-12T08:55:12Z</time>
      </trkpt>
      <trkpt lat="56.864841204922" lon="14.781341426641">
        <ele>171.4</ele>
        <time>2020-01-12T08:55:16Z</time>
      </trkpt>
      <trkpt lat="56.865138678553" lon="14.782216413182">
        <ele>171.4</ele>
        <time>2020-01-12T08:55:25Z</time>
      </trkpt>
      <trkpt lat="56.865274297695" lon="14.782520676152">
        <ele>171.6</ele>
        <time>2020-01-12T08:55:29Z</time>
      </trkpt>
      <trkpt lat="56.865350489166" lon="14.782683117374">
        <ele>171.8</ele>
        <time>2020-01-12T08:55:31Z</time>
      </trkpt>
      <trkpt lat="56.865430117216" lon="14.78286198712">
        <ele>172</ele>
        <time>2020-01-12T08:55:33Z</time>
      </trkpt>
      <trkpt lat="56.865567664195" lon="14.78327521479">
        <ele>171.8</ele>
        <time>2020-01-12T08:55:37Z</time>
      </trkpt>
      <trkpt lat="56.865676042162" lon="14.783610742247">
        <ele>171.4</ele>
        <time>2020-01-12T08:55:40Z</time>
      </trkpt>
      <trkpt lat="56.865744438466" lon="14.783838981384">
        <ele>171.2</ele>
        <time>2020-01-12T08:55:42Z</time>
      </trkpt>
      <trkpt lat="56.865771931098" lon="14.783942078754">
        <ele>170.8</ele>
        <time>2020-01-12T08:55:43Z</time>
      </trkpt>
      <trkpt lat="56.8658103202" lon="14.784157074489">
        <ele>170</ele>
        <time>2020-01-12T08:55:45Z</time>
      </trkpt>
      <trkpt lat="56.865838231927" lon="14.784366370532">
        <ele>169.6</ele>
        <time>2020-01-12T08:55:47Z</time>
      </trkpt>
      <trkpt lat="56.865836974642" lon="14.784566530304">
        <ele>169.4</ele>
        <time>2020-01-12T08:55:49Z</time>
      </trkpt>
      <trkpt lat="56.865829095656" lon="14.784780939306">
        <ele>169.4</ele>
        <time>2020-01-12T08:55:52Z</time>
      </trkpt>
      <trkpt lat="56.86590335929" lon="14.784820418055">
        <ele>169.6</ele>
        <time>2020-01-12T08:55:54Z</time>
      </trkpt>
      <trkpt lat="56.866057921526" lon="14.784880516278">
        <ele>169.8</ele>
        <time>2020-01-12T08:55:57Z</time>
      </trkpt>
      <trkpt lat="56.866186416053" lon="14.785033485953">
        <ele>170</ele>
        <time>2020-01-12T08:56:00Z</time>
      </trkpt>
      <trkpt lat="56.866277108211" lon="14.785239345417">
        <ele>170</ele>
        <time>2020-01-12T08:56:02Z</time>
      </trkpt>
      <trkpt lat="56.86632664524" lon="14.785456436627">
        <ele>170</ele>
        <time>2020-01-12T08:56:04Z</time>
      </trkpt>
      <trkpt lat="56.866348941094" lon="14.785698002985">
        <ele>170.2</ele>
        <time>2020-01-12T08:56:06Z</time>
      </trkpt>
      <trkpt lat="56.866352126216" lon="14.786126401894">
        <ele>170</ele>
        <time>2020-01-12T08:56:10Z</time>
      </trkpt>
      <trkpt lat="56.866350533655" lon="14.786323628001">
        <ele>170</ele>
        <time>2020-01-12T08:56:12Z</time>
      </trkpt>
      <trkpt lat="56.866383223065" lon="14.786540970668">
        <ele>170.2</ele>
        <time>2020-01-12T08:56:14Z</time>
      </trkpt>
      <trkpt lat="56.866391269689" lon="14.786709530677">
        <ele>170.2</ele>
        <time>2020-01-12T08:56:16Z</time>
      </trkpt>
      <trkpt lat="56.866388503662" lon="14.786892926649">
        <ele>170</ele>
        <time>2020-01-12T08:56:18Z</time>
      </trkpt>
      <trkpt lat="56.866387162558" lon="14.787065761427">
        <ele>170.2</ele>
        <time>2020-01-12T08:56:20Z</time>
      </trkpt>
      <trkpt lat="56.866388000748" lon="14.787316715513">
        <ele>170.8</ele>
        <time>2020-01-12T08:56:25Z</time>
      </trkpt>
      <trkpt lat="56.866428233868" lon="14.787630617668">
        <ele>172</ele>
        <time>2020-01-12T08:56:31Z</time>
      </trkpt>
      <trkpt lat="56.866453044292" lon="14.787830525983">
        <ele>172.4</ele>
        <time>2020-01-12T08:56:35Z</time>
      </trkpt>
      <trkpt lat="56.866462515839" lon="14.787916859553">
        <ele>172.4</ele>
        <time>2020-01-12T08:56:38Z</time>
      </trkpt>
      <trkpt lat="56.866507861918" lon="14.787986261685">
        <ele>172.6</ele>
        <time>2020-01-12T08:56:40Z</time>
      </trkpt>
      <trkpt lat="56.866572318729" lon="14.787985674952">
        <ele>173</ele>
        <time>2020-01-12T08:56:43Z</time>
      </trkpt>
      <trkpt lat="56.866590926547" lon="14.787984333848">
        <ele>173.2</ele>
        <time>2020-01-12T08:56:44Z</time>
      </trkpt>
      <trkpt lat="56.866969453151" lon="14.788647090681">
        <ele>173.8</ele>
        <time>2020-01-12T08:57:00Z</time>
      </trkpt>
      <trkpt lat="56.867042710957" lon="14.788749685137">
        <ele>174</ele>
        <time>2020-01-12T08:57:02Z</time>
      </trkpt>
      <trkpt lat="56.867390895083" lon="14.789587288404">
        <ele>174.8</ele>
        <time>2020-01-12T08:57:12Z</time>
      </trkpt>
      <trkpt lat="56.867423668312" lon="14.789727769048">
        <ele>175.2</ele>
        <time>2020-01-12T08:57:14Z</time>
      </trkpt>
      <trkpt lat="56.867490974969" lon="14.789899011265">
        <ele>176.4</ele>
        <time>2020-01-12T08:57:19Z</time>
      </trkpt>
      <trkpt lat="56.867546630785" lon="14.789889958813">
        <ele>176.8</ele>
        <time>2020-01-12T08:57:21Z</time>
      </trkpt>
      <trkpt lat="56.867636820029" lon="14.789873111194">
        <ele>177.4</ele>
        <time>2020-01-12T08:57:23Z</time>
      </trkpt>
      <trkpt lat="56.867737067553" lon="14.789856515032">
        <ele>178.4</ele>
        <time>2020-01-12T08:57:25Z</time>
      </trkpt>
      <trkpt lat="56.867858521284" lon="14.78979046566">
        <ele>179.6</ele>
        <time>2020-01-12T08:57:29Z</time>
      </trkpt>
      <trkpt lat="56.868247860539" lon="14.78964964974">
        <ele>180.8</ele>
        <time>2020-01-12T08:57:40Z</time>
      </trkpt>
      <trkpt lat="56.868310808608" lon="14.78966641354">
        <ele>181.2</ele>
        <time>2020-01-12T08:57:42Z</time>
      </trkpt>
      <trkpt lat="56.868371577383" lon="14.789713268361">
        <ele>181.2</ele>
        <time>2020-01-12T08:57:44Z</time>
      </trkpt>
      <trkpt lat="56.868446176293" lon="14.789808654383">
        <ele>181.2</ele>
        <time>2020-01-12T08:57:46Z</time>
      </trkpt>
      <trkpt lat="56.86857802358" lon="14.789900603826">
        <ele>180.6</ele>
        <time>2020-01-12T08:57:49Z</time>
      </trkpt>
      <trkpt lat="56.86886803732" lon="14.790193802688">
        <ele>179.4</ele>
        <time>2020-01-12T08:57:53Z</time>
      </trkpt>
      <trkpt lat="56.868929644285" lon="14.790312071297">
        <ele>178.8</ele>
        <time>2020-01-12T08:57:54Z</time>
      </trkpt>
      <trkpt lat="56.868981947341" lon="14.790442912756">
        <ele>177.8</ele>
        <time>2020-01-12T08:57:55Z</time>
      </trkpt>
      <trkpt lat="56.869046990885" lon="14.790544249927">
        <ele>176.4</ele>
        <time>2020-01-12T08:57:56Z</time>
      </trkpt>
      <trkpt lat="56.869114129904" lon="14.790640641777">
        <ele>174.8</ele>
        <time>2020-01-12T08:57:57Z</time>
      </trkpt>
      <trkpt lat="56.869173809032" lon="14.790741308396">
        <ele>173.6</ele>
        <time>2020-01-12T08:57:58Z</time>
      </trkpt>
      <trkpt lat="56.869262657172" lon="14.790863935593">
        <ele>172.2</ele>
        <time>2020-01-12T08:58:00Z</time>
      </trkpt>
      <trkpt lat="56.869546468306" lon="14.790119790511">
        <ele>171.2</ele>
        <time>2020-01-12T08:58:10Z</time>
      </trkpt>
      <trkpt lat="56.869664150182" lon="14.789565076369">
        <ele>170.6</ele>
        <time>2020-01-12T08:58:16Z</time>
      </trkpt>
      <trkpt lat="56.869799350229" lon="14.789042716361">
        <ele>170.4</ele>
        <time>2020-01-12T08:58:22Z</time>
      </trkpt>
      <trkpt lat="56.869850731276" lon="14.788932662014">
        <ele>170.4</ele>
        <time>2020-01-12T08:58:24Z</time>
      </trkpt>
      <trkpt lat="56.869934215" lon="14.788975325885">
        <ele>170.6</ele>
        <time>2020-01-12T08:58:26Z</time>
      </trkpt>
      <trkpt lat="56.870443331606" lon="14.789461559904">
        <ele>171.4</ele>
        <time>2020-01-12T08:58:38Z</time>
      </trkpt>
      <trkpt lat="56.870527234425" lon="14.789541774687">
        <ele>172.4</ele>
        <time>2020-01-12T08:58:40Z</time>
      </trkpt>
      <trkpt lat="56.870649610165" lon="14.789682171512">
        <ele>173.4</ele>
        <time>2020-01-12T08:58:43Z</time>
      </trkpt>
      <trkpt lat="56.870857481285" lon="14.78990613588">
        <ele>174.6</ele>
        <time>2020-01-12T08:58:48Z</time>
      </trkpt>
      <trkpt lat="56.871057641057" lon="14.790151557912">
        <ele>175.8</ele>
        <time>2020-01-12T08:58:53Z</time>
      </trkpt>
      <trkpt lat="56.871292669533" lon="14.790422377101">
        <ele>176.8</ele>
        <time>2020-01-12T08:58:59Z</time>
      </trkpt>
      <trkpt lat="56.871364670054" lon="14.790529162507">
        <ele>177.4</ele>
        <time>2020-01-12T08:59:01Z</time>
      </trkpt>
      <trkpt lat="56.871475311134" lon="14.790726053338">
        <ele>178</ele>
        <time>2020-01-12T08:59:04Z</time>
      </trkpt>
      <trkpt lat="56.871619395995" lon="14.791017072906">
        <ele>178</ele>
        <time>2020-01-12T08:59:08Z</time>
      </trkpt>
      <trkpt lat="56.871684188082" lon="14.791186974019">
        <ele>178</ele>
        <time>2020-01-12T08:59:10Z</time>
      </trkpt>
      <trkpt lat="56.872049471284" lon="14.79175099207">
        <ele>177</ele>
        <time>2020-01-12T08:59:17Z</time>
      </trkpt>
      <trkpt lat="56.87230042537" lon="14.792032707729">
        <ele>175.8</ele>
        <time>2020-01-12T08:59:21Z</time>
      </trkpt>
      <trkpt lat="56.872545847402" lon="14.792190119811">
        <ele>175.6</ele>
        <time>2020-01-12T08:59:25Z</time>
      </trkpt>
      <trkpt lat="56.87264659784" lon="14.792315848311">
        <ele>176</ele>
        <time>2020-01-12T08:59:27Z</time>
      </trkpt>
      <trkpt lat="56.872787162303" lon="14.792528329476">
        <ele>176.8</ele>
        <time>2020-01-12T08:59:30Z</time>
      </trkpt>
      <trkpt lat="56.872925296015" lon="14.792701834806">
        <ele>177.4</ele>
        <time>2020-01-12T08:59:33Z</time>
      </trkpt>
      <trkpt lat="56.873030907955" lon="14.792752712939">
        <ele>177.6</ele>
        <time>2020-01-12T08:59:35Z</time>
      </trkpt>
      <trkpt lat="56.873234252849" lon="14.792814403723">
        <ele>177.8</ele>
        <time>2020-01-12T08:59:39Z</time>
      </trkpt>
      <trkpt lat="56.873330728518" lon="14.792787497824">
        <ele>177.6</ele>
        <time>2020-01-12T08:59:41Z</time>
      </trkpt>
      <trkpt lat="56.87337582314" lon="14.792686663567">
        <ele>177.6</ele>
        <time>2020-01-12T08:59:43Z</time>
      </trkpt>
      <trkpt lat="56.87337833771" lon="14.792573088822">
        <ele>177.4</ele>
        <time>2020-01-12T08:59:48Z</time>
      </trkpt>
    </trkseg>
  </trk>
</gpx>